[[{"header":{"parameterUnit":"m.s-1","parameterCategory":1,"la1":30.6,"la2":29.2853,"lo1":-89.7004,"lo2":-87.6739,"dx":0.0162,"dy":0.0183,"nx":112,"ny":82,"refTime":"2023-01-12T06:00:00:Z","depth":0,"parameterNumber":2,"parameterNumberName":"U-component_of_WINDS"},"data":[0.0,0.0,0.0,0.0,0.0,0.0,0.0,0.0,0.0,0.0,0.0,0.0,0.0,0.0,0.0,0.0,0.0,0.0,0.0,0.0,0.0,0.0,0.0,0.0,0.0,0.0,0.0,0.0,0.0,0.0,0.0,0.0,0.0,0.0,0.0,0.0,0.0,0.0,0.0,0.0,0.0,0.0,0.0,0.0,0.0,0.0,0.0,0.0,0.0,0.0,0.0,0.0,0.0,0.0,0.0,0.0,0.0,0.0,0.0,0.0,0.0,0.0,0.0,0.0,0.0,0.0,0.0,0.0,0.0,0.0,0.0,0.0,0.0,0.0,0.0,0.0,0.0,0.0,0.0,0.0,0.0,0.0,0.0,0.0,0.0,0.0,0.0,0.0,0.0,0.0,4.5142,4.5719,4.7716,4.8982,4.8982,4.864,4.6873,4.3237,0.0,0.0,0.0,0.0,0.0,0.0,0.0,0.0,0.0,0.0,0.0,0.0,0.0,0.0,0.0,0.0,0.0,0.0,0.0,0.0,0.0,0.0,0.0,0.0,0.0,0.0,0.0,0.0,0.0,0.0,0.0,0.0,0.0,0.0,0.0,0.0,0.0,0.0,0.0,0.0,0.0,0.0,0.0,0.0,0.0,0.0,0.0,0.0,0.0,0.0,0.0,0.0,0.0,0.0,0.0,0.0,0.0,0.0,0.0,0.0,0.0,0.0,0.0,0.0,0.0,0.0,0.0,0.0,0.0,0.0,0.0,0.0,0.0,0.0,0.0,0.0,0.0,0.0,0.0,0.0,0.0,0.0,0.0,0.0,0.0,0.0,0.0,0.0,0.0,0.0,0.0,0.0,0.0,0.0,0.0,0.0,0.0,0.0,0.0,0.0,0.0,0.0,0.0,0.0,4.5281,4.8414,4.9433,4.9883,4.9883,4.9511,4.7776,4.4125,0.0,0.0,0.0,0.0,0.0,0.0,0.0,0.0,0.0,0.0,0.0,0.0,0.0,0.0,0.0,0.0,0.0,0.0,0.0,0.0,0.0,0.0,0.0,0.0,0.0,0.0,0.0,0.0,0.0,0.0,0.0,0.0,0.0,0.0,0.0,0.0,0.0,0.0,0.0,0.0,0.0,0.0,0.0,0.0,0.0,0.0,0.0,0.0,0.0,0.0,0.0,0.0,0.0,0.0,0.0,0.0,0.0,0.0,0.0,0.0,0.0,0.0,0.0,0.0,0.0,0.0,0.0,0.0,0.0,0.0,0.0,0.0,0.0,0.0,0.0,0.0,0.0,0.0,0.0,0.0,0.0,0.0,0.0,0.0,0.0,0.0,0.0,0.0,0.0,0.0,0.0,0.0,0.0,0.0,0.0,0.0,0.0,0.0,0.0,0.0,0.0,0.0,0.0,4.4281,4.6183,4.9417,4.9771,4.9754,4.9754,4.9416,4.7723,4.4319,4.3515,0.0,0.0,0.0,0.0,0.0,0.0,0.0,0.0,0.0,0.0,0.0,0.0,0.0,0.0,0.0,0.0,0.0,0.0,0.0,0.0,0.0,0.0,0.0,0.0,0.0,0.0,0.0,0.0,0.0,0.0,0.0,0.0,0.0,0.0,0.0,0.0,0.0,0.0,0.0,0.0,0.0,0.0,0.0,0.0,0.0,0.0,0.0,0.0,0.0,0.0,0.0,0.0,0.0,0.0,0.0,0.0,0.0,0.0,0.0,0.0,0.0,0.0,0.0,0.0,0.0,0.0,0.0,0.0,0.0,0.0,0.0,0.0,0.0,0.0,0.0,0.0,0.0,0.0,0.0,0.0,0.0,0.0,0.0,0.0,0.0,0.0,0.0,0.0,0.0,0.0,0.0,0.0,0.0,0.0,0.0,0.0,0.0,0.0,0.0,0.0,0.0,0.0,4.6542,4.7745,4.9873,4.983,4.9635,4.9641,4.9251,4.7628,4.4319,4.3823,0.0,0.0,0.0,0.0,0.0,0.0,0.0,0.0,0.0,0.0,0.0,0.0,0.0,0.0,0.0,0.0,0.0,0.0,0.0,0.0,0.0,0.0,0.0,0.0,0.0,0.0,0.0,0.0,0.0,0.0,0.0,0.0,0.0,0.0,0.0,0.0,0.0,0.0,0.0,0.0,0.0,0.0,0.0,0.0,0.0,0.0,0.0,0.0,0.0,0.0,0.0,0.0,0.0,0.0,0.0,0.0,0.0,0.0,0.0,0.0,0.0,0.0,0.0,0.0,0.0,0.0,0.0,0.0,0.0,0.0,0.0,0.0,0.0,0.0,0.0,0.0,0.0,0.0,0.0,0.0,0.0,0.0,0.0,0.0,0.0,0.0,0.0,0.0,0.0,0.0,0.0,0.0,0.0,0.0,0.0,0.0,0.0,0.0,0.0,0.0,0.0,0.0,4.8022,5.0281,5.0137,5.0062,5.003,5.0084,4.967,4.7935,4.4349,4.4065,0.0,0.0,0.0,0.0,0.0,0.0,0.0,0.0,0.0,0.0,0.0,0.0,0.0,0.0,0.0,0.0,0.0,0.0,0.0,0.0,0.0,0.0,0.0,0.0,0.0,0.0,0.0,0.0,0.0,0.0,0.0,0.0,0.0,0.0,0.0,0.0,0.0,0.0,0.0,0.0,0.0,0.0,0.0,0.0,0.0,0.0,0.0,0.0,0.0,0.0,0.0,0.0,0.0,0.0,0.0,0.0,0.0,0.0,0.0,0.0,0.0,0.0,0.0,0.0,0.0,0.0,0.0,0.0,0.0,0.0,0.0,0.0,0.0,0.0,0.0,0.0,0.0,0.0,0.0,0.0,0.0,0.0,0.0,0.0,0.0,0.0,0.0,0.0,0.0,0.0,0.0,0.0,0.0,0.0,0.0,0.0,0.0,0.0,0.0,0.0,0.0,0.0,4.6657,4.8596,0.0,5.0101,5.01,5.0107,4.9733,4.8056,4.4708,0.0,0.0,0.0,0.0,0.0,0.0,0.0,0.0,0.0,0.0,0.0,0.0,0.0,0.0,0.0,0.0,0.0,0.0,0.0,0.0,0.0,0.0,0.0,0.0,0.0,0.0,0.0,0.0,0.0,0.0,0.0,0.0,0.0,0.0,0.0,0.0,0.0,0.0,0.0,0.0,0.0,0.0,0.0,0.0,0.0,0.0,0.0,0.0,0.0,0.0,0.0,0.0,0.0,0.0,0.0,0.0,0.0,0.0,0.0,0.0,0.0,0.0,0.0,0.0,0.0,0.0,0.0,0.0,0.0,0.0,0.0,0.0,0.0,0.0,0.0,0.0,0.0,0.0,0.0,0.0,0.0,0.0,0.0,0.0,0.0,0.0,0.0,0.0,0.0,0.0,0.0,0.0,0.0,0.0,0.0,0.0,0.0,0.0,0.0,0.0,0.0,0.0,4.4297,4.644,4.851,0.0,5.0588,5.0723,5.087,5.0641,4.8895,4.5153,0.0,0.0,0.0,0.0,0.0,0.0,0.0,0.0,0.0,0.0,0.0,0.0,0.0,0.0,0.0,0.0,0.0,0.0,0.0,0.0,0.0,0.0,0.0,0.0,0.0,0.0,0.0,0.0,0.0,0.0,0.0,0.0,0.0,0.0,0.0,0.0,0.0,0.0,0.0,0.0,0.0,0.0,0.0,0.0,0.0,0.0,0.0,0.0,0.0,0.0,0.0,0.0,0.0,0.0,0.0,0.0,0.0,0.0,0.0,0.0,0.0,0.0,0.0,0.0,0.0,0.0,0.0,0.0,0.0,0.0,0.0,0.0,0.0,0.0,0.0,0.0,0.0,0.0,0.0,0.0,0.0,0.0,0.0,0.0,0.0,0.0,0.0,0.0,0.0,0.0,0.0,0.0,0.0,0.0,0.0,0.0,0.0,0.0,0.0,0.0,0.0,0.0,4.4051,4.7964,5.0875,5.126,5.1665,5.2088,5.257,5.2608,5.0489,0.0,0.0,0.0,0.0,0.0,0.0,0.0,0.0,0.0,0.0,0.0,0.0,0.0,0.0,0.0,0.0,0.0,0.0,0.0,0.0,0.0,0.0,0.0,0.0,0.0,0.0,0.0,0.0,0.0,0.0,0.0,0.0,0.0,0.0,0.0,0.0,0.0,0.0,0.0,0.0,0.0,0.0,0.0,0.0,0.0,0.0,0.0,0.0,0.0,0.0,0.0,0.0,0.0,0.0,0.0,0.0,0.0,0.0,0.0,0.0,0.0,0.0,0.0,0.0,0.0,0.0,0.0,0.0,0.0,0.0,0.0,0.0,0.0,0.0,0.0,0.0,0.0,0.0,0.0,0.0,0.0,0.0,0.0,0.0,0.0,0.0,0.0,0.0,0.0,0.0,0.0,0.0,0.0,0.0,0.0,0.0,0.0,0.0,0.0,0.0,0.0,0.0,0.0,4.4399,4.84,5.126,5.1665,5.2144,5.2469,5.2585,5.2054,4.9881,4.5574,0.0,0.0,0.0,0.0,0.0,0.0,0.0,0.0,0.0,0.0,0.0,0.0,0.0,0.0,0.0,0.0,0.0,0.0,0.0,0.0,0.0,0.0,0.0,0.0,0.0,0.0,0.0,0.0,0.0,0.0,0.0,0.0,0.0,0.0,0.0,0.0,0.0,0.0,0.0,0.0,0.0,0.0,0.0,0.0,0.0,0.0,0.0,0.0,0.0,0.0,0.0,0.0,0.0,0.0,0.0,0.0,0.0,0.0,0.0,0.0,0.0,0.0,0.0,0.0,0.0,0.0,0.0,0.0,0.0,0.0,0.0,0.0,0.0,0.0,0.0,0.0,0.0,0.0,0.0,0.0,0.0,0.0,0.0,0.0,0.0,0.0,0.0,0.0,0.0,0.0,0.0,0.0,0.0,0.0,0.0,0.0,0.0,0.0,0.0,0.0,0.0,0.0,4.5416,4.9086,5.1895,5.2838,5.3015,5.3133,5.3345,5.2717,5.0802,4.724,0.0,0.0,0.0,0.0,0.0,0.0,0.0,0.0,0.0,0.0,0.0,0.0,0.0,0.0,0.0,0.0,0.0,0.0,0.0,0.0,0.0,0.0,0.0,0.0,0.0,0.0,0.0,0.0,0.0,0.0,0.0,0.0,0.0,0.0,0.0,0.0,0.0,0.0,0.0,0.0,0.0,0.0,0.0,0.0,0.0,0.0,0.0,0.0,0.0,0.0,0.0,0.0,0.0,0.0,0.0,0.0,0.0,0.0,0.0,0.0,0.0,0.0,0.0,0.0,0.0,0.0,0.0,0.0,0.0,0.0,0.0,0.0,0.0,0.0,0.0,0.0,0.0,0.0,0.0,0.0,0.0,0.0,0.0,0.0,0.0,0.0,0.0,0.0,0.0,0.0,0.0,0.0,0.0,0.0,0.0,0.0,0.0,0.0,0.0,0.0,0.0,0.0,4.6789,5.0002,5.2696,5.4271,5.404,5.3968,5.4391,5.4007,5.2553,4.9804,0.0,0.0,0.0,0.0,0.0,0.0,0.0,0.0,0.0,0.0,0.0,0.0,0.0,0.0,0.0,0.0,0.0,0.0,0.0,0.0,0.0,0.0,0.0,0.0,0.0,0.0,0.0,0.0,0.0,0.0,0.0,0.0,0.0,0.0,0.0,0.0,0.0,0.0,0.0,0.0,0.0,0.0,0.0,0.0,0.0,0.0,0.0,0.0,0.0,0.0,0.0,0.0,0.0,0.0,0.0,0.0,0.0,0.0,0.0,0.0,4.0598,0.0,0.0,0.0,0.0,0.0,0.0,0.0,0.0,0.0,0.0,0.0,0.0,0.0,0.0,0.0,0.0,0.0,0.0,0.0,0.0,0.0,0.0,0.0,0.0,0.0,0.0,0.0,0.0,0.0,0.0,0.0,0.0,0.0,0.0,0.0,0.0,0.0,0.0,0.0,0.0,0.0,4.6948,5.0786,5.3556,5.3899,5.3867,5.3821,5.3944,5.3597,5.2254,4.9768,4.909,0.0,0.0,0.0,0.0,0.0,0.0,0.0,0.0,0.0,0.0,0.0,0.0,0.0,0.0,0.0,0.0,0.0,0.0,0.0,0.0,0.0,0.0,0.0,0.0,0.0,0.0,0.0,0.0,0.0,0.0,0.0,0.0,0.0,0.0,0.0,0.0,0.0,0.0,0.0,0.0,0.0,0.0,0.0,0.0,0.0,0.0,0.0,0.0,0.0,0.0,0.0,0.0,0.0,0.0,0.0,0.0,0.0,0.0,0.0,0.0,4.0708,0.0,0.0,0.0,0.0,0.0,0.0,0.0,0.0,0.0,0.0,0.0,0.0,0.0,0.0,0.0,0.0,0.0,0.0,0.0,0.0,0.0,0.0,0.0,0.0,0.0,0.0,0.0,0.0,0.0,0.0,0.0,0.0,0.0,0.0,0.0,0.0,0.0,0.0,0.0,0.0,4.8353,5.1623,5.4013,5.465,5.4372,5.4146,5.4127,5.3748,5.288,5.1402,5.019,0.0,0.0,0.0,0.0,0.0,0.0,0.0,0.0,0.0,0.0,0.0,0.0,0.0,0.0,0.0,0.0,0.0,0.0,0.0,0.0,0.0,0.0,0.0,0.0,0.0,0.0,0.0,0.0,0.0,0.0,0.0,0.0,0.0,0.0,0.0,0.0,0.0,0.0,0.0,0.0,0.0,0.0,0.0,0.0,0.0,0.0,0.0,0.0,0.0,0.0,0.0,0.0,0.0,4.1515,4.1515,4.1515,4.1515,4.1882,4.247,4.1809,4.1809,4.2249,4.1735,0.0,0.0,0.0,0.0,0.0,0.0,0.0,0.0,0.0,0.0,0.0,0.0,0.0,0.0,0.0,0.0,0.0,0.0,0.0,0.0,0.0,0.0,0.0,0.0,4.1148,4.1185,4.001,0.0,0.0,0.0,0.0,0.0,0.0,0.0,0.0,0.0,0.0,0.0,5.019,5.2527,5.4384,5.537,5.4819,5.4401,5.4385,5.4094,5.3748,5.3408,5.161,5.0362,0.0,0.0,0.0,0.0,0.0,0.0,0.0,0.0,0.0,0.0,0.0,0.0,0.0,0.0,0.0,0.0,0.0,0.0,0.0,0.0,0.0,0.0,0.0,0.0,0.0,0.0,0.0,0.0,0.0,0.0,0.0,0.0,3.3476,3.5525,0.0,0.0,0.0,0.0,0.0,0.0,0.0,0.0,0.0,0.0,0.0,0.0,0.0,4.2139,4.2139,4.2947,4.3277,4.3167,4.3167,4.3167,4.3167,4.3167,4.324,4.3314,4.3204,0.0,4.2359,4.2947,0.0,0.0,0.0,0.0,0.0,0.0,0.0,0.0,0.0,0.0,0.0,0.0,0.0,0.0,0.0,0.0,0.0,0.0,0.0,0.0,0.0,0.0,4.3204,4.3901,4.3608,4.3314,0.0,4.1699,3.99,4.0524,4.0708,0.0,0.0,0.0,0.0,0.0,0.0,0.0,5.1546,5.3612,5.4846,5.4671,5.4221,5.3906,5.3907,5.4189,5.4301,5.4252,5.4583,5.3849,5.1756,5.0802,0.0,0.0,0.0,0.0,0.0,0.0,0.0,0.0,0.0,0.0,0.0,0.0,0.0,0.0,0.0,0.0,0.0,0.0,0.0,0.0,0.0,0.0,0.0,0.0,0.0,0.0,0.0,0.0,0.0,3.4222,3.5238,3.7893,3.7647,3.7505,0.0,0.0,0.0,0.0,0.0,0.0,0.0,0.0,0.0,4.1393,4.2001,4.2506,4.2947,4.3314,4.3497,4.3497,4.3497,4.3497,4.3497,4.3497,4.3497,4.3497,4.3497,4.3277,4.2983,4.3351,4.3057,4.2433,0.0,0.0,0.0,0.0,4.0634,4.0708,4.0708,4.1038,4.1332,4.0855,0.0,0.0,0.0,0.0,0.0,0.0,0.0,4.3314,0.0,0.0,4.3681,4.4525,4.4452,4.4268,4.4635,4.3938,4.324,0.0,4.313,4.2873,4.2066,0.0,0.0,0.0,0.0,5.1042,5.221,5.3765,5.476,5.4819,5.4867,5.4862,5.4862,5.5172,5.5327,5.5104,5.539,5.5133,5.4069,5.2821,5.1316,0.0,0.0,0.0,0.0,0.0,0.0,0.0,0.0,0.0,0.0,0.0,0.0,0.0,0.0,0.0,0.0,0.0,0.0,0.0,0.0,0.0,0.0,0.0,0.0,0.0,0.0,0.0,0.0,3.6422,3.7104,3.9695,3.9265,3.8649,0.0,0.0,0.0,0.0,0.0,0.0,4.0853,4.0926,4.1433,4.258,4.2616,4.2873,4.3497,4.3497,4.3497,4.3497,4.3497,4.3497,4.3497,4.3497,4.3497,4.3497,4.3497,4.3497,4.3497,4.3497,4.3497,4.3424,4.2837,4.2947,4.3351,4.2176,4.2103,4.2653,4.2837,4.3314,4.3754,4.3351,4.3351,4.3387,4.2837,0.0,0.0,0.0,0.0,4.5039,4.5259,4.4709,4.4378,4.5369,4.5333,4.5112,4.5553,4.5773,4.5773,0.0,4.5333,4.5112,4.4525,0.0,0.0,0.0,0.0,5.1794,5.2921,5.4002,5.4806,5.5209,5.551,5.5739,5.5792,5.6144,5.6224,5.5948,5.6088,5.6198,5.6198,5.4876,5.3922,5.3518,0.0,0.0,0.0,0.0,0.0,0.0,0.0,0.0,0.0,0.0,0.0,0.0,0.0,0.0,0.0,0.0,0.0,0.0,0.0,0.0,0.0,0.0,0.0,0.0,0.0,0.0,0.0,0.0,0.0,3.9297,3.8544,0.0,0.0,0.0,0.0,3.9398,4.0187,4.1176,4.251,4.2585,4.2848,4.3424,4.3424,4.3461,4.3497,4.3497,4.3497,4.3497,4.3497,4.3497,4.3497,4.3497,4.3497,4.3497,4.3497,4.3497,4.3497,4.3497,4.3497,4.3497,4.3461,4.3461,4.3497,4.3387,4.3387,4.3534,4.4305,4.4635,4.4782,4.548,4.4709,4.3901,4.614,4.5259,0.0,0.0,4.5773,4.603,4.6801,4.6397,4.6177,4.7755,4.6948,4.625,4.7792,4.6948,4.6104,0.0,4.6985,4.6985,4.6948,0.0,4.8642,4.9884,5.0813,5.2143,5.415,5.481,5.5209,5.5643,5.5692,5.583,5.6144,5.6546,5.6748,5.6748,5.7446,5.7886,5.7886,5.7079,5.5904,5.4363,5.2674,0.0,0.0,0.0,0.0,0.0,0.0,0.0,0.0,0.0,0.0,0.0,0.0,0.0,0.0,0.0,0.0,0.0,0.0,0.0,0.0,0.0,0.0,0.0,0.0,0.0,0.0,0.0,0.0,3.9763,3.9157,0.0,3.8974,3.9358,3.9871,4.0661,4.1359,4.2159,4.3178,4.3214,4.3286,4.3497,4.3497,4.3497,4.3497,4.3497,4.3497,4.3497,4.3497,4.3497,4.3497,4.3497,4.3497,4.3497,4.3497,4.3497,4.3497,4.3497,4.3497,4.3497,4.3497,4.3497,4.3534,4.4085,4.4268,4.4378,4.5186,4.581,4.6397,4.7168,4.7058,4.6764,4.7609,4.7278,4.6728,4.7278,4.7462,4.7498,4.7792,4.7682,4.7609,4.8159,4.8306,4.8269,4.8306,4.8306,4.8196,4.7939,4.7462,4.7278,4.7792,4.9003,5.0153,5.0854,5.1899,5.3013,5.4312,5.4806,5.5187,5.5659,5.6363,5.6855,5.696,5.7353,5.7556,5.7556,5.785,5.7997,5.7997,5.7703,5.7299,5.6712,5.5647,5.3665,0.0,0.0,0.0,0.0,0.0,0.0,0.0,0.0,0.0,0.0,0.0,0.0,0.0,0.0,0.0,0.0,0.0,0.0,0.0,0.0,0.0,0.0,0.0,0.0,0.0,0.0,3.8401,3.9763,3.9337,3.9012,3.9248,4.0022,4.0744,4.1252,4.2012,4.2737,4.3461,4.3321,4.3321,4.3497,4.3497,4.3497,4.3497,4.3497,4.3497,4.3497,4.3497,4.3497,4.3497,4.3497,4.3497,4.3497,4.3497,4.3497,4.3497,4.3497,4.3644,4.3901,4.3901,4.3901,4.4011,4.4819,4.5112,4.5223,4.603,4.6838,4.7609,4.8122,4.8306,4.8306,4.8306,4.8306,4.8306,4.8306,4.8526,4.8746,4.8746,4.893,4.9224,4.9481,4.9774,4.9848,4.926,4.937,4.9407,4.8857,4.8306,4.8122,4.8636,5.0105,5.129,5.1565,5.2597,5.3716,5.4562,5.5018,5.5507,5.6211,5.6967,5.7475,5.7608,5.7376,5.7409,5.796,5.7483,5.7409,5.796,5.7483,5.7189,5.7189,5.6675,5.495,5.2013,0.0,0.0,0.0,0.0,0.0,0.0,0.0,0.0,0.0,0.0,0.0,0.0,0.0,0.0,0.0,0.0,0.0,0.0,0.0,0.0,0.0,0.0,0.0,3.8132,3.8079,3.8295,3.9266,3.9009,3.8793,3.9011,4.0297,4.1079,4.1115,4.2087,4.2957,4.3463,4.2995,4.2957,4.3463,4.3497,4.3497,4.3497,4.3497,4.3497,4.3497,4.3497,4.3497,4.3497,4.3497,4.3497,4.3497,4.3497,4.3497,4.3497,4.3534,4.4011,4.4709,4.4709,4.4745,4.4856,4.5626,4.5957,4.6104,4.6874,4.7645,4.8306,4.8306,4.8306,4.8306,4.8306,4.8343,4.8343,4.8343,4.8967,4.9627,4.9627,5.0215,5.1022,5.1793,5.1426,5.0875,5.0839,5.0215,4.9627,4.9627,4.9627,4.9627,4.9664,5.0949,5.2013,5.2055,5.3045,0.0,5.4913,5.5463,5.6171,5.726,5.7367,5.7534,5.7932,5.6528,5.6308,5.7886,5.6528,5.6345,5.7923,5.6492,5.5647,5.5647,5.5574,5.517,5.4399,0.0,0.0,0.0,0.0,0.0,0.0,0.0,0.0,0.0,0.0,0.0,0.0,0.0,0.0,0.0,0.0,0.0,0.0,0.0,0.0,0.0,0.0,3.7327,3.79,3.8277,3.8579,3.8852,3.8789,3.8957,3.9593,4.0533,4.1162,4.1325,4.2192,4.2732,4.2884,4.277,4.277,4.292,4.3286,4.3321,4.2921,4.3286,4.3497,4.3497,4.3497,4.3497,4.3497,4.3497,4.3497,4.3497,4.3497,4.3497,4.3534,4.4121,4.4525,4.4709,4.4709,4.5076,4.5663,4.6471,4.7168,4.7682,4.7902,4.8122,4.8306,4.8306,4.8306,4.8306,4.8306,4.8746,4.9224,4.9224,4.9848,5.0472,5.0472,5.1059,5.172,5.194,5.227,5.238,5.1793,5.1022,5.0472,5.0472,5.0472,5.0655,5.1242,5.1683,5.2283,5.3159,5.3817,0.0,5.5423,5.6105,5.6492,5.6511,5.6779,5.7037,5.7116,5.6712,5.6895,5.7923,5.7556,5.7519,5.796,5.7556,5.7336,5.7336,5.5611,5.462,0.0,0.0,0.0,0.0,0.0,0.0,0.0,0.0,0.0,0.0,0.0,0.0,0.0,0.0,0.0,0.0,0.0,0.0,0.0,0.0,0.0,0.0,3.6826,3.7649,3.8201,3.8496,3.8689,3.8689,3.9019,3.9386,3.9827,4.0928,4.1533,4.1394,4.2224,4.2693,4.2693,4.2693,4.2693,4.2693,4.3214,4.325,4.2693,4.3214,4.3497,4.3497,4.3497,4.3497,4.3497,4.3497,4.3497,4.3497,4.3497,4.3681,4.4048,4.4525,4.5112,0.0,0.0,0.0,0.0,0.0,4.7902,4.8306,4.8306,4.8306,4.8306,4.8306,4.8563,4.882,4.882,4.9407,5.0105,5.0105,5.0692,5.1316,5.1316,5.1903,5.2491,5.2491,5.2858,5.3004,5.216,5.1903,5.172,5.1353,5.1573,0.0,5.2417,5.2491,5.2762,5.345,5.4149,5.4899,5.5585,5.6462,5.7026,5.6927,5.7148,5.7299,5.7299,5.6675,0.0,0.0,0.0,5.7483,5.7483,5.7483,0.0,0.0,0.0,0.0,0.0,0.0,0.0,0.0,5.2711,5.1793,0.0,0.0,0.0,0.0,0.0,0.0,0.0,0.0,0.0,0.0,0.0,0.0,0.0,0.0,0.0,0.0,3.7077,3.8068,3.8737,3.8836,3.8836,3.8836,3.9643,4.0194,4.0304,4.1662,4.2337,4.1865,4.2441,4.2838,4.2838,0.0,0.0,0.0,0.0,4.3178,4.2693,4.3214,4.3497,4.3497,4.3497,4.3497,4.3497,4.3497,4.3534,4.3644,4.3644,4.4085,4.4856,4.4929,4.5883,4.7241,4.7241,4.7241,4.7352,4.8049,4.8306,4.8306,4.8416,0.0,0.0,4.8563,4.9114,4.9738,4.9738,5.0288,5.0949,5.0949,5.1499,5.2123,5.2123,5.2674,5.3225,5.3225,5.3298,5.3151,5.2417,5.2821,5.3151,5.2527,5.2894,5.3335,5.3335,5.3261,5.3225,5.3382,5.434,5.5275,5.5748,5.6784,5.7566,5.7822,0.0,0.0,5.7886,5.6638,5.6528,5.8033,5.7556,5.7226,5.7226,5.7226,5.6859,5.6161,5.6051,5.6712,5.8143,5.8033,5.7997,5.7886,5.3592,5.238,0.0,0.0,0.0,0.0,0.0,0.0,0.0,0.0,0.0,0.0,0.0,0.0,0.0,0.0,0.0,3.6741,3.7179,3.79,3.9438,3.968,3.968,3.968,4.0965,4.2103,4.2727,4.3681,4.4309,4.4361,4.396,4.3671,4.3671,4.2583,4.2221,4.2693,4.277,4.2808,4.2693,4.3214,4.3497,4.3497,0.0,0.0,4.3497,4.3497,4.3864,4.4488,4.4488,4.4929,4.5736,4.6397,4.7205,4.8086,4.8086,4.8086,4.8086,4.8233,4.8306,4.8416,4.9077,4.9334,4.9444,5.0105,5.0435,5.0582,5.0582,5.1132,0.0,5.1756,5.2344,5.2968,5.2968,5.3078,5.3225,5.3225,5.3702,5.4142,5.3959,5.4069,5.4326,5.4803,5.4509,5.4179,5.4179,5.3628,5.3497,5.4496,5.5147,5.5876,5.6908,5.7544,5.7692,5.7079,5.7593,5.774,5.7079,5.7336,5.796,5.8914,5.9428,5.9722,5.9722,5.9722,5.9648,5.9465,5.8841,5.8657,5.8988,5.8327,5.7997,5.796,5.7042,5.6785,0.0,0.0,0.0,0.0,0.0,0.0,0.0,0.0,0.0,0.0,0.0,3.4607,0.0,0.0,3.554,3.6949,3.7565,3.8219,3.9291,4.076,4.1552,4.1148,4.2176,4.3204,4.4011,4.4819,4.526,4.5084,4.4592,4.4157,4.3924,4.309,4.2657,4.2693,4.2995,4.2995,4.2693,4.3214,4.3497,4.3497,4.3497,4.3497,4.3497,4.3901,4.4305,4.4745,4.5149,4.5773,4.6581,4.7388,4.7939,4.8306,4.8306,4.8306,4.8343,4.8783,4.893,4.9077,4.9921,5.0178,5.0251,5.0655,5.1059,5.1389,5.1389,5.1977,5.2601,5.2601,5.2894,5.3225,5.3225,5.3225,5.3298,5.3702,5.4106,5.4509,5.4913,5.5317,5.5611,5.5574,5.5611,5.5464,5.506,5.4656,5.4448,5.4667,5.5564,5.6397,5.699,5.7626,5.785,5.7446,5.8143,5.8437,5.8033,5.8731,5.9391,5.9795,6.0566,6.1006,6.1006,6.1006,6.0823,6.0419,6.0015,5.9795,5.9795,5.8988,5.8621,5.8584,5.818,5.7997,0.0,0.0,0.0,0.0,0.0,0.0,0.0,0.0,3.6388,3.5712,3.5622,3.5622,3.5622,3.5622,3.5941,3.6865,3.7835,3.8628,3.9227,4.176,4.3431,4.3101,4.3721,4.4452,4.5112,4.5883,4.6211,4.5751,4.5369,4.4967,4.4551,4.3907,4.3433,4.3099,4.3251,4.3178,4.2846,4.3286,4.3497,4.3497,4.3497,4.3571,4.3754,4.4415,4.4892,4.5223,4.603,4.6728,4.7388,4.8049,4.8379,4.8526,4.8563,4.8636,4.8857,4.937,4.9701,4.9921,5.0765,5.1022,5.1059,5.1206,5.1683,5.2234,5.2234,5.2711,5.3225,5.3225,5.3225,5.3225,5.3225,5.3335,5.3592,5.4252,5.4656,5.5023,5.5684,5.6455,5.6859,5.6198,5.6712,5.7005,5.6198,5.6198,5.5978,5.5023,5.5978,5.6859,5.7005,5.7593,5.807,5.8217,5.8804,5.9281,5.9428,6.0162,6.0639,6.0639,6.1374,6.1814,6.1814,6.1814,6.152,6.0896,6.0713,6.0639,6.0639,5.9832,5.9428,5.9428,5.8621,5.8143,0.0,0.0,0.0,3.4365,3.5093,3.5588,0.0,0.0,3.5678,3.5656,3.5622,3.5622,3.5622,3.5622,3.5766,3.6374,3.7679,3.8998,4.0247,4.2346,4.4249,4.5626,4.6314,4.6764,4.68,4.7572,4.8011,4.7936,4.7241,4.68,4.6763,4.4885,4.4048,4.4455,4.3395,4.2995,4.3428,4.3497,4.3497,4.3497,4.3497,4.3864,4.4562,4.4672,4.548,4.6911,4.7682,4.8086,4.8196,4.8269,4.871,4.937,4.9407,4.9884,5.0435,4.9811,5.0031,5.0765,5.1573,5.1867,5.1977,5.2711,5.3004,5.3078,5.3078,5.3151,5.3225,5.3225,5.3225,5.3225,5.3225,5.3739,5.4289,5.4363,5.55,5.6565,5.6638,5.7299,5.785,5.774,5.84,5.8694,5.7886,5.8327,5.829,5.6748,5.6675,5.7079,5.7776,5.7923,5.8253,5.8988,5.9171,5.9501,6.0199,6.1006,6.1484,6.1484,6.2218,6.2695,6.2695,6.2695,6.2622,6.2548,6.1814,6.1484,6.1447,6.0676,6.0272,6.0272,5.9465,5.8694,3.2165,0.0,0.0,0.0,3.5723,3.6197,3.569,3.596,3.6163,3.5723,3.5622,3.5622,3.5622,3.5622,3.5936,0.0,3.8322,3.9747,4.1124,4.3555,4.5431,4.6199,4.7153,4.7792,4.7792,4.8122,4.8306,4.8306,4.7572,4.7131,4.7131,4.5808,4.493,4.4709,4.4127,4.3725,4.3497,4.3497,4.3718,4.4195,4.4195,4.4635,4.5406,4.5883,4.6728,4.7829,4.8159,4.8306,4.8343,4.8857,4.9224,4.9591,5.0105,5.0802,5.1463,5.1096,5.1206,5.161,5.2417,5.2711,5.2747,5.3115,5.3225,5.3225,5.3225,5.3225,5.3225,5.3225,5.3555,5.3922,5.3922,5.4509,5.5207,5.5684,5.6308,5.6932,5.7409,5.7776,5.7997,5.7997,5.8657,5.9098,5.8767,5.9391,5.9501,5.84,5.7813,5.7629,5.796,5.7997,5.8327,5.9134,5.9208,5.9355,5.9685,6.086,6.141,6.0933,6.2108,6.3025,6.3539,6.3576,6.3576,6.3576,6.3209,6.2805,6.2291,6.1484,6.108,6.108,6.0272,5.9722,3.2375,0.0,0.0,3.4546,3.5479,3.6026,3.5463,3.5891,3.6299,3.5723,3.5791,3.5926,3.5926,3.6096,3.6605,3.7727,3.9375,4.0861,4.2035,4.4729,4.6555,4.6597,4.7591,4.8306,4.8306,4.8306,4.8306,4.8306,4.7755,4.7462,4.7462,4.6471,4.5626,4.5039,4.4599,4.4085,4.3497,4.3718,4.4121,4.4709,4.4929,4.5443,4.625,4.7058,4.7755,4.8306,4.8306,4.8453,4.871,4.9334,4.9848,5.0288,5.0912,5.161,5.2344,5.2344,5.2344,5.2417,5.3004,5.3225,5.3225,5.3225,5.3225,5.3225,5.3225,5.3225,5.3261,5.3482,5.3959,5.4436,5.4656,5.5317,5.6088,5.6675,5.6969,5.7299,5.7886,5.7997,5.807,5.829,5.8988,5.9612,5.9832,6.0162,6.0199,5.9648,5.8657,5.7997,5.7997,5.818,5.8474,5.8841,5.9281,5.9538,5.9538,6.0786,6.1557,6.1447,6.2511,6.3539,6.4383,6.442,6.442,6.442,6.442,6.4016,6.3172,6.2585,6.2181,6.1924,6.1117,6.086,0.0,0.0,3.2645,3.2667,3.37,3.4644,3.4625,3.5178,3.5656,3.5622,3.6231,3.6738,3.6738,3.7347,3.8091,3.8851,4.0762,4.2402,4.3166,4.5605,4.7349,4.7349,4.7919,4.8306,0.0,4.8306,4.8306,4.8306,4.8269,4.8269,4.8269,4.6764,4.5883,4.5847,4.4342,4.3497,4.3497,4.4268,4.4672,4.4709,4.548,4.6287,4.7095,4.7902,4.8269,4.8306,4.8306,4.8783,4.9554,4.9591,5.0508,5.1903,5.194,5.2454,5.3188,5.3188,5.3188,5.3188,5.3188,5.3225,5.3225,5.3225,5.3225,5.3225,5.3225,5.3225,5.3371,5.4142,5.4363,5.4583,5.5354,5.6161,5.6785,5.6785,5.7409,5.796,5.7997,5.7997,5.8217,5.9024,5.9832,6.0603,6.1374,6.0896,6.0382,6.0382,5.9024,5.7997,5.7997,5.8694,5.8877,5.8107,5.9428,6.0382,6.0382,6.1117,6.2291,6.387,6.4016,6.442,6.5228,6.5264,6.5264,6.5264,6.5264,6.4861,6.4053,6.4016,6.3576,6.2768,6.1924,6.1998,0.0,0.0,3.2709,3.3168,3.3572,3.4041,3.448,3.4783,3.5185,3.6173,3.7009,3.7686,3.8159,3.8464,3.887,3.958,4.1091,4.2614,4.3768,4.5908,4.7554,4.7955,4.819,0.0,0.0,0.0,0.0,4.8306,4.8306,4.8086,4.7535,4.6985,4.6214,4.5149,4.4599,4.4305,4.4305,4.4562,4.5259,4.6324,4.7131,4.7645,4.7902,4.8196,4.8306,4.8343,4.8893,4.9334,4.9664,5.0729,5.1499,5.205,5.2601,5.2968,5.3225,5.3225,5.3225,5.3225,5.3225,5.3225,5.3225,5.3225,5.3225,5.3298,5.3849,5.3995,5.4179,5.495,5.5574,5.6051,5.6345,5.7005,5.7593,5.7593,5.7813,5.7997,5.7997,5.8437,5.8877,5.9171,6.0272,6.1263,6.1557,6.1814,6.163,6.0566,5.9024,5.7997,5.7997,5.8253,5.829,5.8033,5.8474,5.9024,5.9575,6.0823,6.2071,6.3172,6.4273,6.5264,6.6072,6.6109,6.6109,6.6109,6.6109,6.5705,6.4897,6.4897,6.4457,6.3649,6.3356,6.3099,0.0,3.2725,3.2421,3.338,3.3792,3.4217,3.5169,3.5578,3.6033,3.703,3.799,3.8836,3.9309,3.9817,4.0493,4.1508,4.2636,4.3881,4.5234,4.6784,4.7922,4.8265,4.8306,4.8306,0.0,0.0,0.0,4.8306,4.8049,4.7645,4.7131,4.6581,4.5773,4.4745,4.4709,4.4709,4.4709,4.5296,4.6214,4.7572,4.8049,4.8306,4.8306,4.8636,4.8746,4.882,4.9664,5.0178,5.0508,5.1573,5.216,5.2491,5.3004,5.3225,5.3225,5.3225,5.3408,5.3592,5.3298,5.3225,5.3261,5.3555,5.3628,5.3775,5.4583,5.484,5.4987,5.5794,5.6418,5.6859,5.7152,5.7593,5.7997,5.7997,5.7997,5.807,5.8364,5.8841,5.9391,5.9942,6.0896,6.1704,6.1998,6.1998,6.141,5.9795,5.8657,5.7997,5.7997,5.7997,5.7997,5.7997,5.8253,5.8767,5.9575,6.086,6.2218,6.3613,6.4714,6.5778,6.688,6.6916,6.6916,6.6916,6.6916,6.6512,6.5742,6.5742,6.5338,6.453,6.4237,6.3796,3.2885,3.2216,3.1977,3.3408,3.4257,3.509,3.6416,3.7286,3.7826,3.7942,3.9125,4.0189,0.0,0.0,4.2828,4.4282,4.502,4.5959,4.7258,4.8018,4.8424,0.0,0.0,0.0,0.0,0.0,0.0,4.8233,0.0,4.7057,4.6947,4.559,4.4745,4.4709,4.4745,4.4782,4.4819,4.6397,4.7572,4.8306,4.8306,4.8343,4.8379,4.9224,4.9591,4.9701,5.0508,5.1279,5.1977,5.205,5.2527,5.3225,5.3225,5.3225,5.3225,5.3261,5.3739,5.4289,5.3592,5.3335,5.3445,5.4216,5.4473,5.462,5.5427,5.5647,5.5831,5.6638,5.6859,5.7042,5.7813,5.7997,5.7997,5.7997,5.8033,5.8253,5.9061,5.9281,5.9795,6.13,6.163,6.1887,6.2622,6.1447,5.9869,5.829,5.8033,5.7997,5.7997,5.7997,5.8033,5.807,5.8767,5.9538,6.0382,6.119,6.2695,6.5154,6.5338,6.6072,6.7614,6.7687,6.7687,6.7687,6.7687,6.732,6.6549,6.6549,6.6145,6.5338,6.4567,6.4163,3.3976,3.3985,3.395,3.4355,3.4581,3.4911,3.5754,3.6141,3.6698,3.8342,3.9863,4.1271,0.0,0.0,0.0,4.3639,4.4231,0.0,4.58,4.6928,0.0,4.8229,0.0,4.8306,4.8306,4.7755,0.0,0.0,4.7241,4.6581,4.5406,4.548,4.5333,4.4745,4.5296,4.5883,4.6507,4.7498,4.8122,4.8306,4.8306,4.8636,4.926,4.9481,4.9921,5.0545,5.1353,5.1793,5.205,5.2637,5.3004,5.3225,5.3225,5.3225,5.3298,5.3885,5.4216,5.4473,5.484,5.4987,5.5023,5.5207,5.528,5.5427,5.6235,5.6492,5.6675,5.7483,5.7703,5.774,5.796,5.7997,5.7997,5.7997,5.8474,5.8951,5.9171,6.0162,6.1117,6.152,6.2071,6.2365,6.1961,6.108,6.0052,5.9061,5.84,5.7997,5.7997,5.7997,5.8217,5.8841,5.9098,5.9795,6.1153,6.2034,6.3319,6.5191,6.5852,6.6659,6.765,6.7687,6.7687,6.7687,6.7687,6.7577,6.7393,6.7393,6.699,6.6182,6.5962,6.5228,3.498,3.5162,3.5358,3.5999,3.6174,3.6419,3.7392,3.788,3.8447,3.9648,4.111,0.0,0.0,0.0,0.0,0.0,0.0,0.0,4.5647,4.6382,4.6939,0.0,4.7241,0.0,4.7241,4.6838,4.6434,0.0,4.6067,4.581,4.5259,4.5333,4.5333,4.5223,4.603,4.6838,4.7645,4.8086,4.8306,4.8306,4.8673,4.9114,4.9591,5.0325,5.0875,5.1353,0.0,5.2527,5.2564,5.3004,5.3225,5.3225,5.3225,5.3445,5.3775,5.4216,5.484,5.5537,5.5978,5.6345,5.6602,5.6235,5.6124,5.6271,5.7079,5.7336,5.7409,5.7886,5.7997,5.7997,5.7997,5.7997,5.8107,5.8437,5.8877,5.9391,6.0126,6.097,6.1704,6.2071,6.2511,6.2438,6.1263,6.1006,6.0419,5.8914,5.8584,5.84,5.8033,5.7997,5.8327,5.9134,5.9538,6.0236,6.1484,6.2695,6.3759,6.4714,6.5852,6.6696,6.7136,6.7504,6.7687,6.7687,6.7687,6.7687,6.7687,6.7687,6.7467,6.7026,6.6659,6.5815,3.6052,3.612,3.6507,3.7774,3.8143,3.8479,3.9765,4.0627,4.1081,4.1283,0.0,0.0,4.3538,0.0,4.3978,4.5309,0.0,4.4744,4.6,4.6052,4.592,4.5883,4.5883,4.5883,4.5883,4.581,4.5516,4.4892,4.4782,4.5002,4.57,4.5296,4.5406,4.6177,4.6911,4.7609,4.8306,4.8416,4.8489,4.8489,4.9334,4.9811,4.9958,5.1353,5.205,5.2197,5.2894,5.3225,5.3225,5.3225,5.3261,5.3371,5.3371,5.3849,5.4583,5.4693,5.5611,5.6822,5.6932,5.7409,5.7886,5.7189,5.6969,5.7079,5.7776,5.7997,5.7997,5.7997,5.7997,5.7997,5.7997,5.807,5.8327,5.9061,5.9391,5.9905,6.13,6.1667,6.1961,6.2658,6.2805,6.2328,6.0823,6.1043,6.0676,5.8474,5.8657,5.8841,5.8253,5.8143,5.8474,5.9281,6.0089,6.0896,6.1704,6.3099,6.4016,6.4237,6.5558,6.6439,6.6659,6.732,6.7687,6.7687,6.7687,6.7687,6.7687,6.7687,6.7687,6.765,6.699,6.6219,3.7532,3.8002,3.8505,3.874,3.8768,3.8995,3.9885,4.0183,0.0,0.0,0.0,4.3606,4.4248,4.4384,0.0,4.4508,0.0,0.0,0.0,0.0,4.5345,0.0,0.0,0.0,0.0,0.0,0.0,0.0,4.5076,4.4782,4.4892,4.6067,4.7058,4.7865,4.8012,4.8159,4.8306,4.9003,4.937,4.937,5.0178,5.0949,5.1573,5.1867,5.2344,5.3004,5.3151,0.0,5.3225,5.3225,5.3592,5.4179,5.4179,5.4693,5.5464,5.6124,5.6565,5.6895,5.7556,5.7886,5.796,5.785,5.7776,5.7813,5.796,5.7997,5.7997,5.7997,5.7997,5.7997,5.7997,5.851,5.9061,5.9171,6.0236,6.1263,6.152,6.2108,6.2658,6.2768,6.2805,6.2511,6.1557,6.097,6.0236,5.9171,5.8547,5.84,5.8951,5.8988,5.9318,6.0126,6.0896,6.1704,6.2548,6.2879,6.3613,6.5007,6.5375,6.6109,6.743,6.7614,6.7687,6.7687,6.7687,6.7687,6.7687,6.7687,6.7687,6.7687,6.754,6.7063,3.9035,3.9276,3.9546,3.9546,3.953,3.9659,4.0027,0.0,0.0,0.0,0.0,4.3673,4.4451,0.0,0.0,0.0,0.0,0.0,0.0,0.0,0.0,0.0,0.0,0.0,0.0,0.0,0.0,0.0,4.592,4.5957,4.5957,4.7095,4.7902,4.8306,4.8306,4.8526,4.8967,4.937,4.9811,5.0215,5.1022,5.161,5.2013,5.2417,5.2858,5.3225,5.3225,5.3225,5.3225,5.3665,5.4069,5.4436,5.484,5.55,5.6271,5.6675,5.7079,5.7483,5.7886,5.7997,5.7997,5.7997,5.7997,5.7997,5.7997,5.7997,5.7997,5.7997,5.7997,5.8107,5.851,5.8914,5.9428,6.0272,6.1374,6.2218,6.2218,6.2548,6.2805,6.2805,6.2805,6.2438,6.119,6.1006,6.0603,5.9391,5.8877,5.8914,5.9722,5.9832,6.0126,6.0933,6.1374,6.1924,6.2732,6.3209,6.3649,6.398,6.5228,6.6072,6.6439,6.7247,6.7687,6.7687,6.7687,6.7687,6.7687,6.7687,6.7687,6.7687,6.7687,6.7247,4.0246,4.0303,4.0303,4.0303,4.0303,4.0337,4.0508,4.0968,0.0,0.0,0.0,0.0,0.0,0.0,0.0,0.0,0.0,0.0,0.0,0.0,0.0,0.0,0.0,0.0,0.0,0.0,0.0,0.0,4.6911,4.7388,4.7388,4.7976,4.8306,4.8306,4.8489,4.8893,4.9591,4.9921,5.0435,5.1059,5.1867,5.227,5.227,5.2931,5.3225,5.3225,5.3225,5.3298,5.3518,5.4142,5.462,5.4987,5.5611,5.6345,5.7079,5.7079,5.7446,5.7997,5.7997,5.7997,5.7997,5.7997,5.7997,5.7997,5.7997,5.7997,5.8033,5.8217,5.8253,5.8437,5.9245,5.9612,6.0089,6.152,6.2365,6.2805,6.2805,6.2805,6.2805,6.2805,6.2805,6.2401,6.1153,6.13,6.1165,5.9789,5.9615,5.9882,6.0609,6.0876,6.1274,6.1982,6.1948,6.2108,6.2768,6.3429,6.3613,6.3135,6.5081,6.6035,6.5595,6.6953,6.7687,6.7687,6.7687,6.7687,6.7687,6.7687,6.7687,6.7687,6.7687,6.7357,4.0978,4.0827,4.0827,4.0827,4.0827,4.1034,4.176,0.0,0.0,0.0,4.3369,4.3673,0.0,0.0,0.0,0.0,0.0,0.0,0.0,0.0,0.0,0.0,0.0,0.0,0.0,0.0,0.0,0.0,4.7755,4.8196,4.8196,4.8269,4.8306,4.8306,4.9077,4.9517,4.9591,5.1022,5.1793,5.1903,5.2711,5.3115,5.3115,5.3188,5.3225,5.3225,5.3225,5.3628,0.0,5.4363,5.528,5.6602,5.6675,5.7189,5.7886,5.7886,5.7923,5.7997,5.7997,5.7997,5.7997,5.7997,5.7997,5.7997,5.7997,5.7997,5.8143,5.8877,5.9098,5.9281,6.0089,6.0823,6.1594,6.2475,6.2768,6.2805,6.2805,6.2805,6.2805,6.2805,6.2805,6.2768,6.2622,6.2034,6.1456,6.1001,6.0976,6.1185,6.1695,6.241,6.3008,6.3363,6.2962,6.2732,6.2805,6.2879,6.3209,6.3943,6.4897,6.5705,6.6366,6.721,6.7687,6.7687,6.7687,6.7687,6.7687,6.7687,6.7687,6.7687,6.7687,6.765,4.1639,4.1429,4.1429,4.1429,4.1429,4.1534,4.185,0.0,0.0,4.2949,4.311,4.3353,0.0,0.0,0.0,0.0,0.0,0.0,0.0,0.0,0.0,0.0,0.0,0.0,0.0,0.0,0.0,4.7755,4.8122,4.8526,4.904,4.9077,4.9077,4.9077,4.9884,5.0545,5.1022,5.1683,5.2234,5.2747,5.3078,5.3225,5.3225,5.3225,5.3225,5.3225,5.3702,5.4106,0.0,5.5464,5.6235,5.6859,5.7336,5.7703,5.7997,5.7997,5.7997,5.7997,5.7997,5.7997,5.807,5.8584,5.8731,5.8731,5.8731,5.8731,5.8914,5.9722,5.9942,6.0126,6.0896,6.1704,6.2401,6.2732,6.3062,6.3308,6.3308,6.3543,6.3766,6.3766,6.3766,6.3579,6.3056,6.2309,6.1756,6.1617,6.1168,6.1507,6.32,6.32,6.3613,6.4986,6.4002,6.3121,6.2805,6.2805,6.3172,6.4016,6.4861,6.5668,6.6476,6.7247,6.7687,6.7687,6.7687,6.7687,6.7687,6.7687,6.7687,6.7687,6.7687,6.7687,4.2226,4.2062,4.2062,4.2062,4.2062,4.2062,0.0,0.0,0.0,4.2766,4.29,4.3147,4.388,0.0,0.0,0.0,0.0,0.0,0.0,0.0,0.0,0.0,0.0,0.0,0.0,0.0,4.7719,4.8269,4.8526,4.893,4.9554,5.0031,5.0178,4.9958,5.0729,5.1426,5.1977,5.2234,5.2637,5.3225,5.3225,5.3225,5.3225,5.3445,5.3555,5.3592,5.4399,5.4876,0.0,5.6345,5.6932,5.7226,5.7776,5.7997,5.7997,5.7997,5.7997,5.7997,5.7997,5.8143,5.8437,5.9024,5.9391,5.9612,5.9832,5.9758,5.9722,6.0529,6.0933,6.1263,6.1814,6.2512,6.3062,6.3062,6.3453,6.385,6.385,6.4099,6.437,6.437,6.437,6.4181,6.3614,6.3011,6.252,6.217,6.2053,6.2501,6.3892,6.3964,6.4512,6.6056,6.4758,6.3661,6.3185,6.3172,6.3466,6.4053,6.5301,6.6256,6.6843,6.7834,6.8274,6.8054,6.8054,6.7944,6.7687,6.7687,6.7687,6.7687,6.7687,6.7687,4.2808,4.2693,4.2693,4.2693,4.2693,4.2693,0.0,0.0,0.0,0.0,4.29,4.3147,4.388,4.4507,0.0,0.0,0.0,0.0,0.0,0.0,0.0,0.0,0.0,0.0,0.0,0.0,4.8306,4.8306,4.9077,0.0,4.9591,5.1096,5.161,5.0802,5.1573,5.1977,5.1977,5.2784,5.3188,5.3225,5.3225,5.3225,5.3225,5.4032,5.4399,5.4436,5.5244,5.6051,0.0,5.6785,5.7262,5.7997,5.7997,5.7997,5.7997,5.7997,5.7997,5.7997,5.7997,5.851,5.9208,5.9208,5.9758,6.0529,6.1337,6.1006,6.0566,6.1374,6.2144,6.2805,6.2805,6.3215,6.3587,6.3587,6.3978,6.437,6.437,6.437,6.437,6.437,6.437,6.437,6.437,6.437,6.3951,6.2756,6.4031,6.4641,6.3463,6.482,6.6035,6.6351,6.5192,6.4312,6.4081,6.409,6.409,6.409,6.6329,6.765,6.7687,6.9229,6.9706,6.8898,6.8898,6.8495,6.7687,6.7687,6.7687,6.7687,6.7687,6.7687,4.3619,4.3422,4.325,4.325,4.325,4.325,4.325,0.0,0.0,0.0,0.0,0.0,4.361,4.3833,4.4127,4.471,0.0,0.0,0.0,0.0,0.0,0.0,0.0,0.0,0.0,0.0,4.8969,4.9525,4.9822,5.0631,5.1986,5.2548,5.2455,5.165,5.2417,5.2821,5.2821,5.3078,5.3318,5.3604,5.4199,5.4459,5.4457,5.5312,5.5517,5.5244,5.6088,5.6565,5.6859,5.7409,5.7776,5.7997,5.7997,5.7997,5.7997,5.7997,5.8563,5.9361,5.9361,6.0095,6.1125,6.1686,6.2024,6.2398,6.3259,6.2443,6.1374,6.2181,6.2622,6.2904,6.3262,6.3453,6.368,6.4059,6.4518,6.4866,6.4866,6.5168,6.5456,6.5456,6.5456,6.5456,6.5456,6.4929,6.4604,6.483,6.5317,6.569,6.5897,6.6898,6.7725,6.7992,6.7174,6.6406,6.6041,6.4816,6.4954,6.695,6.7473,6.8164,6.9265,6.9816,6.9963,6.9743,6.9706,6.9302,6.8531,6.8531,6.8238,6.7687,6.7687,6.7687,0.0,4.3849,4.3627,4.3529,4.3497,0.0,0.0,0.0,0.0,0.0,0.0,0.0,0.0,0.0,4.3754,4.4562,4.5112,0.0,0.0,0.0,0.0,0.0,0.0,0.0,0.0,4.9589,4.9851,5.0408,5.1007,5.1893,5.3126,5.3503,5.3466,5.2977,5.3265,5.3359,5.3225,5.3359,5.3751,5.428,5.4985,5.5505,5.5769,5.6444,5.658,5.6362,5.6985,5.7262,0.0,5.7776,5.7997,5.8042,5.8194,5.8282,5.8319,5.8837,5.9536,6.0302,6.0602,6.1432,6.2444,6.2935,6.335,6.369,6.4219,6.36,6.274,6.326,6.3408,6.3498,6.3808,6.4019,6.4255,6.459,6.5035,6.5417,6.5417,6.5663,6.5897,6.5897,6.5897,6.5897,6.5897,6.5705,6.5628,6.5859,6.6436,6.6898,6.709,6.7859,6.8586,6.9092,6.8209,6.7812,6.8392,6.6687,6.6435,6.8399,6.8753,6.9389,7.0513,7.0844,7.0844,7.055,7.055,7.0,6.8898,6.8605,6.8201,6.7687,6.7687,6.7687,0.0,4.4058,4.3974,4.3664,4.3529,0.0,0.0,0.0,0.0,0.0,0.0,0.0,0.0,0.0,4.386,4.4814,0.0,0.0,0.0,0.0,0.0,0.0,0.0,0.0,0.0,5.0883,5.0921,5.0996,5.2394,5.3263,5.3369,5.4163,5.4547,5.4516,5.4118,5.3683,5.3314,5.3719,5.4354,5.5174,5.5706,5.6355,5.7149,5.7491,5.7676,0.0,5.795,5.8097,5.8097,5.8097,5.8097,5.8142,5.8665,5.8868,5.8982,6.0302,6.0856,6.1042,6.1798,6.2591,6.3308,6.3308,6.3839,6.4519,6.4519,6.4482,6.437,6.437,6.437,6.4407,6.4444,6.4765,6.5099,6.513,6.5542,6.5897,6.5897,6.5897,6.5897,6.5897,6.5897,6.5897,6.5897,6.6551,6.6859,6.6167,6.7475,6.8205,6.7398,6.8052,6.8859,6.9629,6.8587,6.8679,7.0794,6.9271,6.8357,6.8772,7.0198,7.1153,7.147,7.2092,7.2165,7.1431,7.1358,7.055,6.8972,6.8164,6.776,6.7687,6.7687,6.7687,4.4966,0.0,4.4428,4.4383,4.4125,4.3881,0.0,0.0,0.0,0.0,0.0,0.0,0.0,0.0,0.0,0.0,0.0,0.0,0.0,0.0,0.0,0.0,0.0,0.0,0.0,5.2144,5.2475,5.3122,5.3514,5.4142,5.5054,5.5308,5.5262,5.496,5.4848,5.4609,5.4225,5.489,5.5535,5.6139,5.7481,5.8234,5.8394,5.914,5.9294,5.8949,5.9027,5.9065,5.9065,5.9065,5.9065,5.914,5.9927,6.0227,6.0338,6.1276,6.2273,6.3175,6.3366,6.4237,6.5235,6.5235,6.5388,6.5542,6.5542,6.5041,6.437,6.437,6.437,6.4481,6.4833,6.5035,6.5192,6.5597,6.5808,6.5897,6.5897,6.5897,6.5897,6.5897,6.5897,6.5897,6.5897,6.6551,6.7244,6.7744,6.8706,6.9321,6.9129,6.9821,7.0167,6.9744,6.9931,7.0623,7.1783,7.0147,6.9812,7.1522,7.1787,7.2224,7.2889,7.2632,7.2422,7.2239,7.1615,7.0807,6.9816,6.9009,6.8311,6.7687,6.7687,6.7687,4.5381,4.5077,4.48,4.465,4.4428,4.4261,0.0,0.0,0.0,0.0,0.0,0.0,0.0,0.0,0.0,0.0,0.0,0.0,0.0,0.0,0.0,0.0,0.0,0.0,0.0,0.0,5.3675,5.4135,5.4518,5.501,5.5665,5.5703,5.5791,5.5974,5.5974,5.5679,5.5082,5.5686,5.654,5.7576,5.8654,5.9383,5.974,5.9998,5.9946,5.9728,5.9492,5.9389,5.9427,5.9804,6.0028,6.0103,6.1174,6.1581,6.169,6.2756,6.3618,6.4287,6.467,6.5279,6.5897,6.5897,6.5897,6.5897,6.5897,6.5513,6.5105,6.5105,6.5105,6.5137,6.5417,6.5446,6.5542,6.5808,6.5897,6.5897,6.5897,6.5897,6.5897,6.5897,6.5897,6.6013,6.6397,6.6821,6.7513,6.8821,6.9052,6.9398,7.0167,7.0321,7.0321,7.0244,7.0629,7.1245,7.2129,7.1625,7.1814,7.3146,7.3033,7.3116,7.3404,7.3066,7.2761,7.2496,7.1725,7.1101,7.066,6.9853,6.9045,6.8238,6.8238,6.8054,4.5624,4.5323,4.4985,4.4787,4.4726,4.4676,0.0,0.0,0.0,0.0,0.0,0.0,0.0,0.0,0.0,0.0,0.0,0.0,0.0,0.0,0.0,0.0,0.0,0.0,0.0,5.4241,5.4664,5.4664,5.5318,5.5703,5.5703,5.5818,5.6242,5.6973,5.7126,5.6893,5.6292,5.6654,5.7581,5.8994,5.947,6.0089,6.0781,6.0365,6.0189,6.0189,0.0,0.0,5.9857,6.061,6.0989,6.1212,6.2437,6.293,6.3074,6.4334,6.4782,6.4897,6.5628,6.5897,6.5897,6.5897,6.5897,6.5897,6.5897,6.5897,6.5897,6.5897,6.5897,6.5897,6.5897,6.5897,6.5897,6.5897,6.5897,6.5897,6.5897,6.5897,6.5897,6.5897,6.6013,6.6244,6.6821,6.7244,6.7898,6.9129,6.9013,6.9244,7.0552,7.0244,7.0129,7.0821,7.1014,7.1437,7.2322,7.3206,7.3829,7.4201,7.4135,7.3871,7.3404,7.3391,7.3119,7.2496,7.1835,7.1431,7.1321,7.0624,6.9853,6.9082,6.9082,6.8715,4.5796,4.5184,4.4725,4.5303,4.5243,4.5011,0.0,0.0,0.0,0.0,0.0,0.0,0.0,0.0,0.0,0.0,0.0,0.0,0.0,0.0,0.0,0.0,0.0,0.0,5.5241,5.5434,5.5511,5.5511,5.5626,5.5703,5.5703,5.6395,5.6857,5.6973,5.7703,5.835,5.8909,5.8995,5.9134,5.9403,6.0219,6.0666,6.0781,6.0734,6.0671,6.0671,0.0,6.0981,6.171,6.1825,6.2286,6.2976,6.3911,6.4283,6.4398,6.5333,6.5705,6.5705,6.5859,6.5897,6.5897,6.5897,6.5897,6.5897,6.5897,6.5897,6.5897,6.5897,6.5897,6.5897,6.5897,6.5897,6.5897,6.5897,6.5897,6.5897,6.5897,6.5897,6.5897,6.5897,6.6436,6.6744,6.6167,6.7859,6.8898,6.7667,6.9206,7.036,6.9937,7.036,7.0744,7.0898,7.1552,7.236,7.3245,7.4053,7.4832,7.5618,7.5187,7.444,7.3404,7.3391,7.3119,7.2496,7.2386,7.1982,7.1321,7.1211,7.0697,6.9926,6.9926,6.9853,4.5841,4.5549,4.5218,4.5158,4.4899,0.0,0.0,0.0,0.0,0.0,0.0,0.0,0.0,0.0,0.0,0.0,0.0,0.0,0.0,0.0,0.0,0.0,0.0,5.528,5.5665,5.5703,5.5703,5.5703,5.5703,5.5895,5.6357,5.678,5.7396,5.8319,5.8742,5.9358,6.0204,6.0204,6.0204,6.0204,6.0589,6.0781,6.0781,6.0781,6.105,6.1512,0.0,6.1973,6.2781,6.3243,6.3666,6.4089,6.4974,6.5282,6.5359,6.5743,6.5897,6.5897,6.5897,6.5897,6.5897,6.5897,6.5897,6.5897,6.5897,6.5897,6.5897,6.5897,6.5897,6.5897,6.5897,6.5897,6.5897,6.5897,6.5551,6.5205,6.5205,6.5551,6.5897,6.5897,6.6936,6.7821,6.7936,6.8552,6.9052,6.9129,6.8975,6.9206,7.0206,6.9898,7.009,7.1475,7.1937,7.2745,7.4053,7.4476,7.5091,7.5938,7.5446,7.4867,7.4304,7.4034,7.3747,7.3492,7.3172,7.2812,7.2442,7.2078,7.1541,7.077,7.077,7.0513,4.5974,4.5829,4.5543,0.0,0.0,0.0,0.0,0.0,0.0,0.0,0.0,0.0,0.0,0.0,0.0,0.0,0.0,0.0,0.0,0.0,0.0,0.0,0.0,5.5703,5.5703,5.5703,5.5703,5.5703,5.5895,5.628,5.6934,5.7357,5.8165,5.9473,5.9704,6.0127,6.0781,6.0781,6.0781,6.0781,6.0781,6.0781,6.0819,6.1012,6.1473,6.2089,6.2281,6.2858,6.3666,6.432,6.4705,6.4974,6.5628,6.5897,6.5897,6.5897,6.5897,6.5897,6.5897,6.5897,6.5897,6.5897,6.5897,6.5897,6.5897,6.5897,6.5859,6.5628,6.5743,6.5897,6.5897,6.559,6.5397,6.5782,6.5089,6.4359,6.4551,6.5282,6.582,6.5628,6.7282,6.8744,6.8783,6.8898,6.9167,6.9667,6.8744,6.8552,7.0129,6.9552,6.9821,7.1975,7.2206,7.286,7.4553,7.4899,7.5284,7.5976,7.5584,7.5271,7.5091,7.471,7.4422,7.4293,7.3841,7.3602,7.3602,7.2997,7.2411,7.1821,7.1635,7.1248,4.613,4.5544,0.0,0.0,0.0,0.0,0.0,0.0,0.0,0.0,0.0,0.0,0.0,0.0,0.0,0.0,0.0,0.0,0.0,0.0,0.0,0.0,0.0,5.5703,5.5703,5.5703,5.5703,5.5703,5.6434,5.6934,5.6973,5.8473,5.9396,5.9511,6.0281,6.0742,6.0781,6.0781,6.0781,6.0781,6.0781,6.0781,6.0819,6.1627,6.205,6.2127,6.2897,6.3705,6.4512,6.4589,6.5089,6.582,6.5859,6.5897,6.5897,6.5897,6.5897,6.5897,6.5897,6.5897,6.5897,6.5897,6.5897,6.5897,6.5897,6.5897,6.5743,6.4936,6.5282,6.5897,6.5897,6.4705,6.3897,6.5513,6.4628,6.3628,6.4436,6.5282,6.5667,6.4859,6.7359,6.8898,6.6551,6.8706,6.9706,6.6705,6.8744,7.0129,6.8783,6.9821,7.1091,7.2091,7.2206,7.286,7.4553,7.5438,7.5938,7.6015,7.5947,7.5686,7.5127,7.5054,7.4828,7.4293,7.4249,7.4249,7.4249,7.3602,7.3303,7.3215,7.2687,7.2386,4.6234,4.6392,0.0,0.0,0.0,0.0,0.0,0.0,0.0,0.0,0.0,0.0,0.0,0.0,0.0,0.0,0.0,0.0,0.0,0.0,0.0,0.0,0.0,5.578,5.5703,5.5703,5.5934,5.6472,5.6819,5.7434,5.8511,5.9165,5.9742,6.0281,6.0627,6.0781,6.0781,6.0781,6.0781,6.0781,6.0781,6.1089,6.1627,6.1935,6.2666,6.3666,6.3974,6.4589,6.5397,6.5397,6.559,6.5897,6.5897,6.5897,6.5897,6.5897,6.5897,6.5897,6.5897,6.5897,6.5897,6.5897,6.5897,6.5897,6.5897,6.5897,6.582,6.5513,6.4859,6.4282,6.4282,6.4589,6.482,6.4397,6.3782,6.3397,6.3743,6.4474,6.5166,6.5359,6.7282,6.859,6.7628,6.8513,6.8936,6.7667,6.8552,6.9129,6.8475,6.986,7.1014,7.136,7.2822,7.4245,7.5399,7.5822,7.6015,7.6015,7.6015,7.5917,7.5686,7.5686,7.5551,7.5344,7.498,7.4828,7.4828,7.4212,7.3747,7.3391,7.3172,7.2871,4.6289,4.6758,0.0,0.0,0.0,0.0,0.0,0.0,0.0,0.0,0.0,0.0,0.0,0.0,0.0,0.0,0.0,0.0,0.0,0.0,0.0,0.0,0.0,0.0,5.578,5.5972,5.6357,5.6934,5.7473,5.828,5.9435,5.9742,6.0165,6.0781,6.0781,6.0781,6.0781,6.105,6.1204,6.1204,6.1473,6.1781,6.2127,6.2627,6.3512,6.4628,6.4897,6.5359,6.5897,6.5897,6.5897,6.5897,6.5897,6.5897,6.5897,6.5897,6.5897,6.5897,6.5897,6.5897,6.5897,6.5897,6.5897,6.5897,6.5897,6.5897,6.5782,6.5243,6.4628,6.3858,6.2781,6.3397,6.4205,6.382,6.332,6.2974,6.3243,6.4205,6.5128,6.5436,6.7282,6.8552,6.7744,6.8282,6.8552,6.7744,6.8052,6.8513,6.8783,7.0014,7.1129,7.1668,7.3745,7.5245,7.5553,7.5822,7.6015,7.6015,7.6015,7.6015,7.6015,7.6015,7.6015,7.6015,7.5584,7.5413,7.5413,7.4828,7.4341,7.3943,7.3794,7.3442,4.6289,0.0,0.0,0.0,0.0,0.0,0.0,0.0,0.0,0.0,0.0,0.0,0.0,0.0,0.0,0.0,0.0,0.0,0.0,0.0,0.0,0.0,0.0,0.0,0.0,0.0,5.7011,5.7011,5.855,5.9511,5.9511,6.0319,6.0781,6.0781,6.0781,6.0781,6.0819,6.1666,6.2089,6.2127,6.2935,6.2897,6.2166,6.382,6.4589,6.4666,6.5513,6.5897,6.5897,6.5897,6.5897,6.5897,6.5897,6.5897,6.5897,6.5897,6.5897,6.5897,6.5897,6.5897,6.5897,6.5897,6.5897,6.5897,6.5897,6.5897,6.5513,6.382,6.4551,6.5089,6.1704,6.0819,6.1435,6.3974,6.332,6.232,6.3128,6.4666,6.5628,6.4782,6.7359,6.8859,6.632,6.7975,6.8821,6.6282,6.7321,6.8744,6.9629,7.0398,7.1591,7.3322,7.5014,7.563,7.4784,7.5515,7.6015,7.6015,7.6015,7.6015,7.6015,7.6015,7.6015,7.6015,7.6015,7.6015,7.6015,7.5413,7.5091,7.5091,7.4547,7.4293,4.5391,0.0,0.0,0.0,0.0,0.0,0.0,0.0,0.0,0.0,0.0,0.0,0.0,0.0,0.0,0.0,0.0,0.0,0.0,0.0,0.0,0.0,0.0,0.0,0.0,0.0,0.0,0.0,0.0,5.9781,6.0396,6.0666,6.0781,6.0781,6.0781,6.1089,6.1704,6.1973,6.2358,6.2935,6.382,6.4089,6.3897,6.4359,6.4936,6.5513,6.5782,6.5897,6.5897,6.5897,6.5897,6.5897,6.5897,6.5897,6.5897,6.5897,6.5897,6.5897,6.5897,6.5897,6.5897,6.5897,6.5897,6.5897,6.5897,6.5474,6.5013,6.5089,6.4205,6.3397,6.4166,6.3051,6.1897,6.2666,6.3358,6.3935,6.4166,6.4628,6.5089,6.5436,6.632,6.6782,6.6013,6.6513,6.6782,6.6013,6.7321,6.9129,7.1206,7.1129,7.1783,7.4091,7.4784,7.5245,7.5592,7.5861,7.6015,7.6015,7.6015,7.6015,7.6015,7.6015,7.6015,7.6015,7.6015,7.6015,7.6015,7.5818,7.548,7.5091,7.4943,7.467,0.0,0.0,0.0,0.0,0.0,0.0,0.0,0.0,0.0,0.0,0.0,0.0,0.0,0.0,0.0,0.0,0.0,0.0,0.0,0.0,0.0,0.0,0.0,0.0,0.0,0.0,0.0,0.0,0.0,0.0,0.0,6.0819,6.0781,6.0781,6.1127,6.155,6.2089,6.2743,6.332,6.382,6.4705,6.5128,6.5128,6.5128,6.5397,6.5897,6.5897,6.5897,6.5897,6.5897,6.5897,6.5897,6.5897,6.5897,6.5897,6.5897,6.5897,6.5897,6.5897,6.5897,6.5897,6.5897,6.5897,6.582,6.5474,6.5243,6.5013,6.4512,6.4012,6.3705,6.4243,6.4012,6.3512,6.3166,6.3858,6.4589,6.4589,6.4859,6.5282,6.5782,6.6167,6.6282,6.5974,6.6167,6.6282,6.5936,6.7628,6.9706,7.1898,7.2322,7.3129,7.5014,7.5207,7.5438,7.5976,7.6015,7.6015,7.6015,7.6015,7.6015,7.6015,7.6015,7.6015,7.6015,7.6015,7.6015,7.6015,7.6015,7.5818,7.5446,7.5446,7.5271,0.0,0.0,0.0,0.0,0.0,0.0,0.0,0.0,0.0,0.0,0.0,0.0,0.0,0.0,0.0,0.0,0.0,0.0,0.0,0.0,0.0,0.0,0.0,0.0,0.0,0.0,0.0,0.0,0.0,0.0,6.1035,6.0896,6.0858,6.0935,6.1666,6.2166,6.232,6.382,6.4628,6.4743,6.5513,6.5897,6.5897,6.5897,6.5897,6.5897,6.5897,6.5897,6.5897,6.5897,6.5897,6.5897,6.5897,6.5897,6.5897,6.5897,6.5897,6.5897,6.5897,6.5897,6.5897,6.5897,6.5897,6.5743,6.4974,6.5166,6.5205,6.3051,6.3935,6.5051,6.2974,6.4089,6.559,6.4897,6.4705,6.4705,6.4705,6.532,6.5897,6.5897,6.6474,6.6744,6.6013,6.6551,6.6898,6.632,6.8282,7.0398,7.1975,7.3668,7.5014,7.5784,7.5938,7.6015,7.6015,7.6015,7.6015,7.6015,7.6015,7.6015,7.6015,7.6015,7.6015,7.6015,7.6015,7.6015,7.6015,7.6015,7.6015,7.6015,7.6015,7.6015,0.0,0.0,0.0,0.0,0.0,0.0,0.0,0.0,0.0,0.0,0.0,0.0,0.0,0.0,0.0,0.0,0.0,0.0,0.0,0.0,0.0,0.0,0.0,0.0,0.0,0.0,0.0,0.0,0.0,0.0,6.1212,6.105,6.1281,6.1973,6.205,6.2743,6.4051,6.4436,6.4936,6.5628,6.582,6.5897,6.5897,6.5897,6.5897,6.5897,6.5897,6.5897,6.5897,6.5897,6.5897,6.5897,6.5897,6.5897,6.5897,6.5897,6.5897,6.5897,6.5897,6.5897,6.5897,6.5897,6.5897,6.5859,6.5667,6.4782,6.4051,6.4859,6.4051,6.3243,6.4705,6.4974,6.5013,6.5513,6.5628,6.5628,6.5628,6.5782,6.5897,6.5897,6.6051,6.609,6.5936,6.6551,6.7513,6.8706,6.9898,7.1014,7.2052,7.3668,7.4784,7.4976,7.5592,7.6015,7.6015,7.6015,7.6015,7.6015,7.6015,7.6015,7.6015,7.6015,7.6015,7.6015,7.6015,7.6015,7.6015,7.6015,7.6015,7.6015,7.6015,7.6015,0.0,0.0,0.0,0.0,0.0,0.0,0.0,0.0,0.0,0.0,0.0,0.0,0.0,0.0,0.0,0.0,0.0,0.0,0.0,0.0,0.0,0.0,0.0,0.0,0.0,0.0,0.0,0.0,0.0,6.0481,6.1355,6.1656,6.2124,6.2882,6.3229,6.3782,6.4589,6.5013,6.5436,6.5897,6.5974,6.5974,6.5974,6.5936,6.5897,6.5897,6.5897,6.5897,6.5897,6.5897,6.5897,6.5897,6.5897,6.5897,6.5897,6.5897,6.5897,6.5897,6.5897,6.5897,6.5897,6.5897,6.5897,6.5743,6.4897,6.4859,6.4974,6.4282,6.4282,6.4589,6.5128,6.5243,6.532,6.5782,6.5897,6.5897,6.5897,6.5897,6.5897,6.5897,6.5897,6.6013,6.6397,6.7167,6.8282,7.0014,7.0629,7.136,7.2668,7.3937,7.4707,7.4707,7.5476,7.6015,7.6015,7.6015,7.6015,7.6015,7.6015,7.6015,7.6015,7.6015,7.6015,7.6015,7.6015,7.6015,7.6015,7.6015,7.6015,7.6015,7.6015,7.6015,0.0,0.0,0.0,0.0,0.0,0.0,0.0,0.0,0.0,0.0,0.0,0.0,0.0,0.0,0.0,0.0,0.0,0.0,0.0,0.0,0.0,0.0,0.0,0.0,0.0,0.0,0.0,0.0,0.0,6.039,6.125,6.2005,6.2731,6.3419,6.4232,6.4551,6.4474,6.5436,6.5859,6.5782,6.602,6.6136,6.6128,6.6051,6.5936,6.5897,6.5897,6.5897,6.5897,6.5897,6.5897,6.5897,6.5897,6.5897,6.5897,6.5897,6.5897,6.5897,6.5897,6.5897,6.5859,6.5705,6.5782,6.5628,6.4205,6.5128,6.6128,6.3666,6.4743,6.6359,6.5166,6.5359,6.5897,6.5897,6.5897,6.5897,6.5897,6.5897,6.5897,6.5897,6.6013,6.6359,6.7167,6.8052,6.9206,7.086,7.1129,7.1706,7.3322,7.4091,7.4553,7.4707,7.5361,7.5822,7.5976,7.6015,7.6015,7.6015,7.6015,7.6015,7.6015,7.6015,7.6015,7.6015,7.6015,7.6015,7.6015,7.6015,7.6015,7.6015,7.6015,7.6015,0.0,0.0,0.0,0.0,0.0,0.0,0.0,0.0,0.0,0.0,0.0,0.0,0.0,0.0,0.0,0.0,0.0,0.0,0.0,0.0,0.0,0.0,0.0,0.0,0.0,0.0,0.0,0.0,5.8789,5.9687,6.0508,6.1249,6.2024,6.2872,6.3585,6.3935,6.3924,6.5359,6.5782,6.5243,6.5971,6.6358,6.6384,6.6346,6.6167,6.5897,6.5897,6.5897,6.5897,6.5897,6.5897,6.5897,6.5897,6.5897,6.5897,6.5897,6.5897,6.5897,6.5897,6.5897,6.5782,6.5013,6.5282,6.5859,6.5628,6.5243,6.5128,6.6128,6.5705,6.5051,6.559,6.582,6.5897,6.5897,6.5897,6.5897,6.5897,6.5897,6.5897,6.5897,6.6436,6.7205,6.809,6.8936,7.009,7.1783,7.2014,7.236,7.336,7.3591,7.3937,7.463,7.4822,7.5168,7.5938,7.6015,7.6015,7.6015,7.6015,7.6015,7.6015,7.6015,7.6015,7.6015,7.6015,7.6015,7.6015,7.6015,7.6015,7.6015,7.6015,7.6015,0.0,0.0,0.0,0.0,0.0,0.0,0.0,0.0,0.0,0.0,0.0,0.0,0.0,0.0,0.0,0.0,0.0,0.0,0.0,0.0,0.0,0.0,0.0,0.0,0.0,0.0,0.0,0.0,5.8711,5.9765,6.1055,6.1914,6.2695,6.3515,6.3803,6.392,6.3785,6.4462,6.4946,6.5243,6.6001,6.645,6.65,6.6417,6.626,6.6013,6.6013,6.5974,6.5897,6.5897,6.5897,6.5897,6.5897,6.5897,6.5897,6.5897,6.5897,6.5897,6.5897,6.559,6.5128,6.4705,6.4859,6.5089,6.4589,6.5513,6.659,6.5897,6.6205,6.659,6.6051,6.5897,6.5897,6.5897,6.5897,6.5897,6.5897,6.5897,6.5897,6.5897,6.6936,6.7936,6.8321,6.9513,7.0783,7.2014,7.2629,7.2899,7.2783,7.4014,7.4668,7.4091,7.4861,7.5592,7.5976,7.6015,7.6015,7.6015,7.6015,7.6015,7.6015,7.6015,7.6015,7.6015,7.6015,7.6015,7.6015,7.6015,7.6015,7.6015,7.6015,7.6015,0.0,0.0,0.0,0.0,0.0,0.0,0.0,0.0,0.0,0.0,0.0,0.0,0.0,0.0,0.0,0.0,0.0,0.0,0.0,0.0,0.0,0.0,0.0,0.0,0.0,0.0,0.0,0.0,5.8711,5.9844,6.1289,6.2187,6.293,6.3476,6.3689,6.3643,6.3253,6.3487,6.4294,6.5628,6.58,6.6153,6.667,6.6111,6.5995,6.6212,6.6126,6.6051,6.5936,6.5897,6.5897,6.5897,6.5897,6.5897,6.5897,6.5897,6.5897,6.5859,6.5628,6.5436,6.5128,6.4474,6.4705,6.5089,6.4205,6.5743,6.7398,6.5705,6.6474,6.7475,6.6205,6.5897,6.5897,6.5897,6.5897,6.5897,6.5897,6.5897,6.5974,6.6167,6.7398,6.8475,6.8706,6.9937,7.1283,7.236,7.2899,7.3014,7.2591,7.4207,7.4899,7.363,7.4822,7.5745,7.5976,7.6015,7.6015,7.6015,7.6015,7.6015,7.6015,7.6015,7.6015,7.6015,7.6015,7.6015,7.6015,7.6015,7.6015,7.6015,7.6015,7.6015,0.0,0.0,0.0,0.0,0.0,0.0,0.0,0.0,0.0,0.0,0.0,0.0,0.0,0.0,0.0,0.0,0.0,0.0,0.0,0.0,0.0,0.0,0.0,0.0,0.0,0.0,0.0,0.0,5.8711,5.957,6.043,6.1289,6.1797,6.1836,6.2617,6.2656,6.1835,6.2616,6.4207,6.65,6.5074,6.5272,6.6832,6.5173,6.5207,6.6581,6.6234,6.609,6.609,6.5936,6.5897,6.5897,6.5897,6.5897,6.5897,6.5897,6.5897,6.5782,6.4936,6.5667,6.6551,6.4166,6.5013,6.6821,6.6013,6.5897,6.6167,6.6782,6.6513,6.6013,6.5897,6.5897,6.5897,6.5897,6.5897,6.5897,6.5897,6.5897,6.6128,6.6898,6.7782,6.8667,6.9475,7.036,7.1475,7.3168,7.2783,7.2552,7.3322,7.3553,7.3591,7.3514,7.4284,7.5091,7.5938,7.6015,7.6015,7.6015,7.6015,7.6015,7.6015,7.6015,7.6015,7.6015,7.6015,7.6015,7.6015,7.6015,7.6015,7.6015,7.6015,7.6015,0.0,0.0,0.0,0.0,0.0,0.0,0.0,0.0,0.0,0.0,0.0,0.0,0.0,0.0,0.0,0.0,0.0,0.0,0.0,0.0,0.0,0.0,0.0,0.0,0.0,0.0,0.0,0.0,0.0,6.0351,6.1172,6.1523,6.1719,6.1719,6.1992,6.2031,6.1719,6.2578,6.3422,6.4285,6.4284,6.4648,6.5234,6.518,6.5121,6.516,6.6034,6.6353,6.6307,6.6269,6.623,6.6167,6.5628,6.5397,6.5295,6.4757,6.4539,6.4564,6.468,6.4757,6.4782,6.4282,6.4743,6.5436,6.5166,6.582,6.6628,6.6397,6.6474,6.6551,6.6013,6.5897,6.5897,6.5897,6.5897,6.6051,6.6551,6.6667,6.6744,6.7051,6.8244,6.9321,6.9667,7.0821,7.1937,7.2552,7.3322,7.3745,7.3553,7.4437,7.4899,7.4322,7.5014,7.5668,7.5976,7.6015,7.6015,7.6015,7.6015,7.6015,7.6015,7.6015,7.6015,7.6015,7.6015,7.6015,7.6015,7.6015,7.6015,7.6015,7.6015,7.6015,0.0,0.0,0.0,0.0,0.0,0.0,0.0,0.0,0.0,0.0,0.0,0.0,0.0,0.0,0.0,0.0,0.0,0.0,0.0,0.0,0.0,0.0,0.0,0.0,0.0,0.0,0.0,0.0,0.0,0.0,6.164,6.1719,6.1719,6.1719,6.1719,6.1836,6.2148,6.2422,6.2851,6.3437,6.3437,6.3711,6.4297,6.4297,6.4297,6.4336,6.5078,6.564,6.6062,6.6283,6.6415,6.6337,6.5737,6.535,6.502,6.444,6.4247,6.4286,6.4402,6.4679,6.4897,6.4806,6.5128,6.5551,6.5282,6.5974,6.6744,6.6128,6.6359,6.6628,6.6051,6.5897,6.5897,6.5936,6.6423,6.6923,6.7128,6.7128,6.7282,6.7859,6.9129,7.0206,7.0475,7.1706,7.2745,7.3014,7.3976,7.4514,7.3976,7.4861,7.5361,7.4784,7.5207,7.5668,7.5976,7.6015,7.6015,7.6015,7.6015,7.6015,7.6015,7.6015,7.6015,7.6015,7.6015,7.6015,7.6015,7.6015,7.6015,7.6015,7.6015,7.6015,0.0,0.0,0.0,0.0,0.0,0.0,0.0,0.0,0.0,0.0,0.0,0.0,0.0,0.0,0.0,0.0,0.0,0.0,0.0,0.0,0.0,0.0,0.0,0.0,0.0,0.0,0.0,0.0,5.9961,6.082,6.164,6.1719,6.1719,6.1719,6.1719,6.2109,6.2969,6.2109,6.2539,6.4219,6.25,6.2578,6.418,6.25,6.2656,6.418,6.3398,6.3867,6.5273,6.6048,6.6322,6.6322,6.6322,6.5816,6.5064,6.5064,6.5064,6.4947,6.413,6.5485,6.7268,6.5664,6.6255,6.7398,6.6615,6.6409,6.6371,6.6178,6.6115,6.609,6.5936,6.5897,6.5936,6.6128,6.7474,6.8462,6.768,6.7385,6.7705,6.9398,7.0398,7.1206,7.2091,7.2976,7.3822,7.4591,7.4707,7.4745,7.4745,7.4745,7.4745,7.4745,7.4745,7.5091,7.5938,7.6015,7.6015,7.6015,7.6015,7.6015,7.6015,7.6015,7.6015,7.6015,7.6015,7.6015,7.6015,7.6015,7.6015,7.6015,7.6015,7.6053,3.9238,0.0,0.0,0.0,0.0,0.0,0.0,0.0,0.0,0.0,0.0,0.0,0.0,0.0,0.0,0.0,0.0,0.0,0.0,0.0,0.0,0.0,0.0,0.0,0.0,0.0,0.0,0.0,6.0859,6.1445,6.168,6.1719,6.1719,6.1719,6.1719,6.1836,6.207,6.1836,6.1953,6.2422,6.1914,6.1953,6.2422,6.2578,6.2578,6.2461,6.3515,6.3828,6.3711,6.4521,6.4864,6.4825,6.42,6.42,6.4434,6.3806,6.3966,6.4552,6.4786,6.5351,6.5956,6.6023,6.6345,6.6678,6.6461,6.6384,6.6384,6.6345,6.632,6.6307,6.6269,6.6269,6.6577,6.7834,6.8063,6.8419,7.0027,7.0324,7.0336,7.0514,7.1245,7.2129,7.2976,7.3822,7.4437,7.4668,7.5245,7.563,7.563,7.563,7.563,7.563,7.563,7.5745,7.5976,7.6015,7.6015,7.6015,7.6015,7.6015,7.6015,7.6015,7.6015,7.6015,7.6015,7.6015,7.6015,7.6015,7.6015,7.6015,7.663,7.6938,0.0,0.0,0.0,0.0,0.0,0.0,0.0,0.0,0.0,0.0,0.0,0.0,0.0,0.0,0.0,0.0,0.0,0.0,0.0,0.0,0.0,0.0,0.0,0.0,0.0,5.8672,5.9531,6.0351,6.1211,6.1719,6.1719,6.1719,6.1719,6.1719,6.1719,6.1719,6.1719,6.1719,6.1719,6.1719,6.1719,6.1719,6.1719,6.2226,6.2187,6.1758,6.2773,6.293,6.25,6.3008,6.3633,6.4297,6.414,6.4414,6.4765,6.4258,6.4648,6.539,6.543,6.5664,6.6053,6.6472,6.6596,6.6596,6.6596,6.6596,6.6596,6.6518,6.6425,6.6399,6.6399,6.667,6.7209,6.8217,6.8949,6.98,7.1265,7.2153,7.2469,7.1811,7.236,7.3206,7.3976,7.4514,7.4938,7.5207,7.5668,7.6015,7.6015,7.5668,7.5592,7.5976,7.5668,7.5592,7.5976,7.6015,7.6015,7.6015,7.6015,7.6015,7.6015,7.6015,7.6015,7.6015,7.6015,7.6169,7.6553,7.6169,7.6207,7.6553,7.7053,7.7476,0.0,0.0,0.0,0.0,0.0,0.0,0.0,0.0,0.0,0.0,0.0,0.0,0.0,0.0,0.0,0.0,0.0,0.0,0.0,0.0,0.0,0.0,0.0,0.0,5.7969,5.8828,5.9687,6.0469,6.125,6.1719,6.1719,6.1719,6.1719,6.1719,6.1719,6.1719,6.1719,6.1719,6.1719,6.1719,6.1719,6.1719,6.1719,6.1719,6.1719,6.1719,6.1719,6.1758,6.1836,6.1836,6.2773,6.4219,6.5,6.543,6.5586,6.5586,6.6133,6.6797,6.6015,6.625,6.6914,6.6914,6.6914,6.6914,6.6914,6.6914,6.6875,6.668,6.6556,6.6446,6.6446,6.7108,6.7814,6.814,6.9988,7.1745,7.1978,7.3139,7.4007,7.3305,7.36,7.4268,7.5039,7.511,7.5255,7.5976,7.6053,7.6015,7.6015,7.5361,7.5168,7.5938,7.5322,7.5207,7.5976,7.6015,7.6015,7.6015,7.6015,7.6015,7.6015,7.6015,7.6015,7.6015,7.6092,7.6515,7.7284,7.6515,7.6592,7.7438,7.7515,7.7938,0.0,0.0,0.0,0.0,0.0,0.0,0.0,0.0,0.0,0.0,0.0,0.0,0.0,0.0,0.0,0.0,0.0,0.0,0.0,0.0,0.0,0.0,0.0,0.0,5.8867,5.9687,6.0508,6.1367,6.1601,6.1719,6.1719,6.1719,6.1719,6.1719,6.1719,6.1719,6.1719,6.1719,6.1719,6.1719,6.1719,6.1719,6.1719,6.1719,6.1719,6.1719,6.1719,6.2109,6.2734,6.2734,6.2969,6.3281,6.3437,6.4375,6.5586,6.5586,6.6133,6.6875,6.6719,6.6758,6.6914,6.6914,6.6914,6.6914,6.6914,6.6914,6.6875,6.6836,6.6833,6.6787,6.6787,6.7451,6.8463,6.9811,7.0548,7.1495,7.3582,7.3768,7.3868,7.5035,7.4584,7.4489,7.6026,7.5693,7.5553,7.6361,7.6322,7.6245,7.6245,7.6092,7.6053,7.6207,7.6092,7.6053,7.6207,7.6092,7.6015,7.6015,7.6015,7.6015,7.6015,7.6015,7.6015,7.6015,7.6669,7.713,7.7284,7.713,7.7476,7.8284,7.8977,7.94,0.0,0.0,0.0,4.0189,0.0,0.0,0.0,0.0,0.0,0.0,0.0,0.0,0.0,0.0,0.0,0.0,0.0,0.0,0.0,0.0,0.0,0.0,0.0,0.0,5.9101,5.9922,6.0742,6.164,6.1719,6.1719,6.1719,6.1719,6.1719,6.1719,6.1719,6.1719,6.1719,6.1719,6.1719,6.1719,6.1719,6.1719,6.1719,6.1719,6.1719,6.1719,6.2148,6.2617,6.3047,6.3476,6.3906,6.4297,6.4297,6.5117,6.625,6.625,6.6797,6.75,6.7031,6.6914,6.6914,6.6914,6.6914,6.6914,6.6914,6.6914,6.6914,6.6914,6.6914,6.6992,6.7422,6.8203,6.914,7.039,7.1367,7.2461,7.4219,7.4258,7.445,7.6197,7.5326,7.4811,7.645,7.6037,7.5727,7.6493,7.6527,7.6451,7.6457,7.6438,7.6426,7.6466,7.645,7.6413,7.6313,7.6207,7.6092,7.6015,7.6399,7.6438,7.6015,7.6399,7.663,7.663,7.7476,7.8092,7.8554,7.8554,7.8746,7.9169,7.9592,8.0054,0.0,0.0,0.0,0.0,0.0,4.0854,0.0,0.0,0.0,0.0,0.0,0.0,0.0,0.0,0.0,0.0,0.0,0.0,0.0,0.0,0.0,0.0,0.0,0.0,0.0,5.9805,6.0586,6.1601,6.1406,6.1367,6.168,6.1719,6.1719,6.1719,6.1719,6.1719,6.1719,6.1719,6.1719,6.1719,6.1719,6.1719,6.1719,6.1719,6.1797,6.1992,6.2695,6.3203,6.3555,6.4258,6.5078,6.582,6.5664,6.6133,6.6914,6.6914,6.7344,6.7851,6.7148,6.6914,6.6914,6.6914,6.6914,6.6914,6.6914,6.6914,6.6914,6.6914,6.7031,6.7305,6.8008,6.8945,6.9922,7.0742,7.2031,7.332,7.4375,7.4453,7.4883,7.6601,7.582,7.5312,7.6719,7.6211,7.5889,7.6604,7.6688,7.666,7.6637,7.6673,7.6649,7.6651,7.665,7.6606,7.6421,7.6338,7.6207,7.6053,7.6669,7.6823,7.6284,7.7053,7.7515,7.7515,7.8323,7.9092,7.9823,7.9977,8.0054,8.0054,8.0054,8.0439,0.0,0.0,0.0,0.0,4.0492,0.0,0.0,0.0,0.0,0.0,0.0,0.0,0.0,0.0,0.0,0.0,0.0,0.0,0.0,0.0,0.0,0.0,0.0,0.0,0.0,5.9297,6.0,6.1562,6.0312,6.0117,6.1601,6.1719,6.1719,6.1719,6.1719,6.1719,6.1719,6.1719,6.1719,6.1719,6.1719,6.1719,6.1719,6.1719,6.2109,6.2851,6.2969,6.3867,6.5312,6.539,6.5976,6.668,6.5898,6.6133,6.6914,6.6914,6.6953,6.7031,6.6914,6.6914,6.6914,6.6914,6.6914,6.6914,6.6914,6.6914,6.6914,6.6914,6.7461,6.8086,6.8164,6.9375,7.0781,7.164,7.1992,7.2617,7.4258,7.3984,7.3945,7.5703,7.5898,7.6055,7.6992,7.6445,7.6132,7.6989,7.6987,7.6868,7.686,7.6884,7.6881,7.6889,7.687,7.6868,7.6821,7.6517,7.6284,7.6245,7.6169,7.6438,7.713,7.7938,7.8361,7.8361,7.9208,7.9708,7.9823,8.0592,8.0939,8.0939,8.0939,8.1016,0.0,0.0,0.0,0.0,0.0,0.0,4.0668,0.0,4.0508,0.0,0.0,0.0,0.0,0.0,0.0,0.0,0.0,0.0,0.0,0.0,0.0,0.0,0.0,0.0,0.0,0.0,0.0,0.0,6.0156,5.9922,6.1601,6.1719,6.1719,6.1719,6.1719,6.1719,6.1719,6.1719,6.1719,6.1719,6.1719,6.1719,6.1719,6.2226,6.2656,6.3047,6.4062,6.4922,6.5625,6.6133,6.6562,6.6875,6.6484,6.6562,6.6914,6.6914,6.6914,6.6914,6.6914,6.6914,6.6914,6.6914,6.6914,6.6914,6.6914,6.6914,6.6992,6.75,6.793,6.8437,6.9414,7.0156,7.0937,7.1797,7.2383,7.3086,7.4336,7.4297,7.457,7.6328,7.5859,7.5586,7.6953,7.6914,7.6601,7.6484,7.6797,7.707,7.707,7.7075,7.7065,7.7065,7.7078,7.7031,7.6914,7.6747,7.6621,7.6476,7.6746,7.7476,7.8707,7.9054,7.9246,7.9246,8.0092,8.0554,8.0554,8.0939,8.1093,8.1093,8.1093,8.1093,4.0025,0.0,0.0,0.0,0.0,0.0,0.0,0.0,0.0,0.0,0.0,0.0,0.0,0.0,0.0,0.0,0.0,0.0,0.0,0.0,0.0,0.0,0.0,0.0,0.0,0.0,0.0,0.0,0.0,5.9414,6.1562,6.1719,6.1719,6.1719,6.1719,6.1719,6.1719,6.1719,6.1719,6.1719,6.1719,6.1836,6.207,6.2695,6.3242,6.3789,6.5039,6.5742,6.6015,6.664,6.6914,6.6914,6.6914,6.6914,6.6914,6.6914,6.6914,6.6914,6.6914,6.6914,6.6914,6.6914,6.6914,6.6953,6.7187,6.7265,6.7461,6.8594,6.8906,6.9219,7.0664,7.1211,7.1562,7.2226,7.2851,7.3555,7.4414,7.4609,7.4961,7.625,7.5859,7.5547,7.6367,7.668,7.664,7.6015,7.664,7.7109,7.6875,7.7031,7.7187,7.7187,7.7422,7.7383,7.6992,7.7352,7.7534,7.7305,7.8006,7.8823,7.9823,8.0092,8.0208,8.0169,8.0785,8.1093,8.1093,8.1093,8.1093,8.1093,8.1093,8.1093,0.0,0.0,0.0,3.9938,0.0,0.0,0.0,0.0,4.0508,0.0,0.0,0.0,0.0,0.0,0.0,0.0,0.0,0.0,0.0,0.0,0.0,0.0,0.0,0.0,0.0,0.0,0.0,0.0,0.0,0.0,6.1523,6.1719,6.1719,6.1719,6.1719,6.1719,6.1719,6.1719,6.1719,6.1719,6.1719,6.2148,6.2969,6.3008,6.3906,6.5508,6.5586,6.6094,6.6875,6.6875,6.6914,6.6914,6.6914,6.6914,6.6914,6.6914,6.6914,6.6914,6.6914,6.6914,6.6914,6.6914,6.6914,6.707,6.789,6.8164,6.8515,7.0156,7.0625,7.082,7.1719,7.2578,7.3203,7.3242,7.3281,7.3555,7.4414,7.4609,7.4609,7.4687,7.6015,7.6601,7.4961,7.539,7.5937,7.5898,7.664,7.6914,7.6055,7.668,7.7187,7.7187,7.7969,7.8125,7.7265,7.8515,7.9265,7.9141,7.9879,8.0269,8.0123,8.09,8.1246,8.1054,8.1093,8.1093,8.1093,8.1093,8.1093,8.1093,8.1093,8.1093,0.0,0.0,4.4653,4.2313,0.0,0.0,0.0,0.0,0.0,0.0,0.0,0.0,0.0,0.0,0.0,0.0,0.0,0.0,0.0,0.0,0.0,0.0,0.0,0.0,0.0,0.0,0.0,0.0,0.0,0.0,0.0,6.1719,6.1719,6.1719,6.1719,6.1719,6.1719,6.1719,6.1719,6.1719,6.2265,6.2695,6.3047,6.418,6.5039,6.5625,6.6211,6.664,6.6914,6.6914,6.6914,6.6914,6.6914,6.6914,6.6914,6.6914,6.6914,6.6914,6.6914,6.6914,6.6914,6.6914,6.7305,6.7812,6.8125,6.8984,6.9961,7.0547,7.1133,7.1758,7.2617,7.2656,7.2578,7.3164,7.3281,7.3555,7.4414,7.4609,7.4922,7.6094,7.5859,7.5664,7.6211,7.6094,7.5898,7.5898,7.664,7.7109,7.6797,7.7031,7.7187,7.7187,7.7461,7.7734,7.8047,7.9023,7.9762,8.0168,8.0454,8.0779,8.1154,8.1308,8.1362,8.1285,8.117,8.1093,8.1093,8.1093,8.1093,8.1093,8.1093,8.1093,4.592,4.6764,0.0,4.4502,4.474,0.0,4.1606,0.0,0.0,0.0,0.0,0.0,0.0,0.0,0.0,0.0,0.0,0.0,0.0,0.0,0.0,0.0,0.0,0.0,0.0,0.0,0.0,0.0,0.0,0.0,0.0,0.0,6.1719,6.1719,6.1719,6.1719,6.1719,6.1719,6.1875,6.2187,6.2734,6.332,6.3945,6.5078,6.5781,6.6094,6.664,6.6914,6.6914,6.6914,6.6914,6.6914,6.6914,6.6914,6.6914,6.6914,6.6914,6.6914,6.6914,6.6914,6.6953,6.7265,6.7734,6.832,6.8906,6.9844,7.082,7.1445,7.1797,7.2187,7.3086,7.289,7.2617,7.3164,7.3555,7.3906,7.4492,7.4844,7.5312,7.6133,7.5859,7.5781,7.6601,7.6523,7.625,7.5937,7.664,7.7109,7.6797,7.7265,7.7656,7.7656,7.8203,7.8906,7.9765,8.0039,8.0469,8.1211,8.1289,8.1433,8.1792,8.1687,8.1407,8.097,8.1093,8.1016,8.0631,8.0939,8.1093,8.1093,8.1093,8.1093]},{"header":{"parameterUnit":"m.s-1","parameterCategory":1,"la1":30.6,"la2":29.2853,"lo1":-89.7004,"lo2":-87.6739,"dx":0.0162,"dy":0.0183,"nx":112,"ny":82,"refTime":"2023-01-12T06:00:00:Z","depth":0,"parameterNumber":3,"parameterNumberName":"V-component_of_WINDS"},"data":[0.0,0.0,0.0,0.0,0.0,0.0,0.0,0.0,0.0,0.0,0.0,0.0,0.0,0.0,0.0,0.0,0.0,0.0,0.0,0.0,0.0,0.0,0.0,0.0,0.0,0.0,0.0,0.0,0.0,0.0,0.0,0.0,0.0,0.0,0.0,0.0,0.0,0.0,0.0,0.0,0.0,0.0,0.0,0.0,0.0,0.0,0.0,0.0,0.0,0.0,0.0,0.0,0.0,0.0,0.0,0.0,0.0,0.0,0.0,0.0,0.0,0.0,0.0,0.0,0.0,0.0,0.0,0.0,0.0,0.0,0.0,0.0,0.0,0.0,0.0,0.0,0.0,0.0,0.0,0.0,0.0,0.0,0.0,0.0,0.0,0.0,0.0,0.0,0.0,0.0,-0.9698,-0.9614,-1.036,-1.0971,-1.0971,-1.224,-1.3109,-1.3425,0.0,0.0,0.0,0.0,0.0,0.0,0.0,0.0,0.0,0.0,0.0,0.0,0.0,0.0,0.0,0.0,0.0,0.0,0.0,0.0,0.0,0.0,0.0,0.0,0.0,0.0,0.0,0.0,0.0,0.0,0.0,0.0,0.0,0.0,0.0,0.0,0.0,0.0,0.0,0.0,0.0,0.0,0.0,0.0,0.0,0.0,0.0,0.0,0.0,0.0,0.0,0.0,0.0,0.0,0.0,0.0,0.0,0.0,0.0,0.0,0.0,0.0,0.0,0.0,0.0,0.0,0.0,0.0,0.0,0.0,0.0,0.0,0.0,0.0,0.0,0.0,0.0,0.0,0.0,0.0,0.0,0.0,0.0,0.0,0.0,0.0,0.0,0.0,0.0,0.0,0.0,0.0,0.0,0.0,0.0,0.0,0.0,0.0,0.0,0.0,0.0,0.0,0.0,0.0,-0.9418,-0.8864,-1.017,-1.1059,-1.1059,-1.2459,-1.3362,-1.3596,0.0,0.0,0.0,0.0,0.0,0.0,0.0,0.0,0.0,0.0,0.0,0.0,0.0,0.0,0.0,0.0,0.0,0.0,0.0,0.0,0.0,0.0,0.0,0.0,0.0,0.0,0.0,0.0,0.0,0.0,0.0,0.0,0.0,0.0,0.0,0.0,0.0,0.0,0.0,0.0,0.0,0.0,0.0,0.0,0.0,0.0,0.0,0.0,0.0,0.0,0.0,0.0,0.0,0.0,0.0,0.0,0.0,0.0,0.0,0.0,0.0,0.0,0.0,0.0,0.0,0.0,0.0,0.0,0.0,0.0,0.0,0.0,0.0,0.0,0.0,0.0,0.0,0.0,0.0,0.0,0.0,0.0,0.0,0.0,0.0,0.0,0.0,0.0,0.0,0.0,0.0,0.0,0.0,0.0,0.0,0.0,0.0,0.0,0.0,0.0,0.0,0.0,0.0,-1.0325,-1.0768,-1.0054,-1.1376,-1.229,-1.229,-1.3588,-1.4249,-1.3761,-1.4349,0.0,0.0,0.0,0.0,0.0,0.0,0.0,0.0,0.0,0.0,0.0,0.0,0.0,0.0,0.0,0.0,0.0,0.0,0.0,0.0,0.0,0.0,0.0,0.0,0.0,0.0,0.0,0.0,0.0,0.0,0.0,0.0,0.0,0.0,0.0,0.0,0.0,0.0,0.0,0.0,0.0,0.0,0.0,0.0,0.0,0.0,0.0,0.0,0.0,0.0,0.0,0.0,0.0,0.0,0.0,0.0,0.0,0.0,0.0,0.0,0.0,0.0,0.0,0.0,0.0,0.0,0.0,0.0,0.0,0.0,0.0,0.0,0.0,0.0,0.0,0.0,0.0,0.0,0.0,0.0,0.0,0.0,0.0,0.0,0.0,0.0,0.0,0.0,0.0,0.0,0.0,0.0,0.0,0.0,0.0,0.0,0.0,0.0,0.0,0.0,0.0,0.0,-1.0425,-1.1463,-1.1629,-1.2309,-1.2606,-1.2262,-1.389,-1.4561,-1.3761,-1.4663,0.0,0.0,0.0,0.0,0.0,0.0,0.0,0.0,0.0,0.0,0.0,0.0,0.0,0.0,0.0,0.0,0.0,0.0,0.0,0.0,0.0,0.0,0.0,0.0,0.0,0.0,0.0,0.0,0.0,0.0,0.0,0.0,0.0,0.0,0.0,0.0,0.0,0.0,0.0,0.0,0.0,0.0,0.0,0.0,0.0,0.0,0.0,0.0,0.0,0.0,0.0,0.0,0.0,0.0,0.0,0.0,0.0,0.0,0.0,0.0,0.0,0.0,0.0,0.0,0.0,0.0,0.0,0.0,0.0,0.0,0.0,0.0,0.0,0.0,0.0,0.0,0.0,0.0,0.0,0.0,0.0,0.0,0.0,0.0,0.0,0.0,0.0,0.0,0.0,0.0,0.0,0.0,0.0,0.0,0.0,0.0,0.0,0.0,0.0,0.0,0.0,0.0,-0.9661,-1.0116,-1.285,-1.2019,-1.0748,-0.9283,-1.181,-1.3519,-1.3665,-1.3788,0.0,0.0,0.0,0.0,0.0,0.0,0.0,0.0,0.0,0.0,0.0,0.0,0.0,0.0,0.0,0.0,0.0,0.0,0.0,0.0,0.0,0.0,0.0,0.0,0.0,0.0,0.0,0.0,0.0,0.0,0.0,0.0,0.0,0.0,0.0,0.0,0.0,0.0,0.0,0.0,0.0,0.0,0.0,0.0,0.0,0.0,0.0,0.0,0.0,0.0,0.0,0.0,0.0,0.0,0.0,0.0,0.0,0.0,0.0,0.0,0.0,0.0,0.0,0.0,0.0,0.0,0.0,0.0,0.0,0.0,0.0,0.0,0.0,0.0,0.0,0.0,0.0,0.0,0.0,0.0,0.0,0.0,0.0,0.0,0.0,0.0,0.0,0.0,0.0,0.0,0.0,0.0,0.0,0.0,0.0,0.0,0.0,0.0,0.0,0.0,0.0,0.0,-1.1633,-1.2568,0.0,-1.1682,-1.2028,-1.0765,-1.1711,-1.2316,-1.2294,0.0,0.0,0.0,0.0,0.0,0.0,0.0,0.0,0.0,0.0,0.0,0.0,0.0,0.0,0.0,0.0,0.0,0.0,0.0,0.0,0.0,0.0,0.0,0.0,0.0,0.0,0.0,0.0,0.0,0.0,0.0,0.0,0.0,0.0,0.0,0.0,0.0,0.0,0.0,0.0,0.0,0.0,0.0,0.0,0.0,0.0,0.0,0.0,0.0,0.0,0.0,0.0,0.0,0.0,0.0,0.0,0.0,0.0,0.0,0.0,0.0,0.0,0.0,0.0,0.0,0.0,0.0,0.0,0.0,0.0,0.0,0.0,0.0,0.0,0.0,0.0,0.0,0.0,0.0,0.0,0.0,0.0,0.0,0.0,0.0,0.0,0.0,0.0,0.0,0.0,0.0,0.0,0.0,0.0,0.0,0.0,0.0,0.0,0.0,0.0,0.0,0.0,-1.1869,-1.277,-1.2433,0.0,-1.0753,-1.1594,-1.0929,-1.088,-1.1176,-1.1993,0.0,0.0,0.0,0.0,0.0,0.0,0.0,0.0,0.0,0.0,0.0,0.0,0.0,0.0,0.0,0.0,0.0,0.0,0.0,0.0,0.0,0.0,0.0,0.0,0.0,0.0,0.0,0.0,0.0,0.0,0.0,0.0,0.0,0.0,0.0,0.0,0.0,0.0,0.0,0.0,0.0,0.0,0.0,0.0,0.0,0.0,0.0,0.0,0.0,0.0,0.0,0.0,0.0,0.0,0.0,0.0,0.0,0.0,0.0,0.0,0.0,0.0,0.0,0.0,0.0,0.0,0.0,0.0,0.0,0.0,0.0,0.0,0.0,0.0,0.0,0.0,0.0,0.0,0.0,0.0,0.0,0.0,0.0,0.0,0.0,0.0,0.0,0.0,0.0,0.0,0.0,0.0,0.0,0.0,0.0,0.0,0.0,0.0,0.0,0.0,0.0,0.0,-1.7241,-1.2516,-0.8856,-0.8923,-0.8878,-0.895,-0.8915,-0.8922,-1.0272,0.0,0.0,0.0,0.0,0.0,0.0,0.0,0.0,0.0,0.0,0.0,0.0,0.0,0.0,0.0,0.0,0.0,0.0,0.0,0.0,0.0,0.0,0.0,0.0,0.0,0.0,0.0,0.0,0.0,0.0,0.0,0.0,0.0,0.0,0.0,0.0,0.0,0.0,0.0,0.0,0.0,0.0,0.0,0.0,0.0,0.0,0.0,0.0,0.0,0.0,0.0,0.0,0.0,0.0,0.0,0.0,0.0,0.0,0.0,0.0,0.0,0.0,0.0,0.0,0.0,0.0,0.0,0.0,0.0,0.0,0.0,0.0,0.0,0.0,0.0,0.0,0.0,0.0,0.0,0.0,0.0,0.0,0.0,0.0,0.0,0.0,0.0,0.0,0.0,0.0,0.0,0.0,0.0,0.0,0.0,0.0,0.0,0.0,0.0,0.0,0.0,0.0,0.0,-1.1482,-0.9957,-0.8923,-0.8878,-0.9312,-0.9488,-0.9509,-1.3705,-1.5608,-1.3933,0.0,0.0,0.0,0.0,0.0,0.0,0.0,0.0,0.0,0.0,0.0,0.0,0.0,0.0,0.0,0.0,0.0,0.0,0.0,0.0,0.0,0.0,0.0,0.0,0.0,0.0,0.0,0.0,0.0,0.0,0.0,0.0,0.0,0.0,0.0,0.0,0.0,0.0,0.0,0.0,0.0,0.0,0.0,0.0,0.0,0.0,0.0,0.0,0.0,0.0,0.0,0.0,0.0,0.0,0.0,0.0,0.0,0.0,0.0,0.0,0.0,0.0,0.0,0.0,0.0,0.0,0.0,0.0,0.0,0.0,0.0,0.0,0.0,0.0,0.0,0.0,0.0,0.0,0.0,0.0,0.0,0.0,0.0,0.0,0.0,0.0,0.0,0.0,0.0,0.0,0.0,0.0,0.0,0.0,0.0,0.0,0.0,0.0,0.0,0.0,0.0,0.0,-0.9343,-0.9098,-0.915,-0.9198,-1.0786,-1.2267,-1.3548,-1.7129,-1.849,-1.6381,0.0,0.0,0.0,0.0,0.0,0.0,0.0,0.0,0.0,0.0,0.0,0.0,0.0,0.0,0.0,0.0,0.0,0.0,0.0,0.0,0.0,0.0,0.0,0.0,0.0,0.0,0.0,0.0,0.0,0.0,0.0,0.0,0.0,0.0,0.0,0.0,0.0,0.0,0.0,0.0,0.0,0.0,0.0,0.0,0.0,0.0,0.0,0.0,0.0,0.0,0.0,0.0,0.0,0.0,0.0,0.0,0.0,0.0,0.0,0.0,0.0,0.0,0.0,0.0,0.0,0.0,0.0,0.0,0.0,0.0,0.0,0.0,0.0,0.0,0.0,0.0,0.0,0.0,0.0,0.0,0.0,0.0,0.0,0.0,0.0,0.0,0.0,0.0,0.0,0.0,0.0,0.0,0.0,0.0,0.0,0.0,0.0,0.0,0.0,0.0,0.0,0.0,-0.9839,-0.9719,-0.9767,-1.0059,-1.2849,-1.5858,-1.9127,-1.9391,-1.9388,-1.9368,0.0,0.0,0.0,0.0,0.0,0.0,0.0,0.0,0.0,0.0,0.0,0.0,0.0,0.0,0.0,0.0,0.0,0.0,0.0,0.0,0.0,0.0,0.0,0.0,0.0,0.0,0.0,0.0,0.0,0.0,0.0,0.0,0.0,0.0,0.0,0.0,0.0,0.0,0.0,0.0,0.0,0.0,0.0,0.0,0.0,0.0,0.0,0.0,0.0,0.0,0.0,0.0,0.0,0.0,0.0,0.0,0.0,0.0,0.0,0.0,-1.4776,0.0,0.0,0.0,0.0,0.0,0.0,0.0,0.0,0.0,0.0,0.0,0.0,0.0,0.0,0.0,0.0,0.0,0.0,0.0,0.0,0.0,0.0,0.0,0.0,0.0,0.0,0.0,0.0,0.0,0.0,0.0,0.0,0.0,0.0,0.0,0.0,0.0,0.0,0.0,0.0,0.0,-1.1597,-1.1842,-1.1996,-1.2072,-1.3556,-1.5943,-1.9103,-1.9376,-1.9407,-1.9354,-1.8721,0.0,0.0,0.0,0.0,0.0,0.0,0.0,0.0,0.0,0.0,0.0,0.0,0.0,0.0,0.0,0.0,0.0,0.0,0.0,0.0,0.0,0.0,0.0,0.0,0.0,0.0,0.0,0.0,0.0,0.0,0.0,0.0,0.0,0.0,0.0,0.0,0.0,0.0,0.0,0.0,0.0,0.0,0.0,0.0,0.0,0.0,0.0,0.0,0.0,0.0,0.0,0.0,0.0,0.0,0.0,0.0,0.0,0.0,0.0,0.0,-1.4816,0.0,0.0,0.0,0.0,0.0,0.0,0.0,0.0,0.0,0.0,0.0,0.0,0.0,0.0,0.0,0.0,0.0,0.0,0.0,0.0,0.0,0.0,0.0,0.0,0.0,0.0,0.0,0.0,0.0,0.0,0.0,0.0,0.0,0.0,0.0,0.0,0.0,0.0,0.0,0.0,-1.1608,-1.2037,-1.2098,-1.1367,-1.3305,-1.5526,-1.7718,-1.8114,-1.8596,-1.9346,-1.9015,0.0,0.0,0.0,0.0,0.0,0.0,0.0,0.0,0.0,0.0,0.0,0.0,0.0,0.0,0.0,0.0,0.0,0.0,0.0,0.0,0.0,0.0,0.0,0.0,0.0,0.0,0.0,0.0,0.0,0.0,0.0,0.0,0.0,0.0,0.0,0.0,0.0,0.0,0.0,0.0,0.0,0.0,0.0,0.0,0.0,0.0,0.0,0.0,0.0,0.0,0.0,0.0,0.0,-1.511,-1.511,-1.511,-1.511,-1.5244,-1.5458,-1.5217,-1.5217,-1.5378,-1.519,0.0,0.0,0.0,0.0,0.0,0.0,0.0,0.0,0.0,0.0,0.0,0.0,0.0,0.0,0.0,0.0,0.0,0.0,0.0,0.0,0.0,0.0,0.0,0.0,-1.4977,-1.499,-1.4563,0.0,0.0,0.0,0.0,0.0,0.0,0.0,0.0,0.0,0.0,0.0,-1.1472,-1.1765,-1.1684,-1.0763,-1.3287,-1.5343,-1.6239,-1.7056,-1.8114,-1.9439,-1.8784,-1.833,0.0,0.0,0.0,0.0,0.0,0.0,0.0,0.0,0.0,0.0,0.0,0.0,0.0,0.0,0.0,0.0,0.0,0.0,0.0,0.0,0.0,0.0,0.0,0.0,0.0,0.0,0.0,0.0,0.0,0.0,0.0,0.0,-1.421,-1.4263,0.0,0.0,0.0,0.0,0.0,0.0,0.0,0.0,0.0,0.0,0.0,0.0,0.0,-1.5337,-1.5337,-1.5631,-1.5752,-1.5712,-1.5712,-1.5712,-1.5712,-1.5712,-1.5738,-1.5765,-1.5725,0.0,-1.5418,-1.5631,0.0,0.0,0.0,0.0,0.0,0.0,0.0,0.0,0.0,0.0,0.0,0.0,0.0,0.0,0.0,0.0,0.0,0.0,0.0,0.0,0.0,0.0,-1.5725,-1.5979,-1.5872,-1.5765,0.0,-1.5177,-1.4522,-1.475,-1.4816,0.0,0.0,0.0,0.0,0.0,0.0,0.0,-1.3331,-1.2624,-1.2662,-1.3885,-1.5548,-1.6738,-1.6868,-1.8395,-1.9496,-1.9746,-1.9867,-1.9599,-1.8838,-1.849,0.0,0.0,0.0,0.0,0.0,0.0,0.0,0.0,0.0,0.0,0.0,0.0,0.0,0.0,0.0,0.0,0.0,0.0,0.0,0.0,0.0,0.0,0.0,0.0,0.0,0.0,0.0,0.0,0.0,-1.4351,-1.4958,-1.5696,-1.598,-1.6698,0.0,0.0,0.0,0.0,0.0,0.0,0.0,0.0,0.0,-1.5993,-1.5599,-1.5471,-1.5631,-1.5765,-1.5832,-1.5832,-1.5832,-1.5832,-1.5832,-1.5832,-1.5832,-1.5832,-1.5832,-1.5752,-1.5645,-1.5778,-1.5671,-1.5444,0.0,0.0,0.0,0.0,-1.479,-1.4816,-1.4816,-1.4937,-1.5044,-1.487,0.0,0.0,0.0,0.0,0.0,0.0,0.0,-1.5765,0.0,0.0,-1.5899,-1.6206,-1.6179,-1.6112,-1.6246,-1.5992,-1.5738,0.0,-1.5698,-1.5605,-1.5311,0.0,0.0,0.0,0.0,-1.4155,-1.2776,-1.3156,-1.3526,-1.3287,-1.483,-1.5861,-1.5861,-1.7661,-1.9051,-1.992,-2.016,-2.0067,-1.9679,-1.9225,-1.8677,0.0,0.0,0.0,0.0,0.0,0.0,0.0,0.0,0.0,0.0,0.0,0.0,0.0,0.0,0.0,0.0,0.0,0.0,0.0,0.0,0.0,0.0,0.0,0.0,0.0,0.0,0.0,0.0,-1.5367,-1.5559,-1.7054,-1.6566,-1.7107,0.0,0.0,0.0,0.0,0.0,0.0,-1.6922,-1.6847,-1.6425,-1.5498,-1.5511,-1.5605,-1.5832,-1.5832,-1.5832,-1.5832,-1.5832,-1.5832,-1.5832,-1.5832,-1.5832,-1.5832,-1.5832,-1.5832,-1.5832,-1.5832,-1.5832,-1.5805,-1.5591,-1.5631,-1.5778,-1.5351,-1.5324,-1.5524,-1.5591,-1.5765,-1.5925,-1.5778,-1.5778,-1.5792,-1.5591,0.0,0.0,0.0,0.0,-1.6393,-1.6473,-1.6273,-1.6152,-1.6513,-1.65,-1.642,-1.658,-1.666,-1.666,0.0,-1.65,-1.642,-1.6206,0.0,0.0,0.0,0.0,-1.5219,-1.2827,-1.3339,-1.3665,-1.3,-1.4227,-1.5196,-1.5735,-1.7567,-1.9085,-2.0225,-2.0414,-2.0454,-2.0454,-1.9973,-1.9626,-1.9479,0.0,0.0,0.0,0.0,0.0,0.0,0.0,0.0,0.0,0.0,0.0,0.0,0.0,0.0,0.0,0.0,0.0,0.0,0.0,0.0,0.0,0.0,0.0,0.0,0.0,0.0,0.0,0.0,0.0,-1.8324,-1.686,0.0,0.0,0.0,0.0,-1.8476,-1.8633,-1.8441,-1.7717,-1.7639,-1.7095,-1.5805,-1.5805,-1.5818,-1.5832,-1.5832,-1.5832,-1.5832,-1.5832,-1.5832,-1.5832,-1.5832,-1.5832,-1.5832,-1.5832,-1.5832,-1.5832,-1.5832,-1.5832,-1.5832,-1.5818,-1.5818,-1.5832,-1.5792,-1.5792,-1.5845,-1.6126,-1.6246,-1.6299,-1.6553,-1.6273,-1.5979,-1.6794,-1.6473,0.0,0.0,-1.666,-1.6754,-1.7034,-1.6887,-1.6807,-1.7382,-1.7088,-1.6834,-1.7395,-1.7088,-1.678,0.0,-1.7101,-1.7101,-1.7088,0.0,-1.7106,-1.5728,-1.5899,-1.5693,-1.4636,-1.3159,-1.3,-1.465,-1.4923,-1.5746,-1.7567,-1.947,-2.0655,-2.0655,-2.0909,-2.1069,-2.1069,-2.0775,-2.0347,-1.9786,-1.9172,0.0,0.0,0.0,0.0,0.0,0.0,0.0,0.0,0.0,0.0,0.0,0.0,0.0,0.0,0.0,0.0,0.0,0.0,0.0,0.0,0.0,0.0,0.0,0.0,0.0,0.0,0.0,0.0,-1.7289,-1.6621,0.0,-1.8277,-1.7626,-1.7336,-1.7575,-1.7026,-1.6607,-1.6466,-1.648,-1.6292,-1.5832,-1.5832,-1.5832,-1.5832,-1.5832,-1.5832,-1.5832,-1.5832,-1.5832,-1.5832,-1.5832,-1.5832,-1.5832,-1.5832,-1.5832,-1.5832,-1.5832,-1.5832,-1.5832,-1.5832,-1.5832,-1.5845,-1.6046,-1.6112,-1.6152,-1.6446,-1.6673,-1.6887,-1.7168,-1.7128,-1.7021,-1.7328,-1.7208,-1.7007,-1.7208,-1.7275,-1.7288,-1.7395,-1.7355,-1.7328,-1.7528,-1.7582,-1.7569,-1.7582,-1.7582,-1.7542,-1.7448,-1.7275,-1.7208,-1.7395,-1.7836,-1.7637,-1.6156,-1.7239,-1.7353,-1.4935,-1.5199,-1.5434,-1.5044,-1.6295,-1.7382,-1.8096,-1.9888,-2.0949,-2.0949,-2.1056,-2.1109,-2.1109,-2.1002,-2.0855,-2.0641,-2.0254,-1.9533,0.0,0.0,0.0,0.0,0.0,0.0,0.0,0.0,0.0,0.0,0.0,0.0,0.0,0.0,0.0,0.0,0.0,0.0,0.0,0.0,0.0,0.0,0.0,0.0,0.0,0.0,-1.6103,-1.7289,-1.6294,-1.6159,-1.768,-1.6783,-1.6255,-1.6458,-1.6232,-1.6085,-1.5818,-1.6197,-1.6197,-1.5832,-1.5832,-1.5832,-1.5832,-1.5832,-1.5832,-1.5832,-1.5832,-1.5832,-1.5832,-1.5832,-1.5832,-1.5832,-1.5832,-1.5832,-1.5832,-1.5832,-1.5885,-1.5979,-1.5979,-1.5979,-1.6019,-1.6313,-1.642,-1.646,-1.6754,-1.7048,-1.7328,-1.7515,-1.7582,-1.7582,-1.7582,-1.7582,-1.7582,-1.7582,-1.7662,-1.7742,-1.7742,-1.7809,-1.7916,-1.8009,-1.8116,-1.8143,-1.7929,-1.7969,-1.7983,-1.7782,-1.7582,-1.7515,-1.7702,-1.8237,-1.8289,-1.7253,-1.7982,-1.7843,-1.5774,-1.6166,-1.6442,-1.6118,-1.7417,-1.8536,-1.9136,-2.0177,-2.0895,-2.1096,-2.0922,-2.0895,-2.1096,-2.0922,-2.0815,-2.0815,-2.0628,-2.0,-1.8931,0.0,0.0,0.0,0.0,0.0,0.0,0.0,0.0,0.0,0.0,0.0,0.0,0.0,0.0,0.0,0.0,0.0,0.0,0.0,0.0,0.0,0.0,0.0,-1.768,-1.6656,-1.6354,-1.8206,-1.586,-1.4698,-1.6059,-1.5469,-1.5053,-1.5066,-1.6685,-1.7138,-1.5927,-1.7044,-1.7138,-1.5927,-1.5832,-1.5832,-1.5832,-1.5832,-1.5832,-1.5832,-1.5832,-1.5832,-1.5832,-1.5832,-1.5832,-1.5832,-1.5832,-1.5832,-1.5832,-1.5845,-1.6019,-1.6273,-1.6273,-1.6286,-1.6326,-1.6607,-1.6727,-1.678,-1.7061,-1.7341,-1.7582,-1.7582,-1.7582,-1.7582,-1.7582,-1.7595,-1.7595,-1.7595,-1.7822,-1.8063,-1.8063,-1.8277,-1.8571,-1.8851,-1.8718,-1.8517,-1.8504,-1.8277,-1.8063,-1.8063,-1.8063,-1.8063,-1.8076,-1.8544,-1.8931,-1.8818,-1.7877,0.0,-1.7314,-1.6035,-1.5974,-1.8054,-1.8363,-1.9111,-2.0943,-2.0575,-2.0494,-2.1069,-2.0575,-2.0508,-2.1082,-2.0561,-2.0254,-2.0254,-2.0227,-2.008,-1.98,0.0,0.0,0.0,0.0,0.0,0.0,0.0,0.0,0.0,0.0,0.0,0.0,0.0,0.0,0.0,0.0,0.0,0.0,0.0,0.0,0.0,0.0,-1.6619,-1.6381,-1.5271,-1.4713,-1.5304,-1.4599,-1.4372,-1.4902,-1.4953,-1.539,-1.6487,-1.7261,-1.7591,-1.7217,-1.7498,-1.7498,-1.7232,-1.6292,-1.6197,-1.7124,-1.6292,-1.5832,-1.5832,-1.5832,-1.5832,-1.5832,-1.5832,-1.5832,-1.5832,-1.5832,-1.5832,-1.5845,-1.6059,-1.6206,-1.6273,-1.6273,-1.6406,-1.662,-1.6914,-1.7168,-1.7355,-1.7435,-1.7515,-1.7582,-1.7582,-1.7582,-1.7582,-1.7582,-1.7742,-1.7916,-1.7916,-1.8143,-1.837,-1.837,-1.8584,-1.8824,-1.8905,-1.9025,-1.9065,-1.8851,-1.8571,-1.837,-1.837,-1.837,-1.8437,-1.8651,-1.8811,-1.8643,-1.7658,-1.8399,0.0,-1.5892,-1.769,-1.8902,-1.8089,-1.9274,-2.0198,-2.0788,-2.0641,-2.0708,-2.1082,-2.0949,-2.0935,-2.1096,-2.0949,-2.0869,-2.0869,-2.0241,-1.988,0.0,0.0,0.0,0.0,0.0,0.0,0.0,0.0,0.0,0.0,0.0,0.0,0.0,0.0,0.0,0.0,0.0,0.0,0.0,0.0,0.0,0.0,-1.6686,-1.6273,-1.5144,-1.4489,-1.4082,-1.4082,-1.4202,-1.4335,-1.4496,-1.4897,-1.5735,-1.7146,-1.749,-1.7684,-1.7684,-1.7684,-1.7684,-1.7684,-1.648,-1.6386,-1.7684,-1.648,-1.5832,-1.5832,-1.5832,-1.5832,-1.5832,-1.5832,-1.5832,-1.5832,-1.5832,-1.5899,-1.6032,-1.6206,-1.642,0.0,0.0,0.0,0.0,0.0,-1.7435,-1.7582,-1.7582,-1.7582,-1.7582,-1.7582,-1.7675,-1.7769,-1.7769,-1.7983,-1.8237,-1.8237,-1.845,-1.8677,-1.8677,-1.8891,-1.9105,-1.9105,-1.9239,-1.9292,-1.8985,-1.8891,-1.8824,-1.8691,-1.8771,0.0,-1.9078,-1.9105,-1.8814,-1.8144,-1.8513,-1.8369,-1.726,-1.8619,-1.9636,-1.9324,-2.0237,-2.0855,-2.0855,-2.0628,0.0,0.0,0.0,-2.0922,-2.0922,-2.0922,0.0,0.0,0.0,0.0,0.0,0.0,0.0,0.0,-1.9185,-1.8851,0.0,0.0,0.0,0.0,0.0,0.0,0.0,0.0,0.0,0.0,0.0,0.0,0.0,0.0,0.0,0.0,-1.6314,-1.5477,-1.4291,-1.4135,-1.4135,-1.4135,-1.4429,-1.4629,-1.4669,-1.5164,-1.604,-1.7234,-1.7579,-1.7744,-1.7744,0.0,0.0,0.0,0.0,-1.6574,-1.7684,-1.648,-1.5832,-1.5832,-1.5832,-1.5832,-1.5832,-1.5832,-1.5845,-1.5885,-1.5885,-1.6046,-1.6326,-1.6353,-1.67,-1.7194,-1.7194,-1.7194,-1.7235,-1.7488,-1.7582,-1.7582,-1.7622,0.0,0.0,-1.7675,-1.7876,-1.8103,-1.8103,-1.8303,-1.8544,-1.8544,-1.8744,-1.8971,-1.8971,-1.9172,-1.9372,-1.9372,-1.9399,-1.9345,-1.9078,-1.9225,-1.9345,-1.9118,-1.9252,-1.9412,-1.9412,-1.9386,-1.9372,-1.9166,-1.8314,-1.8227,-1.9742,-1.9137,-1.9261,-2.0903,0.0,0.0,-2.1069,-2.0615,-2.0575,-2.1122,-2.0949,-2.0828,-2.0828,-2.0828,-2.0695,-2.0441,-2.0401,-2.0641,-2.1162,-2.1122,-2.1109,-2.1069,-1.9506,-1.9065,0.0,0.0,0.0,0.0,0.0,0.0,0.0,0.0,0.0,0.0,0.0,0.0,0.0,0.0,0.0,-1.7426,-1.7041,-1.6381,-1.4647,-1.4442,-1.4442,-1.4442,-1.491,-1.5324,-1.5551,-1.5899,-1.6677,-1.8148,-1.8097,-1.7978,-1.7978,-1.8737,-1.8688,-1.7684,-1.7498,-1.7404,-1.7684,-1.648,-1.5832,-1.5832,0.0,0.0,-1.5832,-1.5832,-1.5965,-1.6192,-1.6192,-1.6353,-1.6647,-1.6887,-1.7181,-1.7502,-1.7502,-1.7502,-1.7502,-1.7555,-1.7582,-1.7622,-1.7862,-1.7956,-1.7996,-1.8237,-1.8357,-1.841,-1.841,-1.8611,0.0,-1.8838,-1.9052,-1.9279,-1.9279,-1.9319,-1.9372,-1.9372,-1.9546,-1.9706,-1.9639,-1.9679,-1.9773,-1.9947,-1.984,-1.972,-1.972,-1.9519,-1.9076,-1.797,-1.8854,-1.9376,-1.8765,-1.9814,-2.0572,-2.0775,-2.0962,-2.1015,-2.0775,-2.0869,-2.1096,-2.1443,-2.163,-2.1737,-2.1737,-2.1737,-2.171,-2.1643,-2.1416,-2.1349,-2.147,-2.1229,-2.1109,-2.1096,-2.0762,-2.0668,0.0,0.0,0.0,0.0,0.0,0.0,0.0,0.0,0.0,0.0,0.0,-1.998,0.0,0.0,-1.9599,-1.7624,-1.7417,-1.7016,-1.5576,-1.5239,-1.5124,-1.4977,-1.5351,-1.5725,-1.6019,-1.6313,-1.7035,-1.8444,-1.7678,-1.7505,-1.8082,-1.7849,-1.7669,-1.7684,-1.7044,-1.7044,-1.7684,-1.648,-1.5832,-1.5832,-1.5832,-1.5832,-1.5832,-1.5979,-1.6126,-1.6286,-1.6433,-1.666,-1.6954,-1.7248,-1.7448,-1.7582,-1.7582,-1.7582,-1.7595,-1.7756,-1.7809,-1.7862,-1.817,-1.8263,-1.829,-1.8437,-1.8584,-1.8704,-1.8704,-1.8918,-1.9145,-1.9145,-1.9252,-1.9372,-1.9372,-1.9372,-1.9399,-1.9546,-1.9693,-1.984,-1.9987,-2.0134,-2.0241,-2.0227,-2.0241,-2.0187,-2.004,-1.9893,-1.9549,-1.869,-1.9676,-2.0249,-1.9623,-2.0407,-2.1056,-2.0909,-2.1162,-2.1269,-2.1122,-2.1376,-2.1617,-2.1764,-2.2044,-2.2205,-2.2205,-2.2205,-2.2138,-2.1991,-2.1844,-2.1764,-2.1764,-2.147,-2.1336,-2.1323,-2.1176,-2.1109,0.0,0.0,0.0,0.0,0.0,0.0,0.0,0.0,-2.1115,-2.0722,-2.0566,-2.0566,-2.0566,-2.0566,-1.9923,-1.798,-1.7945,-1.791,-1.6955,-1.6555,-1.6238,-1.6115,-1.613,-1.6179,-1.642,-1.67,-1.7278,-1.8253,-1.7189,-1.6924,-1.7887,-1.6854,-1.6564,-1.7413,-1.6602,-1.6574,-1.7311,-1.6292,-1.5832,-1.5832,-1.5832,-1.5858,-1.5925,-1.6166,-1.6339,-1.646,-1.6754,-1.7007,-1.7248,-1.7488,-1.7609,-1.7662,-1.7675,-1.7702,-1.7782,-1.7969,-1.809,-1.817,-1.8477,-1.8571,-1.8584,-1.8637,-1.8811,-1.9011,-1.9011,-1.9185,-1.9372,-1.9372,-1.9372,-1.9372,-1.9372,-1.9412,-1.9506,-1.9746,-1.9893,-2.0027,-2.0267,-2.0548,-2.0695,-2.0454,-2.0641,-2.0748,-2.0454,-2.0454,-2.0374,-2.0027,-2.0374,-2.0695,-2.0748,-2.0962,-2.1136,-2.1189,-2.1403,-2.1577,-2.163,-2.1897,-2.2071,-2.2071,-2.2338,-2.2498,-2.2498,-2.2498,-2.2392,-2.2164,-2.2098,-2.2071,-2.2071,-2.1777,-2.163,-2.163,-2.1336,-2.1162,0.0,0.0,0.0,-2.0547,-2.0775,-2.0858,0.0,0.0,-2.0703,-2.0586,-2.0566,-2.0566,-2.0566,-2.0566,-2.0235,-1.9036,-1.9406,-1.9657,-1.8875,-1.8303,-1.8215,-1.8666,-1.7778,-1.7021,-1.715,-1.7315,-1.7593,-1.7684,-1.7311,-1.715,-1.7252,-1.7681,-1.7462,-1.6511,-1.7094,-1.7044,-1.6021,-1.5832,-1.5832,-1.5832,-1.5832,-1.5965,-1.6219,-1.6259,-1.6553,-1.7074,-1.7355,-1.7502,-1.7542,-1.7569,-1.7729,-1.7969,-1.7983,-1.8156,-1.8357,-1.813,-1.821,-1.8477,-1.8771,-1.8878,-1.8918,-1.9185,-1.9292,-1.9319,-1.9319,-1.9345,-1.9372,-1.9372,-1.9372,-1.9372,-1.9372,-1.9559,-1.976,-1.9786,-2.0201,-2.0588,-2.0615,-2.0855,-2.1056,-2.1015,-2.1256,-2.1363,-2.1069,-2.1229,-2.1216,-2.0655,-2.0628,-2.0775,-2.1029,-2.1082,-2.1203,-2.147,-2.1537,-2.1657,-2.1911,-2.2205,-2.2378,-2.2378,-2.2645,-2.2819,-2.2819,-2.2819,-2.2792,-2.2766,-2.2498,-2.2378,-2.2365,-2.2084,-2.1937,-2.1937,-2.1643,-2.1363,-2.57,0.0,0.0,0.0,-2.0625,-2.0584,-2.0605,-2.0762,-2.0879,-2.0625,-2.0566,-2.0566,-2.0566,-2.0566,-2.0332,0.0,-1.9949,-2.0252,-1.9396,-1.9051,-1.8934,-1.9018,-1.81,-1.7395,-1.7395,-1.7515,-1.7582,-1.7582,-1.7315,-1.7154,-1.7154,-1.7241,-1.7023,-1.6273,-1.6718,-1.6566,-1.5832,-1.5832,-1.5912,-1.6086,-1.6086,-1.6246,-1.6526,-1.67,-1.7007,-1.7408,-1.7528,-1.7582,-1.7595,-1.7782,-1.7916,-1.805,-1.8237,-1.849,-1.8731,-1.8597,-1.8637,-1.8784,-1.9078,-1.9185,-1.9199,-1.9332,-1.9372,-1.9372,-1.9372,-1.9372,-1.9372,-1.9372,-1.9492,-1.9626,-1.9626,-1.984,-2.0094,-2.0267,-2.0494,-2.0722,-2.0895,-2.1029,-2.1109,-2.1109,-2.1349,-2.151,-2.139,-2.1617,-2.1657,-2.1256,-2.1042,-2.0975,-2.1096,-2.1109,-2.1229,-2.1523,-2.155,-2.1603,-2.1724,-2.2151,-2.2352,-2.2178,-2.2605,-2.2939,-2.3126,-2.314,-2.314,-2.314,-2.3006,-2.2859,-2.2672,-2.2378,-2.2231,-2.2231,-2.1937,-2.1737,-2.6926,0.0,0.0,-2.2327,-2.1423,-2.1115,-2.0994,-2.1036,-2.0957,-2.0625,-2.0664,-2.0742,-2.0742,-2.084,-2.0816,-2.0484,-2.0716,-2.082,-2.0388,-1.9681,-1.9284,-1.9182,-1.8268,-1.7582,-1.7582,-1.7582,-1.7582,-1.7582,-1.7382,-1.7275,-1.7275,-1.6914,-1.6607,-1.6393,-1.6233,-1.6046,-1.5832,-1.5912,-1.6059,-1.6273,-1.6353,-1.654,-1.6834,-1.7128,-1.7382,-1.7582,-1.7582,-1.7635,-1.7729,-1.7956,-1.8143,-1.8303,-1.8531,-1.8784,-1.9052,-1.9052,-1.9052,-1.9078,-1.9292,-1.9372,-1.9372,-1.9372,-1.9372,-1.9372,-1.9372,-1.9372,-1.9386,-1.9466,-1.9639,-1.9813,-1.9893,-2.0134,-2.0414,-2.0628,-2.0735,-2.0855,-2.1069,-2.1109,-2.1136,-2.1216,-2.147,-2.1697,-2.1777,-2.1897,-2.1911,-2.171,-2.1349,-2.1109,-2.1109,-2.1176,-2.1283,-2.1416,-2.1577,-2.167,-2.167,-2.2124,-2.2405,-2.2365,-2.2752,-2.3126,-2.3434,-2.3447,-2.3447,-2.3447,-2.3447,-2.33,-2.2993,-2.2779,-2.2632,-2.2539,-2.2245,-2.2151,0.0,0.0,-2.3718,-2.4282,-2.3379,-2.2391,-2.2059,-2.1242,-2.0586,-2.0566,-2.0918,-2.1211,-2.1211,-2.1562,-2.1992,-2.2318,-2.2017,-2.1838,-2.2232,-2.0783,-1.9612,-1.9612,-1.8394,-1.7582,0.0,-1.7582,-1.7582,-1.7582,-1.7569,-1.7569,-1.7569,-1.7021,-1.67,-1.6687,-1.6139,-1.5832,-1.5832,-1.6112,-1.6259,-1.6273,-1.6553,-1.6847,-1.7141,-1.7435,-1.7569,-1.7582,-1.7582,-1.7756,-1.8036,-1.805,-1.8384,-1.8891,-1.8905,-1.9092,-1.9359,-1.9359,-1.9359,-1.9359,-1.9359,-1.9372,-1.9372,-1.9372,-1.9372,-1.9372,-1.9372,-1.9372,-1.9426,-1.9706,-1.9786,-1.9867,-2.0147,-2.0441,-2.0668,-2.0668,-2.0895,-2.1096,-2.1109,-2.1109,-2.1189,-2.1483,-2.1777,-2.2058,-2.2338,-2.2164,-2.1977,-2.1977,-2.1483,-2.1109,-2.1109,-2.1363,-2.143,-2.1149,-2.163,-2.1977,-2.1977,-2.2245,-2.2672,-2.3247,-2.33,-2.3447,-2.3741,-2.3754,-2.3754,-2.3754,-2.3754,-2.3607,-2.3313,-2.33,-2.314,-2.2846,-2.2539,-2.2565,0.0,0.0,-2.5326,-2.4655,-2.4169,-2.3505,-2.2285,-2.1735,-2.1456,-2.1095,-2.1367,-2.1758,-2.2031,-2.2207,-2.2441,-2.2852,-2.2311,-2.1596,-2.1111,-2.02,-1.9213,-1.8408,-1.7898,0.0,0.0,0.0,0.0,-1.7582,-1.7582,-1.7502,-1.7301,-1.7101,-1.682,-1.6433,-1.6233,-1.6126,-1.6126,-1.6219,-1.6473,-1.686,-1.7154,-1.7341,-1.7435,-1.7542,-1.7582,-1.7595,-1.7796,-1.7956,-1.8076,-1.8464,-1.8744,-1.8945,-1.9145,-1.9279,-1.9372,-1.9372,-1.9372,-1.9372,-1.9372,-1.9372,-1.9372,-1.9372,-1.9372,-1.9399,-1.9599,-1.9653,-1.972,-2.0,-2.0227,-2.0401,-2.0508,-2.0748,-2.0962,-2.0962,-2.1042,-2.1109,-2.1109,-2.1269,-2.143,-2.1537,-2.1937,-2.2298,-2.2405,-2.2498,-2.2432,-2.2044,-2.1483,-2.1109,-2.1109,-2.1203,-2.1216,-2.1122,-2.1283,-2.1483,-2.1683,-2.2138,-2.2592,-2.2993,-2.3394,-2.3754,-2.4048,-2.4062,-2.4062,-2.4062,-2.4062,-2.3915,-2.3621,-2.3621,-2.346,-2.3166,-2.306,-2.2966,0.0,-2.65,-2.6254,-2.5154,-2.4664,-2.4071,-2.273,-2.2232,-2.1865,-2.1487,-2.1934,-2.2422,-2.2695,-2.2988,-2.3379,-2.3965,-2.315,-2.2118,-2.1213,-2.0342,-1.924,-1.7806,-1.7582,-1.7582,0.0,0.0,0.0,-1.7582,-1.7488,-1.7341,-1.7154,-1.6954,-1.666,-1.6286,-1.6273,-1.6273,-1.6273,-1.6486,-1.682,-1.7315,-1.7488,-1.7582,-1.7582,-1.7702,-1.7742,-1.7769,-1.8076,-1.8263,-1.8384,-1.8771,-1.8985,-1.9105,-1.9292,-1.9372,-1.9372,-1.9372,-1.9439,-1.9506,-1.9399,-1.9372,-1.9386,-1.9492,-1.9519,-1.9573,-1.9867,-1.996,-2.0013,-2.0307,-2.0535,-2.0695,-2.0802,-2.0962,-2.1109,-2.1109,-2.1109,-2.1136,-2.1243,-2.1416,-2.1617,-2.1817,-2.2164,-2.2458,-2.2565,-2.2565,-2.2352,-2.1764,-2.1349,-2.1109,-2.1109,-2.1109,-2.1109,-2.1109,-2.1203,-2.139,-2.1683,-2.2151,-2.2645,-2.3153,-2.3554,-2.3941,-2.4342,-2.4356,-2.4356,-2.4356,-2.4356,-2.4209,-2.3928,-2.3928,-2.3781,-2.3487,-2.338,-2.322,-2.5924,-2.6321,-2.6243,-2.5635,-2.4889,-2.4116,-2.3536,-2.2737,-2.206,-2.2016,-2.2703,-2.3203,0.0,0.0,-2.4727,-2.5566,-2.4571,-2.3291,-2.2415,-2.1128,-1.9564,0.0,0.0,0.0,0.0,0.0,0.0,-1.7555,0.0,-1.7244,-1.7203,-1.6593,-1.6286,-1.6273,-1.6286,-1.6299,-1.6313,-1.6887,-1.7315,-1.7582,-1.7582,-1.7595,-1.7609,-1.7916,-1.805,-1.809,-1.8384,-1.8664,-1.8918,-1.8945,-1.9118,-1.9372,-1.9372,-1.9372,-1.9372,-1.9386,-1.9559,-1.976,-1.9506,-1.9412,-1.9452,-1.9733,-1.9826,-1.988,-2.0174,-2.0254,-2.0321,-2.0615,-2.0695,-2.0762,-2.1042,-2.1109,-2.1109,-2.1109,-2.1122,-2.1203,-2.1496,-2.1577,-2.1764,-2.2311,-2.2432,-2.2525,-2.2792,-2.2365,-2.179,-2.1216,-2.1122,-2.1109,-2.1109,-2.1109,-2.1122,-2.1136,-2.139,-2.167,-2.1977,-2.2271,-2.2819,-2.3714,-2.3781,-2.4048,-2.4609,-2.4636,-2.4636,-2.4636,-2.4636,-2.4502,-2.4222,-2.4222,-2.4075,-2.3781,-2.35,-2.3354,-2.3461,-2.4129,-2.4779,-2.4619,-2.524,-2.5715,-2.4804,-2.4377,-2.4175,-2.4075,-2.3834,-2.3828,0.0,0.0,0.0,-2.5195,-2.4141,0.0,-2.1478,-2.0405,0.0,-1.7793,0.0,-1.7582,-1.7582,-1.7382,0.0,0.0,-1.7194,-1.6954,-1.6526,-1.6553,-1.65,-1.6286,-1.6486,-1.67,-1.6927,-1.7288,-1.7515,-1.7582,-1.7582,-1.7702,-1.7929,-1.8009,-1.817,-1.8397,-1.8691,-1.8851,-1.8945,-1.9158,-1.9292,-1.9372,-1.9372,-1.9372,-1.9399,-1.9613,-1.9733,-1.9826,-1.996,-2.0013,-2.0027,-2.0094,-2.012,-2.0174,-2.0468,-2.0561,-2.0628,-2.0922,-2.1002,-2.1015,-2.1096,-2.1109,-2.1109,-2.1109,-2.1283,-2.1456,-2.1537,-2.1897,-2.2245,-2.2392,-2.2592,-2.2699,-2.2552,-2.2231,-2.1857,-2.1496,-2.1256,-2.1109,-2.1109,-2.1109,-2.1189,-2.1416,-2.151,-2.1764,-2.2258,-2.2579,-2.3046,-2.3728,-2.3968,-2.4262,-2.4623,-2.4636,-2.4636,-2.4636,-2.4636,-2.4596,-2.4529,-2.4529,-2.4382,-2.4088,-2.4008,-2.3741,-2.3373,-2.3941,-2.4415,-2.4168,-2.4746,-2.5147,-2.4399,-2.4365,-2.4493,-2.4415,-2.4337,0.0,0.0,0.0,0.0,0.0,0.0,0.0,-2.1528,-2.0288,-1.8964,0.0,-1.7194,0.0,-1.7194,-1.7048,-1.6901,0.0,-1.6767,-1.6673,-1.6473,-1.65,-1.65,-1.646,-1.6754,-1.7048,-1.7341,-1.7502,-1.7582,-1.7582,-1.7716,-1.7876,-1.805,-1.8317,-1.8517,-1.8691,0.0,-1.9118,-1.9132,-1.9292,-1.9372,-1.9372,-1.9372,-1.9452,-1.9573,-1.9733,-1.996,-2.0214,-2.0374,-2.0508,-2.0601,-2.0468,-2.0428,-2.0481,-2.0775,-2.0869,-2.0895,-2.1069,-2.1109,-2.1109,-2.1109,-2.1109,-2.1149,-2.1269,-2.143,-2.1617,-2.1884,-2.2191,-2.2458,-2.2592,-2.2752,-2.2726,-2.2298,-2.2205,-2.1991,-2.1443,-2.1323,-2.1256,-2.1122,-2.1109,-2.1229,-2.1523,-2.167,-2.1924,-2.2378,-2.2819,-2.3207,-2.3554,-2.3968,-2.4275,-2.4436,-2.4569,-2.4636,-2.4636,-2.4636,-2.4636,-2.4636,-2.4636,-2.4556,-2.4396,-2.4262,-2.3955,-2.4089,-2.4478,-2.4393,-2.3949,-2.395,-2.3928,-2.3541,-2.3693,-2.4078,-2.4196,0.0,0.0,-2.5137,0.0,-2.5391,-2.5896,0.0,-2.2921,-2.1695,-2.0263,-1.867,-1.6927,-1.67,-1.67,-1.67,-1.6673,-1.6567,-1.6339,-1.6299,-1.638,-1.6633,-1.6486,-1.6526,-1.6807,-1.7074,-1.7328,-1.7582,-1.7622,-1.7649,-1.7649,-1.7956,-1.813,-1.8183,-1.8691,-1.8945,-1.8998,-1.9252,-1.9372,-1.9372,-1.9372,-1.9386,-1.9426,-1.9426,-1.9599,-1.9867,-1.9907,-2.0241,-2.0681,-2.0722,-2.0895,-2.1069,-2.0815,-2.0735,-2.0775,-2.1029,-2.1109,-2.1109,-2.1109,-2.1109,-2.1109,-2.1109,-2.1136,-2.1229,-2.1496,-2.1617,-2.1804,-2.2311,-2.2445,-2.2552,-2.2806,-2.2859,-2.2686,-2.2138,-2.2218,-2.2084,-2.1283,-2.1349,-2.1416,-2.1203,-2.1162,-2.1283,-2.1577,-2.1871,-2.2164,-2.2458,-2.2966,-2.33,-2.338,-2.3861,-2.4182,-2.4262,-2.4502,-2.4636,-2.4636,-2.4636,-2.4636,-2.4636,-2.4636,-2.4636,-2.4623,-2.4382,-2.4102,-2.2329,-2.2609,-2.2908,-2.2819,-2.3757,-2.4723,-2.4923,-2.5109,0.0,0.0,0.0,-2.5176,-2.5547,-2.5625,0.0,-2.404,0.0,0.0,0.0,0.0,-1.8321,0.0,0.0,0.0,0.0,0.0,0.0,0.0,-1.6406,-1.6299,-1.6339,-1.6767,-1.7128,-1.7422,-1.7475,-1.7528,-1.7582,-1.7836,-1.7969,-1.7969,-1.8263,-1.8544,-1.8771,-1.8878,-1.9052,-1.9292,-1.9345,0.0,-1.9372,-1.9372,-1.9506,-1.972,-1.972,-1.9907,-2.0187,-2.0428,-2.0588,-2.0708,-2.0949,-2.1069,-2.1096,-2.1056,-2.1029,-2.1042,-2.1096,-2.1109,-2.1109,-2.1109,-2.1109,-2.1109,-2.1109,-2.1296,-2.1496,-2.1537,-2.1924,-2.2298,-2.2392,-2.2605,-2.2806,-2.2846,-2.2859,-2.2752,-2.2405,-2.2191,-2.1924,-2.1537,-2.1309,-2.1256,-2.1456,-2.147,-2.159,-2.1884,-2.2164,-2.2458,-2.2766,-2.2886,-2.3153,-2.3661,-2.3794,-2.4062,-2.4543,-2.4609,-2.4636,-2.4636,-2.4636,-2.4636,-2.4636,-2.4636,-2.4636,-2.4636,-2.4583,-2.4409,-2.231,-2.2676,-2.2832,-2.2832,-2.3401,-2.3947,-2.4169,0.0,0.0,0.0,0.0,-2.5215,-2.5664,0.0,0.0,0.0,0.0,0.0,0.0,0.0,0.0,0.0,0.0,0.0,0.0,0.0,0.0,0.0,-1.6714,-1.6727,-1.6727,-1.7141,-1.7435,-1.7582,-1.7582,-1.7662,-1.7822,-1.7969,-1.813,-1.8277,-1.8571,-1.8784,-1.8931,-1.9078,-1.9239,-1.9372,-1.9372,-1.9372,-1.9372,-1.9533,-1.9679,-1.9813,-1.996,-2.0201,-2.0481,-2.0628,-2.0775,-2.0922,-2.1069,-2.1109,-2.1109,-2.1109,-2.1109,-2.1109,-2.1109,-2.1109,-2.1109,-2.1109,-2.1109,-2.1149,-2.1296,-2.1443,-2.163,-2.1937,-2.2338,-2.2645,-2.2645,-2.2766,-2.2859,-2.2859,-2.2859,-2.2726,-2.2271,-2.2205,-2.2058,-2.1617,-2.143,-2.1443,-2.1737,-2.1777,-2.1884,-2.2178,-2.2338,-2.2539,-2.2832,-2.3006,-2.3166,-2.3287,-2.3741,-2.4048,-2.4182,-2.4476,-2.4636,-2.4636,-2.4636,-2.4636,-2.4636,-2.4636,-2.4636,-2.4636,-2.4636,-2.4476,-2.2309,-2.2687,-2.2687,-2.2687,-2.2687,-2.2706,-2.2802,-2.3178,0.0,0.0,0.0,0.0,0.0,0.0,0.0,0.0,0.0,0.0,0.0,0.0,0.0,0.0,0.0,0.0,0.0,0.0,0.0,0.0,-1.7074,-1.7248,-1.7248,-1.7462,-1.7582,-1.7582,-1.7649,-1.7796,-1.805,-1.817,-1.8357,-1.8584,-1.8878,-1.9025,-1.9025,-1.9265,-1.9372,-1.9372,-1.9372,-1.9399,-1.9479,-1.9706,-1.988,-2.0013,-2.0241,-2.0508,-2.0775,-2.0775,-2.0909,-2.1109,-2.1109,-2.1109,-2.1109,-2.1109,-2.1109,-2.1109,-2.1109,-2.1109,-2.1122,-2.1189,-2.1203,-2.1269,-2.1563,-2.1697,-2.1871,-2.2392,-2.2699,-2.2859,-2.2859,-2.2859,-2.2859,-2.2859,-2.2859,-2.2712,-2.2258,-2.2311,-2.2111,-2.1319,-2.1111,-2.1058,-2.0869,-2.0813,-2.1098,-2.1797,-2.2242,-2.2605,-2.2846,-2.3086,-2.3153,-2.2979,-2.3688,-2.4035,-2.3875,-2.4369,-2.4636,-2.4636,-2.4636,-2.4636,-2.4636,-2.4636,-2.4636,-2.4636,-2.4636,-2.4516,-2.1105,-2.148,-2.148,-2.148,-2.148,-2.1589,-2.1971,0.0,0.0,0.0,-2.5039,-2.5215,0.0,0.0,0.0,0.0,0.0,0.0,0.0,0.0,0.0,0.0,0.0,0.0,0.0,0.0,0.0,0.0,-1.7382,-1.7542,-1.7542,-1.7569,-1.7582,-1.7582,-1.7862,-1.8023,-1.805,-1.8571,-1.8851,-1.8891,-1.9185,-1.9332,-1.9332,-1.9359,-1.9372,-1.9372,-1.9372,-1.9519,0.0,-1.9786,-2.012,-2.0601,-2.0628,-2.0815,-2.1069,-2.1069,-2.1082,-2.1109,-2.1109,-2.1109,-2.1109,-2.1109,-2.1109,-2.1109,-2.1109,-2.1109,-2.1162,-2.143,-2.151,-2.1577,-2.1871,-2.2138,-2.2418,-2.2739,-2.2846,-2.2859,-2.2859,-2.2859,-2.2859,-2.2859,-2.2859,-2.2846,-2.2792,-2.2579,-2.1763,-1.982,-1.9518,-1.8852,-1.7255,-1.7161,-1.8067,-2.013,-2.1833,-2.2832,-2.2859,-2.2886,-2.3006,-2.3273,-2.3621,-2.3915,-2.4155,-2.4462,-2.4636,-2.4636,-2.4636,-2.4636,-2.4636,-2.4636,-2.4636,-2.4636,-2.4636,-2.4623,-1.9861,-2.0206,-2.0206,-2.0206,-2.0206,-2.0257,-2.0412,0.0,0.0,-2.1884,-2.2084,-2.2209,0.0,0.0,0.0,0.0,0.0,0.0,0.0,0.0,0.0,0.0,0.0,0.0,0.0,0.0,0.0,-1.7382,-1.7515,-1.7662,-1.7849,-1.7862,-1.7862,-1.7862,-1.8156,-1.8397,-1.8571,-1.8811,-1.9011,-1.9199,-1.9319,-1.9372,-1.9372,-1.9372,-1.9372,-1.9372,-1.9546,-1.9693,0.0,-2.0187,-2.0468,-2.0695,-2.0869,-2.1002,-2.1109,-2.1109,-2.1109,-2.1109,-2.1109,-2.1109,-2.1136,-2.1323,-2.1376,-2.1376,-2.1376,-2.1376,-2.1443,-2.1737,-2.1817,-2.1884,-2.2164,-2.2458,-2.2712,-2.2832,-2.2022,-2.1183,-2.1183,-2.034,-1.9495,-1.9495,-1.9495,-1.9438,-1.9278,-1.905,-1.8586,-1.7814,-1.754,-1.7202,-1.6934,-1.6934,-1.7791,-2.0179,-2.095,-2.1734,-2.2859,-2.2859,-2.2993,-2.33,-2.3607,-2.3901,-2.4195,-2.4476,-2.4636,-2.4636,-2.4636,-2.4636,-2.4636,-2.4636,-2.4636,-2.4636,-2.4636,-2.4636,-1.858,-1.8948,-1.8948,-1.8948,-1.8948,-1.8948,0.0,0.0,0.0,-1.9942,-2.0118,-2.0235,-2.0695,0.0,0.0,0.0,0.0,0.0,0.0,0.0,0.0,0.0,0.0,0.0,0.0,0.0,-1.7368,-1.7569,-1.7662,-1.7809,-1.8036,-1.821,-1.8263,-1.8183,-1.8464,-1.8718,-1.8918,-1.9011,-1.9158,-1.9372,-1.9372,-1.9372,-1.9372,-1.9452,-1.9492,-1.9506,-1.98,-1.9973,0.0,-2.0508,-2.0722,-2.0828,-2.1029,-2.1109,-2.1109,-2.1109,-2.1109,-2.1109,-2.1109,-2.1162,-2.1269,-2.1483,-2.1617,-2.1697,-2.1777,-2.175,-2.1737,-2.2031,-2.2178,-2.2298,-2.2498,-2.229,-2.2022,-2.2022,-2.0617,-1.9217,-1.9217,-1.8229,-1.7248,-1.7248,-1.7248,-1.7197,-1.6897,-1.6884,-1.6606,-1.5934,-1.576,-1.5583,-1.5487,-1.5356,-1.6234,-1.863,-1.9182,-2.0225,-2.2842,-2.2993,-2.31,-2.3313,-2.3768,-2.4115,-2.4329,-2.469,-2.485,-2.477,-2.477,-2.473,-2.4636,-2.4636,-2.4636,-2.4636,-2.4636,-2.4636,-1.7404,-1.7684,-1.7684,-1.7684,-1.7684,-1.7684,0.0,0.0,0.0,0.0,-2.0118,-2.0235,-2.0695,-1.97,0.0,0.0,0.0,0.0,0.0,0.0,0.0,0.0,0.0,0.0,0.0,0.0,-1.7582,-1.7582,-1.7862,0.0,-1.805,-1.8597,-1.8784,-1.849,-1.8771,-1.8918,-1.8918,-1.9212,-1.9359,-1.9372,-1.9372,-1.9372,-1.9372,-1.9666,-1.98,-1.9813,-2.0107,-2.0401,0.0,-2.0668,-2.0842,-2.1109,-2.1109,-2.1109,-2.1109,-2.1109,-2.1109,-2.1109,-2.1109,-2.1296,-2.155,-2.155,-2.175,-2.2031,-2.2325,-2.2205,-2.2044,-2.2338,-2.2619,-2.2859,-2.2859,-2.1459,-2.0201,-2.0201,-1.8648,-1.7248,-1.7248,-1.7248,-1.7248,-1.7248,-1.7248,-1.7248,-1.7248,-1.7248,-1.6539,-1.4344,-1.4195,-1.3593,-1.1476,-1.143,-1.2388,-1.4558,-1.6254,-1.8898,-2.3007,-2.3327,-2.3327,-2.3327,-2.4142,-2.4623,-2.4636,-2.5197,-2.5371,-2.5077,-2.5077,-2.493,-2.4636,-2.4636,-2.4636,-2.4636,-2.4636,-2.4636,-1.5019,-1.5697,-1.6386,-1.6386,-1.6386,-1.6386,-1.6386,0.0,0.0,0.0,0.0,0.0,-1.7399,-1.7046,-1.6828,-1.7051,0.0,0.0,0.0,0.0,0.0,0.0,0.0,0.0,0.0,0.0,-1.6147,-1.6331,-1.6429,-1.6085,-1.5399,-1.5565,-1.6665,-1.8672,-1.9078,-1.9225,-1.9225,-1.9319,-1.8881,-1.7806,-1.7872,-1.7958,-1.8089,-1.8239,-1.8981,-2.0107,-2.0414,-2.0588,-2.0695,-2.0895,-2.1029,-2.1109,-2.1109,-2.1109,-2.1109,-2.1109,-2.0451,-1.9431,-1.9431,-1.8804,-1.8106,-1.8272,-1.8372,-1.8483,-1.8738,-2.044,-2.2338,-2.2632,-2.2792,-2.2585,-2.1321,-2.0617,-1.9773,-1.8369,-1.6685,-1.5274,-1.5274,-1.4298,-1.3317,-1.3317,-1.3317,-1.3317,-1.3317,-1.3358,-1.2997,-1.2455,-1.2401,-1.2323,-1.1619,-1.1796,-1.2705,-1.4918,-1.5354,-1.6711,-1.9249,-2.1845,-2.3001,-2.2239,-2.3728,-2.481,-2.5211,-2.5411,-2.5464,-2.5384,-2.5371,-2.5224,-2.4943,-2.4943,-2.4836,-2.4636,-2.4636,-2.4636,0.0,-1.4459,-1.5235,-1.5629,-1.5832,0.0,0.0,0.0,0.0,0.0,0.0,0.0,0.0,0.0,-1.5925,-1.6219,-1.642,0.0,0.0,0.0,0.0,0.0,0.0,0.0,0.0,-1.4689,-1.4767,-1.4812,-1.4988,-1.488,-1.4235,-1.4336,-1.5205,-1.7213,-1.8081,-1.8765,-1.9372,-1.8765,-1.7985,-1.7114,-1.6549,-1.631,-1.6519,-1.7391,-1.8384,-1.9407,-2.046,-2.0842,0.0,-2.1029,-2.1109,-2.0982,-2.0322,-2.0068,-2.0081,-1.9401,-1.8629,-1.7719,-1.7807,-1.7325,-1.6586,-1.6716,-1.6827,-1.6917,-1.7207,-1.8688,-2.0537,-2.0707,-2.0756,-2.0479,-1.9356,-1.8508,-1.7669,-1.6404,-1.4716,-1.3309,-1.3309,-1.2466,-1.1619,-1.1619,-1.1619,-1.1619,-1.1619,-1.1586,-1.1572,-1.1613,-1.1714,-1.1796,-1.183,-1.1965,-1.2557,-1.4057,-1.4654,-1.5189,-1.5633,-1.9122,-2.1426,-2.1566,-2.3005,-2.4402,-2.5665,-2.5785,-2.5785,-2.5678,-2.5678,-2.5478,-2.5077,-2.497,-2.4823,-2.4636,-2.4636,-2.4636,0.0,-1.368,-1.4076,-1.5248,-1.5629,0.0,0.0,0.0,0.0,0.0,0.0,0.0,0.0,0.0,-1.5747,-1.598,0.0,0.0,0.0,0.0,0.0,0.0,0.0,0.0,0.0,-1.3396,-1.3406,-1.3426,-1.3794,-1.4023,-1.3926,-1.4134,-1.4361,-1.448,-1.5902,-1.7443,-1.901,-1.7584,-1.6877,-1.6868,-1.5318,-1.4706,-1.4913,-1.6893,-1.7771,0.0,-1.9954,-2.0716,-2.0716,-2.0716,-2.0716,-2.0589,-1.892,-1.8279,-1.8173,-1.6723,-1.6022,-1.5929,-1.6126,-1.6333,-1.6372,-1.6372,-1.6658,-1.6836,-1.6836,-1.6977,-1.7248,-1.7248,-1.7248,-1.7107,-1.6967,-1.5698,-1.4432,-1.429,-1.2888,-1.1619,-1.1619,-1.1619,-1.1619,-1.1619,-1.1619,-1.1619,-1.1619,-1.1735,-1.1789,-1.1667,-1.1898,-1.2026,-1.1884,-1.1999,-1.2142,-1.2277,-1.3798,-1.4129,-1.2642,-1.5993,-1.8957,-2.1026,-2.1965,-2.3463,-2.566,-2.6239,-2.6266,-2.5999,-2.5972,-2.5678,-2.5104,-2.481,-2.4663,-2.4636,-2.4636,-2.4636,-1.0485,0.0,-1.2425,-1.2727,-1.3596,-1.4364,0.0,0.0,0.0,0.0,0.0,0.0,0.0,0.0,0.0,0.0,0.0,0.0,0.0,0.0,0.0,0.0,0.0,0.0,0.0,-1.2038,-1.1994,-1.2142,-1.2355,-1.1879,-1.0951,-1.0876,-1.1495,-1.2689,-1.3168,-1.4123,-1.5677,-1.5481,-1.4751,-1.3478,-1.3403,-1.3444,-1.3616,-1.4198,-1.5197,-1.6487,-1.6926,-1.7076,-1.7076,-1.7076,-1.7076,-1.7098,-1.676,-1.6702,-1.6592,-1.6419,-1.5526,-1.444,-1.4484,-1.3801,-1.2828,-1.2828,-1.2858,-1.2888,-1.2888,-1.4867,-1.7248,-1.7248,-1.7248,-1.6826,-1.5416,-1.4716,-1.4006,-1.2602,-1.19,-1.1619,-1.1619,-1.1619,-1.1619,-1.1619,-1.1619,-1.1619,-1.1619,-1.1735,-1.1857,-1.1945,-1.2115,-1.2223,-1.2189,-1.2311,-1.2372,-1.2298,-1.2803,-1.293,-1.2657,-1.6195,-1.8055,-1.7501,-2.0754,-2.2945,-2.3683,-2.5542,-2.636,-2.6293,-2.6066,-2.5772,-2.5411,-2.5117,-2.4863,-2.4636,-2.4636,-2.4636,-0.8924,-0.9993,-1.117,-1.1755,-1.2425,-1.3006,0.0,0.0,0.0,0.0,0.0,0.0,0.0,0.0,0.0,0.0,0.0,0.0,0.0,0.0,0.0,0.0,0.0,0.0,0.0,0.0,-1.0677,-1.0768,-1.0844,-1.0568,-0.9815,-0.9822,-1.0214,-1.1134,-1.1134,-1.2344,-1.463,-1.4013,-1.3313,-1.2632,-1.2067,-1.1812,-1.2019,-1.289,-1.384,-1.4754,-1.5524,-1.5913,-1.5923,-1.6025,-1.5944,-1.5964,-1.5252,-1.5069,-1.4953,-1.4344,-1.3522,-1.2788,-1.2864,-1.2394,-1.1619,-1.1619,-1.1619,-1.1619,-1.1619,-1.3031,-1.4583,-1.4583,-1.4583,-1.4441,-1.3309,-1.3167,-1.2888,-1.19,-1.1619,-1.1619,-1.1619,-1.1619,-1.1619,-1.1619,-1.1619,-1.164,-1.1708,-1.1782,-1.1904,-1.2135,-1.2176,-1.2237,-1.2372,-1.24,-1.24,-1.2386,-1.2454,-1.2562,-1.2718,-1.4735,-1.6085,-1.6216,-1.8548,-2.0793,-2.2968,-2.4271,-2.5409,-2.6386,-2.6106,-2.5879,-2.5718,-2.5424,-2.513,-2.4836,-2.4836,-2.477,-0.8045,-0.881,-0.987,-1.1063,-1.1463,-1.1658,0.0,0.0,0.0,0.0,0.0,0.0,0.0,0.0,0.0,0.0,0.0,0.0,0.0,0.0,0.0,0.0,0.0,0.0,0.0,-0.9564,-0.9639,-0.9639,-0.9754,-0.9822,-0.9822,-0.9842,-0.9917,-1.0046,-1.0073,-1.1317,-1.4166,-1.2819,-1.2239,-1.254,-1.1156,-1.0595,-1.0717,-1.2281,-1.2931,-1.2931,0.0,0.0,-1.5202,-1.5252,-1.5348,-1.5262,-1.3985,-1.3376,-1.3263,-1.1924,-1.1423,-1.1443,-1.1572,-1.1619,-1.1619,-1.1619,-1.1619,-1.1619,-1.1619,-1.1619,-1.1619,-1.1619,-1.1619,-1.1619,-1.1619,-1.1619,-1.1619,-1.1619,-1.1619,-1.1619,-1.1619,-1.1619,-1.1619,-1.1619,-1.164,-1.1681,-1.1782,-1.1857,-1.1972,-1.2189,-1.2169,-1.221,-1.244,-1.2386,-1.2366,-1.2488,-1.2522,-1.2596,-1.2752,-1.2908,-1.385,-1.5772,-1.6266,-1.8418,-2.2968,-2.314,-2.4111,-2.6386,-2.6146,-2.5999,-2.5959,-2.5705,-2.5424,-2.5144,-2.5144,-2.501,-0.7972,-0.8069,-0.8188,-0.8499,-0.941,-1.0288,0.0,0.0,0.0,0.0,0.0,0.0,0.0,0.0,0.0,0.0,0.0,0.0,0.0,0.0,0.0,0.0,0.0,0.0,-0.9741,-0.9774,-0.9788,-0.9788,-0.9808,-0.9822,-0.9822,-0.9944,-1.0025,-1.0046,-1.0175,-1.0551,-1.1184,-1.0934,-1.0826,-1.0876,-1.0754,-1.0697,-1.0717,-1.0982,-1.1108,-1.1108,0.0,-1.1578,-1.1716,-1.1738,-1.1825,-1.1956,-1.1845,-1.1769,-1.179,-1.1667,-1.1586,-1.1586,-1.1613,-1.1619,-1.1619,-1.1619,-1.1619,-1.1619,-1.1619,-1.1619,-1.1619,-1.1619,-1.1619,-1.1619,-1.1619,-1.1619,-1.1619,-1.1619,-1.1619,-1.1619,-1.1619,-1.1619,-1.1619,-1.1619,-1.1714,-1.1769,-1.1667,-1.1965,-1.2149,-1.1932,-1.2203,-1.2406,-1.2332,-1.2406,-1.2474,-1.2501,-1.2617,-1.2759,-1.2915,-1.3057,-1.3363,-1.3844,-1.5639,-1.856,-2.2968,-2.314,-2.4111,-2.6386,-2.6346,-2.6199,-2.5959,-2.5919,-2.5732,-2.5451,-2.5451,-2.5424,-0.5832,-0.6807,-0.7872,-0.776,-0.8322,0.0,0.0,0.0,0.0,0.0,0.0,0.0,0.0,0.0,0.0,0.0,0.0,0.0,0.0,0.0,0.0,0.0,0.0,-0.9747,-0.9815,-0.9822,-0.9822,-0.9822,-0.9822,-0.9856,-0.9937,-1.0012,-1.012,-1.0283,-1.0358,-1.0466,-1.0616,-1.0616,-1.0616,-1.0616,-1.0683,-1.0717,-1.0717,-1.0717,-1.0765,-1.0846,0.0,-1.0928,-1.107,-1.1151,-1.1226,-1.1301,-1.1457,-1.1511,-1.1525,-1.1592,-1.1619,-1.1619,-1.1619,-1.1619,-1.1619,-1.1619,-1.1619,-1.1619,-1.1619,-1.1619,-1.1619,-1.1619,-1.1619,-1.1619,-1.1619,-1.1619,-1.1619,-1.1619,-1.1558,-1.1497,-1.1497,-1.1558,-1.1619,-1.1619,-1.1803,-1.1959,-1.1979,-1.2088,-1.2176,-1.2189,-1.2162,-1.2203,-1.2379,-1.2325,-1.2359,-1.2603,-1.2684,-1.2827,-1.3057,-1.3132,-1.3241,-1.339,-1.535,-1.7456,-1.9563,-2.0705,-2.1845,-2.282,-2.3952,-2.4539,-2.4414,-2.5701,-2.6039,-2.5758,-2.5758,-2.5665,-0.382,-0.5932,-0.7826,0.0,0.0,0.0,0.0,0.0,0.0,0.0,0.0,0.0,0.0,0.0,0.0,0.0,0.0,0.0,0.0,0.0,0.0,0.0,0.0,-0.9822,-0.9822,-0.9822,-0.9822,-0.9822,-0.9856,-0.9924,-1.0039,-1.0114,-1.0256,-1.0487,-1.0527,-1.0602,-1.0717,-1.0717,-1.0717,-1.0717,-1.0717,-1.0717,-1.0724,-1.0758,-1.0839,-1.0948,-1.0982,-1.1084,-1.1226,-1.1341,-1.1409,-1.1457,-1.1572,-1.1619,-1.1619,-1.1619,-1.1619,-1.1619,-1.1619,-1.1619,-1.1619,-1.1619,-1.1619,-1.1619,-1.1619,-1.1619,-1.1613,-1.1572,-1.1592,-1.1619,-1.1619,-1.1565,-1.1531,-1.1599,-1.1477,-1.1348,-1.1382,-1.1511,-1.1606,-1.1572,-1.1864,-1.2121,-1.2128,-1.2149,-1.2196,-1.2284,-1.2121,-1.2088,-1.2366,-1.2264,-1.2311,-1.2691,-1.2732,-1.2847,-1.3146,-1.3207,-1.3275,-1.3397,-1.4863,-1.5999,-1.6647,-1.8281,-1.942,-1.9907,-2.1523,-2.2327,-2.2327,-2.4602,-2.5464,-2.5257,-2.5896,-2.5932,-0.3327,-0.5996,0.0,0.0,0.0,0.0,0.0,0.0,0.0,0.0,0.0,0.0,0.0,0.0,0.0,0.0,0.0,0.0,0.0,0.0,0.0,0.0,0.0,-0.9822,-0.9822,-0.9822,-0.9822,-0.9822,-0.9951,-1.0039,-1.0046,-1.031,-1.0473,-1.0493,-1.0629,-1.0711,-1.0717,-1.0717,-1.0717,-1.0717,-1.0717,-1.0717,-1.0724,-1.0867,-1.0941,-1.0955,-1.109,-1.1233,-1.1375,-1.1389,-1.1477,-1.1606,-1.1613,-1.1619,-1.1619,-1.1619,-1.1619,-1.1619,-1.1619,-1.1619,-1.1619,-1.1619,-1.1619,-1.1619,-1.1619,-1.1619,-1.1592,-1.145,-1.1511,-1.1619,-1.1619,-1.1409,-1.1267,-1.1552,-1.1396,-1.1219,-1.1362,-1.1511,-1.1579,-1.1436,-1.1877,-1.2149,-1.1735,-1.2115,-1.2291,-1.1762,-1.2121,-1.2366,-1.2128,-1.2311,-1.2535,-1.2712,-1.2732,-1.2847,-1.3146,-1.3302,-1.339,-1.3403,-1.3562,-1.4541,-1.6483,-1.6811,-1.7792,-1.9907,-2.0069,-2.0069,-2.0069,-2.2327,-2.3288,-2.3436,-2.5384,-2.6346,-0.1211,-0.2228,0.0,0.0,0.0,0.0,0.0,0.0,0.0,0.0,0.0,0.0,0.0,0.0,0.0,0.0,0.0,0.0,0.0,0.0,0.0,0.0,0.0,-0.9836,-0.9822,-0.9822,-0.9863,-0.9958,-1.0019,-1.0127,-1.0317,-1.0432,-1.0534,-1.0629,-1.069,-1.0717,-1.0717,-1.0717,-1.0717,-1.0717,-1.0717,-1.0772,-1.0867,-1.0921,-1.105,-1.1226,-1.128,-1.1389,-1.1531,-1.1531,-1.1565,-1.1619,-1.1619,-1.1619,-1.1619,-1.1619,-1.1619,-1.1619,-1.1619,-1.1619,-1.1619,-1.1619,-1.1619,-1.1619,-1.1619,-1.1619,-1.1606,-1.1552,-1.1436,-1.1335,-1.1335,-1.1389,-1.143,-1.1355,-1.1246,-1.1179,-1.124,-1.1369,-1.1491,-1.1525,-1.1864,-1.2094,-1.1925,-1.2081,-1.2155,-1.1932,-1.2088,-1.2189,-1.2074,-1.2318,-1.2522,-1.2583,-1.284,-1.3091,-1.3295,-1.337,-1.3403,-1.3403,-1.3403,-1.3728,-1.4541,-1.4541,-1.5028,-1.5843,-1.7138,-1.7792,-1.7792,-2.0059,-2.1845,-2.314,-2.3952,-2.5092,0.0,0.0,0.0,0.0,0.0,0.0,0.0,0.0,0.0,0.0,0.0,0.0,0.0,0.0,0.0,0.0,0.0,0.0,0.0,0.0,0.0,0.0,0.0,0.0,-0.9836,-0.9869,-0.9937,-1.0039,-1.0134,-1.0276,-1.048,-1.0534,-1.0609,-1.0717,-1.0717,-1.0717,-1.0717,-1.0765,-1.0792,-1.0792,-1.0839,-1.0894,-1.0955,-1.1043,-1.1199,-1.1396,-1.1443,-1.1525,-1.1619,-1.1619,-1.1619,-1.1619,-1.1619,-1.1619,-1.1619,-1.1619,-1.1619,-1.1619,-1.1619,-1.1619,-1.1619,-1.1619,-1.1619,-1.1619,-1.1619,-1.1619,-1.1599,-1.1504,-1.1396,-1.126,-1.107,-1.1179,-1.1321,-1.1253,-1.1165,-1.1104,-1.1151,-1.1321,-1.1484,-1.1538,-1.1864,-1.2088,-1.1945,-1.204,-1.2088,-1.1945,-1.1999,-1.2081,-1.2128,-1.2345,-1.2542,-1.2637,-1.3003,-1.3268,-1.3322,-1.337,-1.3403,-1.3403,-1.3403,-1.3403,-1.3403,-1.3403,-1.3403,-1.3403,-1.4863,-1.5514,-1.5514,-1.7792,-1.9572,-2.1028,-2.1684,-2.298,0.0,0.0,0.0,0.0,0.0,0.0,0.0,0.0,0.0,0.0,0.0,0.0,0.0,0.0,0.0,0.0,0.0,0.0,0.0,0.0,0.0,0.0,0.0,0.0,0.0,0.0,-1.0053,-1.0053,-1.0324,-1.0493,-1.0493,-1.0636,-1.0717,-1.0717,-1.0717,-1.0717,-1.0724,-1.0873,-1.0948,-1.0955,-1.1097,-1.109,-1.0962,-1.1253,-1.1389,-1.1402,-1.1552,-1.1619,-1.1619,-1.1619,-1.1619,-1.1619,-1.1619,-1.1619,-1.1619,-1.1619,-1.1619,-1.1619,-1.1619,-1.1619,-1.1619,-1.1619,-1.1619,-1.1619,-1.1619,-1.1619,-1.1552,-1.1253,-1.1382,-1.1477,-1.088,-1.0724,-1.0833,-1.128,-1.1165,-1.0989,-1.1131,-1.1402,-1.1572,-1.1423,-1.1877,-1.2142,-1.1694,-1.1986,-1.2135,-1.1687,-1.187,-1.2121,-1.2277,-1.2413,-1.2623,-1.2929,-1.3227,-1.3336,-1.3186,-1.3315,-1.3403,-1.3403,-1.3403,-1.3403,-1.3403,-1.3403,-1.3403,-1.3403,-1.3403,-1.3403,-1.3403,-1.5514,-1.6647,-1.6647,-1.8933,-1.9907,0.0,0.0,0.0,0.0,0.0,0.0,0.0,0.0,0.0,0.0,0.0,0.0,0.0,0.0,0.0,0.0,0.0,0.0,0.0,0.0,0.0,0.0,0.0,0.0,0.0,0.0,0.0,0.0,0.0,-1.0541,-1.0649,-1.0697,-1.0717,-1.0717,-1.0717,-1.0772,-1.088,-1.0928,-1.0995,-1.1097,-1.1253,-1.1301,-1.1267,-1.1348,-1.145,-1.1552,-1.1599,-1.1619,-1.1619,-1.1619,-1.1619,-1.1619,-1.1619,-1.1619,-1.1619,-1.1619,-1.1619,-1.1619,-1.1619,-1.1619,-1.1619,-1.1619,-1.1619,-1.1619,-1.1619,-1.1545,-1.1463,-1.1477,-1.1321,-1.1179,-1.1314,-1.1118,-1.0914,-1.105,-1.1172,-1.1274,-1.1314,-1.1396,-1.1477,-1.1538,-1.1694,-1.1775,-1.164,-1.1728,-1.1775,-1.164,-1.187,-1.2189,-1.2556,-1.2542,-1.2657,-1.3064,-1.3186,-1.3268,-1.3329,-1.3376,-1.3403,-1.3403,-1.3403,-1.3403,-1.3403,-1.3403,-1.3403,-1.3403,-1.3403,-1.3403,-1.3403,-1.4052,-1.5185,-1.6647,-1.7302,-1.8444,0.0,0.0,0.0,0.0,0.0,0.0,0.0,0.0,0.0,0.0,0.0,0.0,0.0,0.0,0.0,0.0,0.0,0.0,0.0,0.0,0.0,0.0,0.0,0.0,0.0,0.0,0.0,0.0,0.0,0.0,0.0,-1.0724,-1.0717,-1.0717,-1.0778,-1.0853,-1.0948,-1.1063,-1.1165,-1.1253,-1.1409,-1.1484,-1.1484,-1.1484,-1.1531,-1.1619,-1.1619,-1.1619,-1.1619,-1.1619,-1.1619,-1.1619,-1.1619,-1.1619,-1.1619,-1.1619,-1.1619,-1.1619,-1.1619,-1.1619,-1.1619,-1.1619,-1.1619,-1.1606,-1.1545,-1.1504,-1.1463,-1.1375,-1.1287,-1.1233,-1.1328,-1.1287,-1.1199,-1.1138,-1.126,-1.1389,-1.1389,-1.1436,-1.1511,-1.1599,-1.1667,-1.1687,-1.1633,-1.1667,-1.1687,-1.1626,-1.1925,-1.2291,-1.2678,-1.2752,-1.2895,-1.3227,-1.3261,-1.3302,-1.3397,-1.3403,-1.3403,-1.3403,-1.3403,-1.3403,-1.3403,-1.3403,-1.3403,-1.3403,-1.3403,-1.3403,-1.3403,-1.3403,-1.4052,-1.535,-1.535,-1.5999,0.0,0.0,0.0,0.0,0.0,0.0,0.0,0.0,0.0,0.0,0.0,0.0,0.0,0.0,0.0,0.0,0.0,0.0,0.0,0.0,0.0,0.0,0.0,0.0,0.0,0.0,0.0,0.0,0.0,0.0,-1.0625,-1.0738,-1.0731,-1.0744,-1.0873,-1.0962,-1.0989,-1.1253,-1.1396,-1.1416,-1.1552,-1.1619,-1.1619,-1.1619,-1.1619,-1.1619,-1.1619,-1.1619,-1.1619,-1.1619,-1.1619,-1.1619,-1.1619,-1.1619,-1.1619,-1.1619,-1.1619,-1.1619,-1.1619,-1.1619,-1.1619,-1.1619,-1.1619,-1.1592,-1.1457,-1.1491,-1.1497,-1.1118,-1.1274,-1.147,-1.1104,-1.1301,-1.1565,-1.1443,-1.1409,-1.1409,-1.1409,-1.1518,-1.1619,-1.1619,-1.1721,-1.1769,-1.164,-1.1735,-1.1796,-1.1694,-1.204,-1.2413,-1.2691,-1.299,-1.3227,-1.3363,-1.339,-1.3403,-1.3403,-1.3403,-1.3403,-1.3403,-1.3403,-1.3403,-1.3403,-1.3403,-1.3403,-1.3403,-1.3403,-1.3403,-1.3403,-1.3403,-1.3403,-1.3403,-1.3403,-1.3403,0.0,0.0,0.0,0.0,0.0,0.0,0.0,0.0,0.0,0.0,0.0,0.0,0.0,0.0,0.0,0.0,0.0,0.0,0.0,0.0,0.0,0.0,0.0,0.0,0.0,0.0,0.0,0.0,0.0,0.0,-1.0518,-1.0765,-1.0806,-1.0928,-1.0941,-1.1063,-1.1294,-1.1362,-1.145,-1.1572,-1.1606,-1.1619,-1.1619,-1.1619,-1.1619,-1.1619,-1.1619,-1.1619,-1.1619,-1.1619,-1.1619,-1.1619,-1.1619,-1.1619,-1.1619,-1.1619,-1.1619,-1.1619,-1.1619,-1.1619,-1.1619,-1.1619,-1.1619,-1.1613,-1.1579,-1.1423,-1.1294,-1.1436,-1.1294,-1.1151,-1.1409,-1.1457,-1.1463,-1.1552,-1.1572,-1.1572,-1.1572,-1.1599,-1.1619,-1.1619,-1.1647,-1.1653,-1.1626,-1.1735,-1.1904,-1.2115,-1.2325,-1.2522,-1.2705,-1.299,-1.3186,-1.322,-1.3329,-1.3403,-1.3403,-1.3403,-1.3403,-1.3403,-1.3403,-1.3403,-1.3403,-1.3403,-1.3403,-1.3403,-1.3403,-1.3403,-1.3403,-1.3403,-1.3403,-1.3403,-1.3403,-1.3403,0.0,0.0,0.0,0.0,0.0,0.0,0.0,0.0,0.0,0.0,0.0,0.0,0.0,0.0,0.0,0.0,0.0,0.0,0.0,0.0,0.0,0.0,0.0,0.0,0.0,0.0,0.0,0.0,0.0,-0.3567,-0.5503,-0.7161,-0.9008,-1.0946,-1.1007,-1.1246,-1.1389,-1.1463,-1.1538,-1.1619,-1.1633,-1.1633,-1.1633,-1.1626,-1.1619,-1.1619,-1.1619,-1.1619,-1.1619,-1.1619,-1.1619,-1.1619,-1.1619,-1.1619,-1.1619,-1.1619,-1.1619,-1.1619,-1.1619,-1.1619,-1.1619,-1.1619,-1.1619,-1.1592,-1.1443,-1.1436,-1.1457,-1.1335,-1.1335,-1.1389,-1.1484,-1.1504,-1.1518,-1.1599,-1.1619,-1.1619,-1.1619,-1.1619,-1.1619,-1.1619,-1.1619,-1.164,-1.1708,-1.1843,-1.204,-1.2345,-1.2454,-1.2583,-1.2813,-1.3037,-1.3173,-1.3173,-1.3308,-1.3403,-1.3403,-1.3403,-1.3403,-1.3403,-1.3403,-1.3403,-1.3403,-1.3403,-1.3403,-1.3403,-1.3403,-1.3403,-1.3403,-1.3403,-1.3403,-1.3403,-1.3403,-1.3403,0.0,0.0,0.0,0.0,0.0,0.0,0.0,0.0,0.0,0.0,0.0,0.0,0.0,0.0,0.0,0.0,0.0,0.0,0.0,0.0,0.0,0.0,0.0,0.0,0.0,0.0,0.0,0.0,0.0,0.0,0.0,-0.2843,-0.5902,-0.9054,-1.0461,-1.1382,-1.1369,-1.1538,-1.1613,-1.1599,-1.09,-1.0919,-1.166,-1.1647,-1.1626,-1.1619,-1.1619,-1.1619,-1.1619,-1.1619,-1.1619,-1.1619,-1.1619,-1.1619,-1.1619,-1.1619,-1.1619,-1.1619,-1.1619,-1.1619,-1.1613,-1.1586,-1.1599,-1.1572,-1.1321,-1.1484,-1.166,-1.1226,-1.1416,-1.1701,-1.1491,-1.1525,-1.1619,-1.1619,-1.1619,-1.1619,-1.1619,-1.1619,-1.1619,-1.1619,-1.164,-1.1701,-1.1843,-1.1999,-1.2203,-1.2494,-1.2542,-1.2644,-1.2929,-1.3064,-1.3146,-1.3173,-1.3288,-1.337,-1.3397,-1.3403,-1.3403,-1.3403,-1.3403,-1.3403,-1.3403,-1.3403,-1.3403,-1.3403,-1.3403,-1.3403,-1.3403,-1.3403,-1.3403,-1.3403,-1.3403,-1.3403,0.0,0.0,0.0,0.0,0.0,0.0,0.0,0.0,0.0,0.0,0.0,0.0,0.0,0.0,0.0,0.0,0.0,0.0,0.0,0.0,0.0,0.0,0.0,0.0,0.0,0.0,0.0,0.0,0.0,0.0,0.0,-0.0401,-0.0947,-0.1509,-0.7807,-1.1274,-1.1559,-1.1525,-1.1599,-1.1504,-0.8246,-0.8295,-1.1556,-1.1549,-1.1667,-1.1619,-1.1619,-1.1619,-1.1619,-1.1619,-1.1619,-1.1619,-1.1619,-1.1619,-1.1619,-1.1619,-1.1619,-1.1619,-1.1619,-1.1619,-1.1599,-1.1463,-1.1511,-1.1613,-1.1572,-1.1504,-1.1484,-1.166,-1.1586,-1.147,-1.1565,-1.1606,-1.1619,-1.1619,-1.1619,-1.1619,-1.1619,-1.1619,-1.1619,-1.1619,-1.1714,-1.185,-1.2006,-1.2155,-1.2359,-1.2657,-1.2698,-1.2759,-1.2935,-1.2976,-1.3037,-1.3159,-1.3193,-1.3254,-1.339,-1.3403,-1.3403,-1.3403,-1.3403,-1.3403,-1.3403,-1.3403,-1.3403,-1.3403,-1.3403,-1.3403,-1.3403,-1.3403,-1.3403,-1.3403,-1.3403,-1.3403,0.0,0.0,0.0,0.0,0.0,0.0,0.0,0.0,0.0,0.0,0.0,0.0,0.0,0.0,0.0,0.0,0.0,0.0,0.0,0.0,0.0,0.0,0.0,0.0,0.0,0.0,0.0,0.0,0.0,0.0,0.0,0.0,0.0,0.0,-0.5302,-0.8273,-0.8398,-0.8344,-0.9417,-1.1504,-0.7666,-0.7865,-1.1576,-0.9334,-0.9607,-1.164,-1.164,-1.1633,-1.1619,-1.1619,-1.1619,-1.1619,-1.1619,-1.1619,-1.1619,-1.1619,-1.1619,-1.1619,-1.1619,-1.1565,-1.1484,-1.1409,-1.1436,-1.1477,-1.1389,-1.1552,-1.1742,-1.1619,-1.1674,-1.1742,-1.1647,-1.1619,-1.1619,-1.1619,-1.1619,-1.1619,-1.1619,-1.1619,-1.1619,-1.1619,-1.1803,-1.1979,-1.2047,-1.2257,-1.2481,-1.2698,-1.2807,-1.2854,-1.2834,-1.3051,-1.3166,-1.3064,-1.32,-1.3329,-1.3397,-1.3403,-1.3403,-1.3403,-1.3403,-1.3403,-1.3403,-1.3403,-1.3403,-1.3403,-1.3403,-1.3403,-1.3403,-1.3403,-1.3403,-1.3403,-1.3403,-1.3403,0.0,0.0,0.0,0.0,0.0,0.0,0.0,0.0,0.0,0.0,0.0,0.0,0.0,0.0,0.0,0.0,0.0,0.0,0.0,0.0,0.0,0.0,0.0,0.0,0.0,0.0,0.0,0.0,0.0,0.0,0.0,0.0,0.0,0.0,-0.2781,-0.4311,-0.4284,-0.43,-0.6758,-1.1572,-0.6626,-0.5788,-0.8629,-0.6657,-0.7373,-1.0191,-1.1214,-1.1647,-1.1626,-1.1619,-1.1619,-1.1619,-1.1619,-1.1619,-1.1619,-1.1619,-1.1619,-1.1613,-1.1572,-1.1538,-1.1484,-1.1369,-1.1409,-1.1477,-1.1321,-1.1592,-1.1884,-1.1586,-1.1721,-1.1898,-1.1674,-1.1619,-1.1619,-1.1619,-1.1619,-1.1619,-1.1619,-1.1619,-1.1633,-1.1667,-1.1884,-1.2074,-1.2115,-1.2332,-1.2569,-1.2759,-1.2854,-1.2874,-1.28,-1.3085,-1.3207,-1.2983,-1.3193,-1.3356,-1.3397,-1.3403,-1.3403,-1.3403,-1.3403,-1.3403,-1.3403,-1.3403,-1.3403,-1.3403,-1.3403,-1.3403,-1.3403,-1.3403,-1.3403,-1.3403,-1.3403,-1.3403,0.0,0.0,0.0,0.0,0.0,0.0,0.0,0.0,0.0,0.0,0.0,0.0,0.0,0.0,0.0,0.0,0.0,0.0,0.0,0.0,0.0,0.0,0.0,0.0,0.0,0.0,0.0,0.0,0.0,0.0,0.0,0.0,0.0,0.0,-0.0137,-0.0273,-0.027,-0.0273,-0.4068,-1.1576,-0.398,-0.0427,-0.0729,-0.4272,-0.5848,-0.6264,-1.0047,-1.1653,-1.1653,-1.1626,-1.1619,-1.1619,-1.1619,-1.1619,-1.1619,-1.1619,-1.1619,-1.1599,-1.145,-1.1579,-1.1735,-1.1314,-1.1463,-1.1782,-1.164,-1.1619,-1.1667,-1.1775,-1.1728,-1.164,-1.1619,-1.1619,-1.1619,-1.1619,-1.1619,-1.1619,-1.1619,-1.1619,-1.166,-1.1796,-1.1952,-1.2108,-1.225,-1.2406,-1.2603,-1.2901,-1.2834,-1.2793,-1.2929,-1.2969,-1.2976,-1.2963,-1.3098,-1.3241,-1.339,-1.3403,-1.3403,-1.3403,-1.3403,-1.3403,-1.3403,-1.3403,-1.3403,-1.3403,-1.3403,-1.3403,-1.3403,-1.3403,-1.3403,-1.3403,-1.3403,-1.3403,0.0,0.0,0.0,0.0,0.0,0.0,0.0,0.0,0.0,0.0,0.0,0.0,0.0,0.0,0.0,0.0,0.0,0.0,0.0,0.0,0.0,0.0,0.0,0.0,0.0,0.0,0.0,0.0,0.0,0.0,0.0,0.0,0.0,0.0,0.0,0.0,0.0,0.0,-0.1384,-0.4073,-0.1262,0.0,-0.0,-0.1422,-0.2132,-0.2133,-0.3605,-0.6974,-1.1543,-1.1536,-1.1529,-1.1667,-1.1572,-1.1531,-1.166,-1.1564,-1.1671,-1.153,-1.155,-1.1564,-1.1423,-1.1335,-1.1416,-1.1538,-1.1491,-1.1606,-1.1748,-1.1708,-1.1721,-1.1735,-1.164,-1.1619,-1.1619,-1.1619,-1.1619,-1.1647,-1.1735,-1.1755,-1.1769,-1.1823,-1.2033,-1.2223,-1.2284,-1.2488,-1.2684,-1.2793,-1.2929,-1.3003,-1.2969,-1.3125,-1.3207,-1.3105,-1.3227,-1.3342,-1.3397,-1.3403,-1.3403,-1.3403,-1.3403,-1.3403,-1.3403,-1.3403,-1.3403,-1.3403,-1.3403,-1.3403,-1.3403,-1.3403,-1.3403,-1.3403,-1.3403,-1.3403,0.0,0.0,0.0,0.0,0.0,0.0,0.0,0.0,0.0,0.0,0.0,0.0,0.0,0.0,0.0,0.0,0.0,0.0,0.0,0.0,0.0,0.0,0.0,0.0,0.0,0.0,0.0,0.0,0.0,0.0,0.0,0.0,0.0,0.0,0.0,0.0,0.0,0.0,0.0,0.0,0.0,0.0,0.0,0.0,0.0,0.0,0.0,-0.2866,-0.7819,-0.9168,-0.963,-0.9618,-0.9678,-0.9621,-0.9717,-0.9631,-0.9602,-0.9608,-0.9625,-1.0389,-1.1443,-1.1281,-1.1484,-1.1558,-1.1511,-1.1633,-1.1769,-1.166,-1.1701,-1.1748,-1.1647,-1.1619,-1.1619,-1.1626,-1.1563,-1.165,-1.1837,-1.1837,-1.1864,-1.1965,-1.2189,-1.2379,-1.2427,-1.2644,-1.2827,-1.2874,-1.3044,-1.3139,-1.3044,-1.32,-1.3288,-1.3186,-1.3261,-1.3342,-1.3397,-1.3403,-1.3403,-1.3403,-1.3403,-1.3403,-1.3403,-1.3403,-1.3403,-1.3403,-1.3403,-1.3403,-1.3403,-1.3403,-1.3403,-1.3403,-1.3403,-1.3403,0.0,0.0,0.0,0.0,0.0,0.0,0.0,0.0,0.0,0.0,0.0,0.0,0.0,0.0,0.0,0.0,0.0,0.0,0.0,0.0,0.0,0.0,0.0,0.0,0.0,0.0,0.0,0.0,0.0,0.0,0.0,0.0,0.0,0.0,0.0,0.0,0.0,0.0,0.0,0.0,0.0,0.0,0.0,0.0,0.0,0.0,0.0,0.0,-0.0285,-0.404,-0.5657,-0.5657,-0.5657,-0.5613,-0.5692,-0.5692,-0.5692,-0.5682,-0.5611,-0.8041,-1.1257,-1.1136,-1.1385,-1.1884,-1.1596,-1.1411,-1.1405,-1.1372,-1.1509,-1.1653,-1.1626,-1.1619,-1.1626,-1.166,-1.1443,-1.1457,-1.163,-1.173,-1.1938,-1.2237,-1.2413,-1.2556,-1.2712,-1.2868,-1.3017,-1.3152,-1.3173,-1.318,-1.318,-1.318,-1.318,-1.318,-1.318,-1.3241,-1.339,-1.3403,-1.3403,-1.3403,-1.3403,-1.3403,-1.3403,-1.3403,-1.3403,-1.3403,-1.3403,-1.3403,-1.3403,-1.3403,-1.3403,-1.3403,-1.3403,-1.341,0.6919,0.0,0.0,0.0,0.0,0.0,0.0,0.0,0.0,0.0,0.0,0.0,0.0,0.0,0.0,0.0,0.0,0.0,0.0,0.0,0.0,0.0,0.0,0.0,0.0,0.0,0.0,0.0,0.0,0.0,0.0,0.0,0.0,0.0,0.0,0.0,0.0,0.0,0.0,0.0,0.0,0.0,0.0,0.0,0.0,0.0,0.0,0.0,-0.0139,-0.1126,-0.1557,-0.1556,-0.1541,-0.1541,-0.1547,-0.1671,-0.1535,-0.1549,-0.1555,-0.2282,-0.3601,-0.6357,-0.7412,-0.7597,-0.7425,-0.7417,-0.7417,-0.7412,-0.9468,-1.1543,-1.1536,-1.1536,-1.159,-1.1656,-0.9414,-0.7493,-0.7515,-0.9883,-1.2086,-1.2433,-1.2562,-1.2718,-1.2868,-1.3017,-1.3125,-1.3166,-1.3268,-1.3336,-1.3336,-1.3336,-1.3336,-1.3336,-1.3336,-1.3356,-1.3397,-1.3403,-1.3403,-1.3403,-1.3403,-1.3403,-1.3403,-1.3403,-1.3403,-1.3403,-1.3403,-1.3403,-1.3403,-1.3403,-1.3403,-1.3403,-1.3512,-1.3566,0.0,0.0,0.0,0.0,0.0,0.0,0.0,0.0,0.0,0.0,0.0,0.0,0.0,0.0,0.0,0.0,0.0,0.0,0.0,0.0,0.0,0.0,0.0,0.0,0.0,0.0,0.0,0.0,0.0,0.0,0.0,0.0,0.0,0.0,0.0,0.0,0.0,0.0,0.0,0.0,0.0,0.0,0.0,0.0,0.0,0.0,0.0,0.0,0.0,0.0,0.0,0.0,0.0,0.0,0.0,0.0,0.0,0.0,0.0,0.0,-0.0432,-0.2612,-0.3344,-0.3344,-0.3344,-0.3344,-0.3344,-0.3341,-0.625,-0.9184,-0.9184,-0.9222,-0.9595,-1.1263,-0.9844,-0.7798,-0.6078,-0.9179,-1.2127,-1.2501,-1.2759,-1.2908,-1.3044,-1.3139,-1.3214,-1.3261,-1.3342,-1.3403,-1.3403,-1.3342,-1.3329,-1.3397,-1.3342,-1.3329,-1.3397,-1.3403,-1.3403,-1.3403,-1.3403,-1.3403,-1.3403,-1.3403,-1.3403,-1.3403,-1.3403,-1.3431,-1.3498,-1.3431,-1.3437,-1.3498,-1.3587,-1.3661,0.0,0.0,0.0,0.0,0.0,0.0,0.0,0.0,0.0,0.0,0.0,0.0,0.0,0.0,0.0,0.0,0.0,0.0,0.0,0.0,0.0,0.0,0.0,0.0,0.0,0.0,0.0,0.0,0.0,0.0,0.0,0.0,0.0,0.0,0.0,0.0,0.0,0.0,0.0,0.0,0.0,0.0,0.0,0.0,0.0,0.0,0.0,0.0,0.0,0.0,0.0,0.0,0.0,0.0,0.0,0.0,0.0,0.0,0.0,0.0,0.0,0.0,0.0,0.0,0.0,0.0,0.0,0.0,-0.247,-0.5084,-0.5084,-0.5134,-0.6082,-0.9425,-1.0304,-0.9286,-0.5981,-0.8171,-1.0895,-1.161,-1.1987,-1.2262,-1.2389,-1.2906,-1.3439,-1.3397,-1.341,-1.3403,-1.3403,-1.3288,-1.3254,-1.339,-1.3281,-1.3261,-1.3397,-1.3403,-1.3403,-1.3403,-1.3403,-1.3403,-1.3403,-1.3403,-1.3403,-1.3403,-1.3417,-1.3492,-1.3627,-1.3492,-1.3505,-1.3654,-1.3668,-1.3743,0.0,0.0,0.0,0.0,0.0,0.0,0.0,0.0,0.0,0.0,0.0,0.0,0.0,0.0,0.0,0.0,0.0,0.0,0.0,0.0,0.0,0.0,0.0,0.0,0.0,0.0,0.0,0.0,0.0,0.0,0.0,0.0,0.0,0.0,0.0,0.0,0.0,0.0,0.0,0.0,0.0,0.0,0.0,0.0,0.0,0.0,0.0,0.0,0.0,0.0,0.0,0.0,0.0,0.0,0.0,0.0,0.0,0.0,0.0,0.0,0.0,0.0,0.0,0.0,0.0,0.0,0.0,0.0,-0.0583,-0.1166,-0.1166,-0.1177,-0.1344,-0.2133,-0.231,-0.2028,-0.1284,-0.1771,-0.3387,-0.6895,-0.751,-0.7665,-0.7991,-1.0975,-1.3322,-1.3464,-1.3458,-1.3444,-1.3444,-1.3417,-1.341,-1.3437,-1.3417,-1.341,-1.3437,-1.3417,-1.3403,-1.3403,-1.3403,-1.3403,-1.3403,-1.3403,-1.3403,-1.3403,-1.3519,-1.36,-1.3627,-1.36,-1.3661,-1.3804,-1.3926,-1.4,0.0,0.0,0.0,0.7994,0.0,0.0,0.0,0.0,0.0,0.0,0.0,0.0,0.0,0.0,0.0,0.0,0.0,0.0,0.0,0.0,0.0,0.0,0.0,0.0,0.0,0.0,0.0,0.0,0.0,0.0,0.0,0.0,0.0,0.0,0.0,0.0,0.0,0.0,0.0,0.0,0.0,0.0,0.0,0.0,0.0,0.0,0.0,0.0,0.0,0.0,0.0,0.0,0.0,0.0,0.0,0.0,0.0,0.0,0.0,0.0,0.0,0.0,0.0,0.0,0.0,0.0,0.0,0.0,0.0,0.0,0.0,0.0,0.0,0.0,0.0,0.0,0.0,0.0,-0.065,-0.2827,-0.3124,-0.3266,-0.3338,-0.515,-0.7458,-0.9731,-1.0075,-1.0915,-1.3138,-1.3478,-1.2618,-1.0237,-1.0065,-1.0909,-1.3284,-1.3437,-1.3417,-1.3403,-1.3471,-1.3478,-1.3403,-1.3471,-1.3512,-1.3512,-1.3661,-1.377,-1.3851,-1.3851,-1.3885,-1.396,-1.4034,-1.4116,0.0,0.0,0.0,0.0,0.0,0.7204,0.0,0.0,0.0,0.0,0.0,0.0,0.0,0.0,0.0,0.0,0.0,0.0,0.0,0.0,0.0,0.0,0.0,0.0,0.0,0.0,0.0,0.0,0.0,0.0,0.0,0.0,0.0,0.0,0.0,0.0,0.0,0.0,0.0,0.0,0.0,0.0,0.0,0.0,0.0,0.0,0.0,0.0,0.0,0.0,0.0,0.0,0.0,0.0,0.0,0.0,0.0,0.0,0.0,0.0,0.0,0.0,0.0,0.0,0.0,0.0,0.0,0.0,0.0,0.0,0.0,0.0,0.0,0.0,0.0,0.0,0.0,0.0,0.0,0.0,0.0,0.0,0.0,0.0,-0.1159,-0.4853,-0.5363,-0.6707,-1.043,-1.2315,-1.1969,-0.8395,-0.6369,-0.6871,-1.057,-1.2432,-1.3437,-1.341,-1.3519,-1.3546,-1.3451,-1.3587,-1.3668,-1.3668,-1.381,-1.3946,-1.4075,-1.4102,-1.4116,-1.4116,-1.4116,-1.4183,0.0,0.0,0.0,0.0,0.7231,0.0,0.0,0.0,0.0,0.0,0.0,0.0,0.0,0.0,0.0,0.0,0.0,0.0,0.0,0.0,0.0,0.0,0.0,0.0,0.0,0.0,0.0,0.0,0.0,0.0,0.0,0.0,0.0,0.0,0.0,0.0,0.0,0.0,0.0,0.0,0.0,0.0,0.0,0.0,0.0,0.0,0.0,0.0,0.0,0.0,0.0,0.0,0.0,0.0,0.0,0.0,0.0,0.0,0.0,0.0,0.0,0.0,0.0,0.0,0.0,0.0,0.0,0.0,0.0,0.0,0.0,0.0,0.0,0.0,0.0,0.0,0.0,0.0,0.0,0.0,0.0,0.0,0.0,0.0,-0.0166,-0.0672,-0.084,-0.1006,-0.1509,-0.842,-1.3211,-1.2694,-0.5544,-0.1006,-0.1509,-0.8887,-1.3451,-1.3444,-1.3431,-1.3478,-1.36,-1.3743,-1.3817,-1.3817,-1.3966,-1.4055,-1.4075,-1.4211,-1.4272,-1.4272,-1.4272,-1.4285,0.0,0.0,0.0,0.0,0.0,0.0,0.7354,0.0,0.7143,0.0,0.0,0.0,0.0,0.0,0.0,0.0,0.0,0.0,0.0,0.0,0.0,0.0,0.0,0.0,0.0,0.0,0.0,0.0,0.0,0.0,0.0,0.0,0.0,0.0,0.0,0.0,0.0,0.0,0.0,0.0,0.0,0.0,0.0,0.0,0.0,0.0,0.0,0.0,0.0,0.0,0.0,0.0,0.0,0.0,0.0,0.0,0.0,0.0,0.0,0.0,0.0,0.0,0.0,0.0,0.0,0.0,0.0,0.0,0.0,0.0,0.0,0.0,0.0,0.0,0.0,0.0,0.0,0.0,0.0,0.0,0.0,0.0,0.0,0.0,0.0,0.0,0.0,0.0,0.0,-0.3365,-0.5558,-0.5558,-0.2187,0.0,0.0,-0.8236,-1.3338,-1.3485,-1.3532,-1.3661,-1.3878,-1.3939,-1.3973,-1.3973,-1.4122,-1.4204,-1.4204,-1.4272,-1.4299,-1.4299,-1.4299,-1.4299,1.4174,0.0,0.0,0.0,0.0,0.0,0.0,0.0,0.0,0.0,0.0,0.0,0.0,0.0,0.0,0.0,0.0,0.0,0.0,0.0,0.0,0.0,0.0,0.0,0.0,0.0,0.0,0.0,0.0,0.0,0.0,0.0,0.0,0.0,0.0,0.0,0.0,0.0,0.0,0.0,0.0,0.0,0.0,0.0,0.0,0.0,0.0,0.0,0.0,0.0,0.0,0.0,0.0,0.0,0.0,0.0,0.0,0.0,0.0,0.0,0.0,0.0,0.0,0.0,0.0,0.0,0.0,0.0,0.0,0.0,0.0,0.0,0.0,0.0,0.0,0.0,0.0,0.0,0.0,0.0,0.0,0.0,0.0,0.0,0.0,0.0,0.0,0.0,0.0,0.0,0.0,0.0,0.0,0.0,0.0,-0.5918,-1.0208,-1.1553,-1.2879,-1.3899,-1.4075,-1.4122,-1.4143,-1.4136,-1.4245,-1.4299,-1.4299,-1.4299,-1.4299,-1.4299,-1.4299,-1.4299,0.0,0.0,0.0,1.1076,0.0,0.0,0.0,0.0,0.7143,0.0,0.0,0.0,0.0,0.0,0.0,0.0,0.0,0.0,0.0,0.0,0.0,0.0,0.0,0.0,0.0,0.0,0.0,0.0,0.0,0.0,0.0,0.0,0.0,0.0,0.0,0.0,0.0,0.0,0.0,0.0,0.0,0.0,0.0,0.0,0.0,0.0,0.0,0.0,0.0,0.0,0.0,0.0,0.0,0.0,0.0,0.0,0.0,0.0,0.0,0.0,0.0,0.0,0.0,0.0,0.0,0.0,0.0,0.0,0.0,0.0,0.0,0.0,0.0,0.0,0.0,0.0,0.0,0.0,0.0,0.0,0.0,0.0,0.0,0.0,0.0,0.0,0.0,0.0,0.0,0.0,0.0,0.0,0.0,0.0,0.0,-0.0343,-0.2249,-0.6576,-1.1226,-1.3793,-1.3948,-1.4265,-1.4326,-1.4292,-1.4299,-1.4299,-1.4299,-1.4299,-1.4299,-1.4299,-1.4299,-1.4299,0.0,0.0,1.5375,1.324,0.0,0.0,0.0,0.0,0.0,0.0,0.0,0.0,0.0,0.0,0.0,0.0,0.0,0.0,0.0,0.0,0.0,0.0,0.0,0.0,0.0,0.0,0.0,0.0,0.0,0.0,0.0,0.0,0.0,0.0,0.0,0.0,0.0,0.0,0.0,0.0,0.0,0.0,0.0,0.0,0.0,0.0,0.0,0.0,0.0,0.0,0.0,0.0,0.0,0.0,0.0,0.0,0.0,0.0,0.0,0.0,0.0,0.0,0.0,0.0,0.0,0.0,0.0,0.0,0.0,0.0,0.0,0.0,0.0,0.0,0.0,0.0,0.0,0.0,0.0,0.0,0.0,0.0,0.0,0.0,0.0,0.0,0.0,0.0,0.0,0.0,0.0,0.0,0.0,0.0,0.0,0.0,-0.0696,-0.2099,-0.3864,-0.618,-0.9246,-1.2514,-1.4346,-1.4333,-1.4312,-1.4299,-1.4299,-1.4299,-1.4299,-1.4299,-1.4299,-1.4299,1.6714,1.7021,0.0,1.5215,1.4753,0.0,1.1636,0.0,0.0,0.0,0.0,0.0,0.0,0.0,0.0,0.0,0.0,0.0,0.0,0.0,0.0,0.0,0.0,0.0,0.0,0.0,0.0,0.0,0.0,0.0,0.0,0.0,0.0,0.0,0.0,0.0,0.0,0.0,0.0,0.0,0.0,0.0,0.0,0.0,0.0,0.0,0.0,0.0,0.0,0.0,0.0,0.0,0.0,0.0,0.0,0.0,0.0,0.0,0.0,0.0,0.0,0.0,0.0,0.0,0.0,0.0,0.0,0.0,0.0,0.0,0.0,0.0,0.0,0.0,0.0,0.0,0.0,0.0,0.0,0.0,0.0,0.0,0.0,0.0,0.0,0.0,0.0,0.0,0.0,0.0,0.0,0.0,0.0,0.0,0.0,0.0,0.0,0.0,0.0,-0.1421,-0.4465,-0.7506,-1.0717,-1.4095,-1.4299,-1.4285,-1.4217,-1.4272,-1.4299,-1.4299,-1.4299,-1.4299]}]]